Detalle de ayer:

21/8/19
Time         Wind Dir  Wind Gust   Humidity       Temp   Tot Rain Wind Chill Heat Index  Dew Point   Barom SL Temp Out H Temp Out L  DailyRain   HourRain   24HrRain   RainRate   Wind Run   Deg Heat   Deg Cool  MonthRain
                          km/hr          %         C         mm         C         C         C         mb         C         C         mm         mm         mm      mm/hr         km         C         C         mm
0:00              235        8.0         66       20.9      122.8       20.9       22.3       14.3     1014.3       20.9       20.9        0.0        0.0        0.0       0.00       77.2       0.00       4.89        0.0
0:02              234        4.8         66       20.8      122.8       20.8       22.2       14.3     1014.3       20.9       20.8        0.0        0.0        0.0       0.00        0.1       0.00       0.00        0.0
0:04              234        4.8         67       20.8      122.8       20.8       22.3       14.5     1014.3       20.9       20.8        0.0        0.0        0.0       0.00        0.2       0.00       0.00        0.0
0:06              234        4.8         68       20.8      122.8       20.8       22.3       14.7     1014.3       20.9       20.8        0.0        0.0        0.0       0.00        0.4       0.00       0.00        0.0
0:08              234        6.4         68       20.7      122.8       20.7       22.2       14.6     1014.3       20.9       20.7        0.0        0.0        0.0       0.00        0.5       0.00       0.00        0.0
0:10              233        4.8         68       20.7      122.8       20.7       22.2       14.6     1014.2       20.9       20.7        0.0        0.0        0.0       0.00        0.6       0.00       0.00        0.0
0:12              232        6.4         69       20.7      122.8       20.7       22.2       14.8     1014.3       20.9       20.7        0.0        0.0        0.0       0.00        0.8       0.00       0.00        0.0
0:14              232        9.7         69       20.6      122.8       20.6       22.2       14.7     1014.3       20.9       20.6        0.0        0.0        0.0       0.00        0.9       0.00       0.00        0.0
0:16              231        6.4         69       20.6      122.8       20.6       22.2       14.7     1014.3       20.9       20.6        0.0        0.0        0.0       0.00        1.1       0.00       0.00        0.0
0:18              231        8.0         69       20.6      122.8       20.6       22.1       14.7     1014.3       20.9       20.6        0.0        0.0        0.0       0.00        1.3       0.00       0.00        0.0
0:20              229        6.4         70       20.6      122.8       20.6       22.2       14.9     1014.2       20.9       20.6        0.0        0.0        0.0       0.00        1.4       0.00       0.00        0.0
0:22              228        4.8         70       20.5      122.8       20.5       22.1       14.8     1014.2       20.9       20.5        0.0        0.0        0.0       0.00        1.6       0.00       0.00        0.0
0:24              227        6.4         70       20.5      122.8       20.5       22.1       14.8     1014.2       20.9       20.5        0.0        0.0        0.0       0.00        1.8       0.00       0.00        0.0
0:26              227        6.4         70       20.5      122.8       20.5       22.1       14.8     1014.3       20.9       20.5        0.0        0.0        0.0       0.00        1.9       0.00       0.00        0.0
0:28              227        6.4         70       20.5      122.8       20.5       22.1       14.8     1014.3       20.9       20.5        0.0        0.0        0.0       0.00        2.0       0.00       0.00        0.0
0:30              227        6.4         70       20.5      122.8       20.5       22.1       14.8     1014.2       20.9       20.5        0.0        0.0        0.0       0.00        2.1       0.00       0.00        0.0
0:32              227        3.2         70       20.5      122.8       20.5       22.1       14.8     1014.2       20.9       20.5        0.0        0.0        0.0       0.00        2.2       0.00       0.00        0.0
0:34              227        1.6         70       20.5      122.8       20.5       22.1       14.8     1014.2       20.9       20.5        0.0        0.0        0.0       0.00        2.3       0.00       0.00        0.0
0:36              227        3.2         70       20.5      122.8       20.5       22.1       14.8     1014.3       20.9       20.5        0.0        0.0        0.0       0.00        2.4       0.00       0.00        0.0
0:38              227        4.8         70       20.5      122.8       20.5       22.1       14.8     1014.2       20.9       20.5        0.0        0.0        0.0       0.00        2.5       0.00       0.00        0.0
0:40              227        3.2         70       20.5      122.8       20.5       22.1       14.8     1014.3       20.9       20.5        0.0        0.0        0.0       0.00        2.6       0.00       0.00        0.0
0:42              227        3.2         70       20.5      122.8       20.5       22.1       14.8     1014.3       20.9       20.5        0.0        0.0        0.0       0.00        2.7       0.00       0.00        0.0
0:44              227        3.2         70       20.5      122.8       20.5       22.1       14.8     1014.3       20.9       20.5        0.0        0.0        0.0       0.00        2.8       0.00       0.00        0.0
0:46              227        6.4         70       20.5      122.8       20.5       22.1       14.8     1014.3       20.9       20.5        0.0        0.0        0.0       0.00        2.9       0.00       0.00        0.0
0:48              227        3.2         70       20.5      122.8       20.5       22.1       14.8     1014.3       20.9       20.5        0.0        0.0        0.0       0.00        3.0       0.00       0.00        0.0
0:50              227        3.2         70       20.5      122.8       20.5       22.1       14.8     1014.3       20.9       20.5        0.0        0.0        0.0       0.00        3.1       0.00       0.00        0.0
0:52              227        3.2         70       20.5      122.8       20.5       22.1       14.8     1014.3       20.9       20.5        0.0        0.0        0.0       0.00        3.1       0.00       0.00        0.0
0:54              227        1.6         70       20.5      122.8       20.5       22.1       14.8     1014.3       20.9       20.5        0.0        0.0        0.0       0.00        3.1       0.00       0.00        0.0
0:56              227        1.6         70       20.5      122.8       20.5       22.1       14.8     1014.3       20.9       20.5        0.0        0.0        0.0       0.00        3.2       0.00       0.00        0.0
0:58              227        4.8         70       20.5      122.8       20.5       22.1       14.8     1014.3       20.9       20.5        0.0        0.0        0.0       0.00        3.3       0.00       0.00        0.0
1:00              227        3.2         70       20.5      122.8       20.5       22.1       14.8     1014.3       20.9       20.5        0.0        0.0        0.0       0.00        3.3       0.00       0.00        0.0
1:02              227        1.6         70       20.4      122.8       20.4       22.1       14.8     1014.3       20.9       20.4        0.0        0.0        0.0       0.00        3.3       0.00       0.00        0.0
1:04              227        0.0         70       20.4      122.8       20.4       22.1       14.8     1014.3       20.9       20.4        0.0        0.0        0.0       0.00        3.3       0.00       0.00        0.0
1:06              227        0.0         70       20.4      122.8       20.4       22.0       14.7     1014.3       20.9       20.4        0.0        0.0        0.0       0.00        3.3       0.00       0.00        0.0
1:08              227        0.0         70       20.4      122.8       20.4       22.0       14.7     1014.3       20.9       20.4        0.0        0.0        0.0       0.00        3.3       0.00       0.00        0.0
1:10              227        0.0         70       20.3      122.8       20.3       22.0       14.7     1014.3       20.9       20.3        0.0        0.0        0.0       0.00        3.3       0.00       0.00        0.0
1:12              227        0.0         70       20.3      122.8       20.3       22.0       14.7     1014.3       20.9       20.3        0.0        0.0        0.0       0.00        3.3       0.00       0.00        0.0
1:14              227        3.2         70       20.3      122.8       20.3       22.0       14.7     1014.3       20.9       20.3        0.0        0.0        0.0       0.00        3.4       0.00       0.00        0.0
1:16              227        0.0         70       20.3      122.8       20.3       22.0       14.7     1014.2       20.9       20.3        0.0        0.0        0.0       0.00        3.4       0.00       0.00        0.0
1:18              227        0.0         70       20.3      122.8       20.3       22.0       14.7     1014.2       20.9       20.3        0.0        0.0        0.0       0.00        3.4       0.00       0.00        0.0
1:20              227        0.0         70       20.3      122.8       20.3       22.0       14.7     1014.3       20.9       20.3        0.0        0.0        0.0       0.00        3.4       0.00       0.00        0.0
1:22              227        0.0         70       20.3      122.8       20.3       22.0       14.7     1014.2       20.9       20.3        0.0        0.0        0.0       0.00        3.4       0.00       0.00        0.0
1:24              227        0.0         70       20.3      122.8       20.3       22.0       14.7     1014.3       20.9       20.3        0.0        0.0        0.0       0.00        3.4       0.00       0.00        0.0
1:26              227        0.0         70       20.3      122.8       20.3       22.0       14.7     1014.3       20.9       20.3        0.0        0.0        0.0       0.00        3.4       0.00       0.00        0.0
1:28              227        0.0         70       20.3      122.8       20.3       22.0       14.7     1014.3       20.9       20.3        0.0        0.0        0.0       0.00        3.4       0.00       0.00        0.0
1:30              227        0.0         70       20.3      122.8       20.3       22.0       14.7     1014.3       20.9       20.3        0.0        0.0        0.0       0.00        3.4       0.00       0.00        0.0
1:32              227        0.0         70       20.3      122.8       20.3       22.0       14.7     1014.2       20.9       20.3        0.0        0.0        0.0       0.00        3.4       0.00       0.00        0.0
1:34              227        0.0         70       20.3      122.8       20.3       22.0       14.7     1014.3       20.9       20.3        0.0        0.0        0.0       0.00        3.4       0.00       0.00        0.0
1:36              227        0.0         70       20.3      122.8       20.3       22.0       14.7     1014.3       20.9       20.3        0.0        0.0        0.0       0.00        3.4       0.00       0.00        0.0
1:38              227        0.0         70       20.3      122.8       20.3       22.0       14.7     1014.2       20.9       20.3        0.0        0.0        0.0       0.00        3.4       0.00       0.00        0.0
1:40              227        0.0         70       20.3      122.8       20.3       22.0       14.7     1014.3       20.9       20.3        0.0        0.0        0.0       0.00        3.4       0.00       0.00        0.0
1:42              227        0.0         70       20.3      122.8       20.3       22.0       14.7     1014.2       20.9       20.3        0.0        0.0        0.0       0.00        3.4       0.00       0.00        0.0
1:44              227        0.0         70       20.3      122.8       20.3       22.0       14.7     1014.2       20.9       20.3        0.0        0.0        0.0       0.00        3.4       0.00       0.00        0.0
1:46              227        0.0         70       20.3      122.8       20.3       22.0       14.7     1014.2       20.9       20.3        0.0        0.0        0.0       0.00        3.4       0.00       0.00        0.0
1:48              227        0.0         70       20.3      122.8       20.3       22.0       14.7     1014.2       20.9       20.3        0.0        0.0        0.0       0.00        3.4       0.00       0.00        0.0
1:50              227        0.0         70       20.3      122.8       20.3       22.0       14.7     1014.2       20.9       20.3        0.0        0.0        0.0       0.00        3.4       0.00       0.00        0.0
1:52              227        0.0         70       20.3      122.8       20.3       22.0       14.7     1014.2       20.9       20.3        0.0        0.0        0.0       0.00        3.4       0.00       0.00        0.0
1:54              227        0.0         70       20.4      122.8       20.4       22.0       14.7     1014.2       20.9       20.3        0.0        0.0        0.0       0.00        3.4       0.00       0.00        0.0
1:56              227        0.0         69       20.4      122.8       20.4       22.0       14.5     1014.1       20.9       20.3        0.0        0.0        0.0       0.00        3.4       0.00       0.00        0.0
1:58              227        0.0         69       20.4      122.8       20.4       22.0       14.6     1014.1       20.9       20.3        0.0        0.0        0.0       0.00        3.4       0.00       0.00        0.0
2:00              227        0.0         69       20.4      122.8       20.4       22.0       14.6     1014.1       20.9       20.3        0.0        0.0        0.0       0.00        3.4       0.00       0.00        0.0
2:02              227        0.0         69       20.4      122.8       20.4       22.0       14.6     1014.2       20.9       20.3        0.0        0.0        0.0       0.00        3.4       0.00       0.00        0.0
2:04              227        0.0         69       20.5      122.8       20.5       22.1       14.6     1014.1       20.9       20.3        0.0        0.0        0.0       0.00        3.4       0.00       0.00        0.0
2:06              227        0.0         68       20.5      122.8       20.5       22.0       14.4     1014.1       20.9       20.3        0.0        0.0        0.0       0.00        3.4       0.00       0.00        0.0
2:08              227        0.0         68       20.5      122.8       20.5       22.0       14.4     1014.1       20.9       20.3        0.0        0.0        0.0       0.00        3.4       0.00       0.00        0.0
2:10              227        0.0         68       20.5      122.8       20.5       22.0       14.4     1014.1       20.9       20.3        0.0        0.0        0.0       0.00        3.4       0.00       0.00        0.0
2:12              227        0.0         68       20.6      122.8       20.6       22.1       14.5     1014.1       20.9       20.3        0.0        0.0        0.0       0.00        3.4       0.00       0.00        0.0
2:14              227        0.0         68       20.6      122.8       20.6       22.1       14.5     1014.1       20.9       20.3        0.0        0.0        0.0       0.00        3.4       0.00       0.00        0.0
2:16              227        0.0         68       20.6      122.8       20.6       22.1       14.5     1014.1       20.9       20.3        0.0        0.0        0.0       0.00        3.4       0.00       0.00        0.0
2:18              226        0.0         68       20.6      122.8       20.6       22.1       14.5     1014.1       20.9       20.3        0.0        0.0        0.0       0.00        3.4       0.00       0.00        0.0
2:20              227        0.0         67       20.6      122.8       20.6       22.1       14.3     1014.1       20.9       20.3        0.0        0.0        0.0       0.00        3.4       0.00       0.00        0.0
2:22              227        0.0         67       20.7      122.8       20.7       22.1       14.3     1014.1       20.9       20.3        0.0        0.0        0.0       0.00        3.4       0.00       0.00        0.0
2:24              227        0.0         67       20.7      122.8       20.7       22.1       14.3     1014.1       20.9       20.3        0.0        0.0        0.0       0.00        3.4       0.00       0.00        0.0
2:26              227        0.0         66       20.7      122.8       20.7       22.1       14.1     1014.0       20.9       20.3        0.0        0.0        0.0       0.00        3.4       0.00       0.00        0.0
2:28              227        0.0         66       20.7      122.8       20.7       22.1       14.1     1014.1       20.9       20.3        0.0        0.0        0.0       0.00        3.4       0.00       0.00        0.0
2:30              227        0.0         66       20.7      122.8       20.7       22.1       14.1     1014.0       20.9       20.3        0.0        0.0        0.0       0.00        3.4       0.00       0.00        0.0
2:32              227        0.0         66       20.7      122.8       20.7       22.1       14.1     1014.0       20.9       20.3        0.0        0.0        0.0       0.00        3.4       0.00       0.00        0.0
2:34              227        0.0         66       20.8      122.8       20.8       22.2       14.2     1013.9       20.9       20.3        0.0        0.0        0.0       0.00        3.4       0.00       0.00        0.0
2:36              227        0.0         66       20.8      122.8       20.8       22.2       14.2     1014.1       20.9       20.3        0.0        0.0        0.0       0.00        3.4       0.00       0.00        0.0
2:38              227        0.0         66       20.8      122.8       20.8       22.2       14.2     1014.1       20.9       20.3        0.0        0.0        0.0       0.00        3.4       0.00       0.00        0.0
2:40              227        0.0         66       20.8      122.8       20.8       22.2       14.2     1014.0       20.9       20.3        0.0        0.0        0.0       0.00        3.4       0.00       0.00        0.0
2:42              227        0.0         66       20.8      122.8       20.8       22.2       14.2     1014.1       20.9       20.3        0.0        0.0        0.0       0.00        3.4       0.00       0.00        0.0
2:44              227        0.0         66       20.8      122.8       20.8       22.2       14.2     1014.1       20.9       20.3        0.0        0.0        0.0       0.00        3.4       0.00       0.00        0.0
2:46              227        0.0         66       20.8      122.8       20.8       22.2       14.2     1014.1       20.9       20.3        0.0        0.0        0.0       0.00        3.4       0.00       0.00        0.0
2:48              227        0.0         66       20.8      122.8       20.8       22.2       14.2     1014.1       20.9       20.3        0.0        0.0        0.0       0.00        3.4       0.00       0.00        0.0
2:50              227        0.0         66       20.8      122.8       20.8       22.2       14.3     1014.1       20.9       20.3        0.0        0.0        0.0       0.00        3.4       0.00       0.00        0.0
2:52              227        0.0         66       20.8      122.8       20.8       22.2       14.3     1014.0       20.9       20.3        0.0        0.0        0.0       0.00        3.4       0.00       0.00        0.0
2:54              227        0.0         66       20.8      122.8       20.8       22.2       14.3     1014.0       20.9       20.3        0.0        0.0        0.0       0.00        3.4       0.00       0.00        0.0
2:56              227        0.0         65       20.8      122.8       20.8       22.1       14.0     1013.9       20.9       20.3        0.0        0.0        0.0       0.00        3.4       0.00       0.00        0.0
2:58              226        0.0         65       20.8      122.8       20.8       22.1       14.0     1014.0       20.9       20.3        0.0        0.0        0.0       0.00        3.4       0.00       0.00        0.0
3:00              227        0.0         64       20.8      122.8       20.8       22.1       13.8     1013.9       20.9       20.3        0.0        0.0        0.0       0.00        3.4       0.00       0.00        0.0
3:02              227        0.0         64       20.8      122.8       20.8       22.1       13.8     1013.9       20.9       20.3        0.0        0.0        0.0       0.00        3.4       0.00       0.00        0.0
3:04              227        0.0         64       20.8      122.8       20.8       22.1       13.8     1014.0       20.9       20.3        0.0        0.0        0.0       0.00        3.4       0.00       0.00        0.0
3:06              227        0.0         64       20.8      122.8       20.8       22.1       13.8     1014.0       20.9       20.3        0.0        0.0        0.0       0.00        3.4       0.00       0.00        0.0
3:08              227        0.0         63       20.8      122.8       20.8       22.0       13.5     1014.0       20.9       20.3        0.0        0.0        0.0       0.00        3.4       0.00       0.00        0.0
3:10              227        0.0         63       20.8      122.8       20.8       22.0       13.5     1014.0       20.9       20.3        0.0        0.0        0.0       0.00        3.4       0.00       0.00        0.0
3:12              227        0.0         63       20.8      122.8       20.8       22.0       13.5     1014.0       20.9       20.3        0.0        0.0        0.0       0.00        3.4       0.00       0.00        0.0
3:14              227        0.0         62       20.8      122.8       20.8       22.0       13.3     1014.0       20.9       20.3        0.0        0.0        0.0       0.00        3.4       0.00       0.00        0.0
3:16              227        0.0         62       20.8      122.8       20.8       22.0       13.3     1014.0       20.9       20.3        0.0        0.0        0.0       0.00        3.4       0.00       0.00        0.0
3:18              227        4.8         62       20.8      122.8       20.8       22.0       13.3     1014.1       20.9       20.3        0.0        0.0        0.0       0.00        3.4       0.00       0.00        0.0
3:20              227        1.6         62       20.8      122.8       20.8       22.0       13.3     1014.1       20.9       20.3        0.0        0.0        0.0       0.00        3.5       0.00       0.00        0.0
3:22              227        3.2         62       20.8      122.8       20.8       22.0       13.3     1014.0       20.9       20.3        0.0        0.0        0.0       0.00        3.6       0.00       0.00        0.0
3:24              227        3.2         62       20.8      122.8       20.8       22.0       13.3     1014.0       20.9       20.3        0.0        0.0        0.0       0.00        3.6       0.00       0.00        0.0
3:26              227        1.6         62       20.9      122.8       20.9       22.0       13.3     1014.1       20.9       20.3        0.0        0.0        0.0       0.00        3.7       0.00       0.00        0.0
3:28              227        0.0         62       20.9      122.8       20.9       22.0       13.3     1014.1       20.9       20.3        0.0        0.0        0.0       0.00        3.7       0.00       0.00        0.0
3:30              226        0.0         62       20.9      122.8       20.9       22.0       13.3     1014.1       20.9       20.3        0.0        0.0        0.0       0.00        3.7       0.00       0.00        0.0
3:32              227        0.0         62       20.9      122.8       20.9       22.0       13.3     1014.0       20.9       20.3        0.0        0.0        0.0       0.00        3.7       0.00       0.00        0.0
3:34              227        0.0         62       20.9      122.8       20.9       22.0       13.3     1014.1       20.9       20.3        0.0        0.0        0.0       0.00        3.7       0.00       0.00        0.0
3:36              227        0.0         62       20.8      122.8       20.8       22.0       13.3     1014.1       20.9       20.3        0.0        0.0        0.0       0.00        3.7       0.00       0.00        0.0
3:38              227        0.0         62       20.8      122.8       20.8       22.0       13.3     1014.0       20.9       20.3        0.0        0.0        0.0       0.00        3.7       0.00       0.00        0.0
3:40              227        0.0         62       20.8      122.8       20.8       22.0       13.3     1014.1       20.9       20.3        0.0        0.0        0.0       0.00        3.7       0.00       0.00        0.0
3:42              227        0.0         62       20.8      122.8       20.8       22.0       13.3     1014.1       20.9       20.3        0.0        0.0        0.0       0.00        3.7       0.00       0.00        0.0
3:44              227        0.0         62       20.8      122.8       20.8       22.0       13.3     1014.1       20.9       20.3        0.0        0.0        0.0       0.00        3.7       0.00       0.00        0.0
3:46              227        0.0         63       20.8      122.8       20.8       22.0       13.5     1014.1       20.9       20.3        0.0        0.0        0.0       0.00        3.7       0.00       0.00        0.0
3:48              227        0.0         63       20.8      122.8       20.8       22.0       13.5     1014.0       20.9       20.3        0.0        0.0        0.0       0.00        3.7       0.00       0.00        0.0
3:50              227        0.0         63       20.8      122.8       20.8       22.0       13.5     1014.0       20.9       20.3        0.0        0.0        0.0       0.00        3.7       0.00       0.00        0.0
3:52              227        0.0         63       20.8      122.8       20.8       22.0       13.5     1014.1       20.9       20.3        0.0        0.0        0.0       0.00        3.7       0.00       0.00        0.0
3:54              227        0.0         63       20.8      122.8       20.8       22.0       13.5     1014.0       20.9       20.3        0.0        0.0        0.0       0.00        3.7       0.00       0.00        0.0
3:56              227        0.0         63       20.8      122.8       20.8       22.0       13.5     1014.1       20.9       20.3        0.0        0.0        0.0       0.00        3.7       0.00       0.00        0.0
3:58              227        0.0         63       20.7      122.8       20.7       21.9       13.4     1014.1       20.9       20.3        0.0        0.0        0.0       0.00        3.7       0.00       0.00        0.0
4:00              227        0.0         63       20.7      122.8       20.7       21.9       13.4     1014.1       20.9       20.3        0.0        0.0        0.0       0.00        3.7       0.00       0.00        0.0
4:02              227        0.0         63       20.6      122.8       20.6       21.8       13.3     1014.1       20.9       20.3        0.0        0.0        0.0       0.00        3.7       0.00       0.00        0.0
4:04              227        0.0         64       20.6      122.8       20.6       21.9       13.6     1014.1       20.9       20.3        0.0        0.0        0.0       0.00        3.7       0.00       0.00        0.0
4:06              227        0.0         64       20.6      122.8       20.6       21.8       13.5     1014.1       20.9       20.3        0.0        0.0        0.0       0.00        3.7       0.00       0.00        0.0
4:08              227        0.0         64       20.5      122.8       20.5       21.8       13.5     1014.1       20.9       20.3        0.0        0.0        0.0       0.00        3.7       0.00       0.00        0.0
4:10              227        0.0         64       20.4      122.8       20.4       21.7       13.4     1014.1       20.9       20.3        0.0        0.0        0.0       0.00        3.7       0.00       0.00        0.0
4:12              227        0.0         64       20.4      122.8       20.4       21.6       13.4     1014.1       20.9       20.3        0.0        0.0        0.0       0.00        3.7       0.00       0.00        0.0
4:14              227        0.0         64       20.4      122.8       20.4       21.6       13.4     1014.1       20.9       20.3        0.0        0.0        0.0       0.00        3.7       0.00       0.00        0.0
4:16              227        0.0         64       20.3      122.8       20.3       21.6       13.3     1014.1       20.9       20.3        0.0        0.0        0.0       0.00        3.7       0.00       0.00        0.0
4:18              227        0.0         64       20.3      122.8       20.3       21.6       13.3     1014.2       20.9       20.3        0.0        0.0        0.0       0.00        3.7       0.00       0.00        0.0
4:20              226        0.0         64       20.3      122.8       20.3       21.5       13.3     1014.2       20.9       20.3        0.0        0.0        0.0       0.00        3.7       0.00       0.00        0.0
4:22              227        0.0         64       20.2      122.8       20.2       21.5       13.2     1014.2       20.9       20.2        0.0        0.0        0.0       0.00        3.7       0.00       0.00        0.0
4:24              227        0.0         63       20.2      122.8       20.2       21.4       13.0     1014.2       20.9       20.2        0.0        0.0        0.0       0.00        3.7       0.00       0.00        0.0
4:26              227        0.0         63       20.2      122.8       20.2       21.4       13.0     1014.3       20.9       20.2        0.0        0.0        0.0       0.00        3.7       0.00       0.00        0.0
4:28              227        0.0         64       20.2      122.8       20.2       21.4       13.1     1014.2       20.9       20.2        0.0        0.0        0.0       0.00        3.7       0.00       0.00        0.0
4:30              227        0.0         63       20.1      122.8       20.1       21.3       12.9     1014.2       20.9       20.1        0.0        0.0        0.0       0.00        3.7       0.00       0.00        0.0
4:32              227        0.0         63       20.1      122.8       20.1       21.3       12.9     1014.2       20.9       20.1        0.0        0.0        0.0       0.00        3.7       0.00       0.00        0.0
4:34              227        0.0         63       20.1      122.8       20.1       21.3       12.9     1014.2       20.9       20.1        0.0        0.0        0.0       0.00        3.7       0.00       0.00        0.0
4:36              227        0.0         63       20.1      122.8       20.1       21.2       12.8     1014.1       20.9       20.1        0.0        0.0        0.0       0.00        3.7       0.00       0.00        0.0
4:38              227        0.0         63       20.1      122.8       20.1       21.2       12.8     1014.1       20.9       20.1        0.0        0.0        0.0       0.00        3.7       0.00       0.00        0.0
4:40              227        0.0         63       20.1      122.8       20.1       21.2       12.8     1014.2       20.9       20.1        0.0        0.0        0.0       0.00        3.7       0.00       0.00        0.0
4:42              227        0.0         63       20.1      122.8       20.1       21.2       12.8     1014.3       20.9       20.1        0.0        0.0        0.0       0.00        3.7       0.00       0.00        0.0
4:44              227        0.0         64       20.1      122.8       20.1       21.3       13.0     1014.4       20.9       20.1        0.0        0.0        0.0       0.00        3.7       0.00       0.00        0.0
4:46              227        0.0         64       20.1      122.8       20.1       21.3       13.0     1014.4       20.9       20.1        0.0        0.0        0.0       0.00        3.7       0.00       0.00        0.0
4:48              227        0.0         64       20.1      122.8       20.1       21.3       13.0     1014.4       20.9       20.1        0.0        0.0        0.0       0.00        3.7       0.00       0.00        0.0
4:50              227        0.0         64       20.1      122.8       20.1       21.3       13.0     1014.4       20.9       20.1        0.0        0.0        0.0       0.00        3.7       0.00       0.00        0.0
4:52              227        0.0         64       20.1      122.8       20.1       21.3       13.0     1014.4       20.9       20.1        0.0        0.0        0.0       0.00        3.7       0.00       0.00        0.0
4:54              227        0.0         64       20.1      122.8       20.1       21.3       13.0     1014.4       20.9       20.1        0.0        0.0        0.0       0.00        3.7       0.00       0.00        0.0
4:56              227        0.0         64       20.1      122.8       20.1       21.4       13.1     1014.4       20.9       20.1        0.0        0.0        0.0       0.00        3.7       0.00       0.00        0.0
4:58              227        0.0         64       20.1      122.8       20.1       21.4       13.1     1014.4       20.9       20.1        0.0        0.0        0.0       0.00        3.7       0.00       0.00        0.0
5:00              227        0.0         64       20.1      122.8       20.1       21.4       13.1     1014.4       20.9       20.1        0.0        0.0        0.0       0.00        3.7       0.00       0.00        0.0
5:02              227        0.0         64       20.1      122.8       20.1       21.4       13.1     1014.5       20.9       20.1        0.0        0.0        0.0       0.00        3.7       0.00       0.00        0.0
5:04              227        0.0         64       20.1      122.8       20.1       21.4       13.1     1014.5       20.9       20.1        0.0        0.0        0.0       0.00        3.7       0.00       0.00        0.0
5:06              227        0.0         64       20.1      122.8       20.1       21.4       13.1     1014.5       20.9       20.1        0.0        0.0        0.0       0.00        3.7       0.00       0.00        0.0
5:08              227        0.0         64       20.1      122.8       20.1       21.4       13.1     1014.4       20.9       20.1        0.0        0.0        0.0       0.00        3.7       0.00       0.00        0.0
5:10              227        0.0         64       20.2      122.8       20.2       21.4       13.1     1014.4       20.9       20.1        0.0        0.0        0.0       0.00        3.7       0.00       0.00        0.0
5:12              227        0.0         64       20.2      122.8       20.2       21.4       13.1     1014.4       20.9       20.1        0.0        0.0        0.0       0.00        3.7       0.00       0.00        0.0
5:14              227        0.0         64       20.2      122.8       20.2       21.5       13.2     1014.3       20.9       20.1        0.0        0.0        0.0       0.00        3.7       0.00       0.00        0.0
5:16              227        0.0         64       20.2      122.8       20.2       21.5       13.2     1014.4       20.9       20.1        0.0        0.0        0.0       0.00        3.7       0.00       0.00        0.0
5:18              227        0.0         64       20.2      122.8       20.2       21.5       13.2     1014.3       20.9       20.1        0.0        0.0        0.0       0.00        3.7       0.00       0.00        0.0
5:20              227        0.0         64       20.3      122.8       20.3       21.5       13.3     1014.3       20.9       20.1        0.0        0.0        0.0       0.00        3.7       0.00       0.00        0.0
5:22              227        0.0         64       20.3      122.8       20.3       21.5       13.3     1014.3       20.9       20.1        0.0        0.0        0.0       0.00        3.7       0.00       0.00        0.0
5:24              227        0.0         64       20.3      122.8       20.3       21.6       13.3     1014.4       20.9       20.1        0.0        0.0        0.0       0.00        3.7       0.00       0.00        0.0
5:26              227        0.0         64       20.3      122.8       20.3       21.6       13.3     1014.4       20.9       20.1        0.0        0.0        0.0       0.00        3.7       0.00       0.00        0.0
5:28              227        0.0         64       20.4      122.8       20.4       21.6       13.4     1014.4       20.9       20.1        0.0        0.0        0.0       0.00        3.7       0.00       0.00        0.0
5:30              227        0.0         64       20.4      122.8       20.4       21.6       13.4     1014.4       20.9       20.1        0.0        0.0        0.0       0.00        3.7       0.00       0.00        0.0
5:32              227        0.0         64       20.4      122.8       20.4       21.6       13.4     1014.5       20.9       20.1        0.0        0.0        0.0       0.00        3.7       0.00       0.00        0.0
5:34              227        0.0         64       20.4      122.8       20.4       21.6       13.4     1014.4       20.9       20.1        0.0        0.0        0.0       0.00        3.7       0.00       0.00        0.0
5:36              227        0.0         64       20.4      122.8       20.4       21.6       13.4     1014.5       20.9       20.1        0.0        0.0        0.0       0.00        3.7       0.00       0.00        0.0
5:38              227        0.0         64       20.4      122.8       20.4       21.7       13.4     1014.5       20.9       20.1        0.0        0.0        0.0       0.00        3.7       0.00       0.00        0.0
5:40              227        0.0         63       20.4      122.8       20.4       21.6       13.2     1014.5       20.9       20.1        0.0        0.0        0.0       0.00        3.7       0.00       0.00        0.0
5:42              227        0.0         63       20.4      122.8       20.4       21.6       13.2     1014.5       20.9       20.1        0.0        0.0        0.0       0.00        3.7       0.00       0.00        0.0
5:44              227        0.0         63       20.4      122.8       20.4       21.6       13.2     1014.5       20.9       20.1        0.0        0.0        0.0       0.00        3.7       0.00       0.00        0.0
5:46              227        0.0         64       20.5      122.8       20.5       21.8       13.5     1014.5       20.9       20.1        0.0        0.0        0.0       0.00        3.7       0.00       0.00        0.0
5:48              227        0.0         63       20.4      122.8       20.4       21.6       13.2     1014.6       20.9       20.1        0.0        0.0        0.0       0.00        3.7       0.00       0.00        0.0
5:50              227        0.0         63       20.4      122.8       20.4       21.6       13.2     1014.5       20.9       20.1        0.0        0.0        0.0       0.00        3.7       0.00       0.00        0.0
5:52              227        0.0         62       20.5      122.8       20.5       21.6       13.0     1014.7       20.9       20.1        0.0        0.0        0.0       0.00        3.7       0.00       0.00        0.0
5:54              227        0.0         62       20.4      122.8       20.4       21.6       12.9     1014.7       20.9       20.1        0.0        0.0        0.0       0.00        3.7       0.00       0.00        0.0
5:56              227        0.0         62       20.4      122.8       20.4       21.6       12.9     1014.7       20.9       20.1        0.0        0.0        0.0       0.00        3.7       0.00       0.00        0.0
5:58              227        0.0         62       20.4      122.8       20.4       21.6       12.9     1014.8       20.9       20.1        0.0        0.0        0.0       0.00        3.7       0.00       0.00        0.0
6:00              227        0.0         62       20.4      122.8       20.4       21.6       12.9     1014.8       20.9       20.1        0.0        0.0        0.0       0.00        3.7       0.00       0.00        0.0
6:02              227        0.0         62       20.4      122.8       20.4       21.6       12.9     1014.8       20.9       20.1        0.0        0.0        0.0       0.00        3.7       0.00       0.00        0.0
6:04              227        0.0         62       20.4      122.8       20.4       21.6       12.9     1014.9       20.9       20.1        0.0        0.0        0.0       0.00        3.7       0.00       0.00        0.0
6:06              227        0.0         62       20.5      122.8       20.5       21.6       13.0     1014.8       20.9       20.1        0.0        0.0        0.0       0.00        3.7       0.00       0.00        0.0
6:08              227        0.0         62       20.5      122.8       20.5       21.6       13.0     1014.9       20.9       20.1        0.0        0.0        0.0       0.00        3.7       0.00       0.00        0.0
6:10              227        0.0         61       20.5      122.8       20.5       21.6       12.7     1014.9       20.9       20.1        0.0        0.0        0.0       0.00        3.7       0.00       0.00        0.0
6:12              227        0.0         61       20.5      122.8       20.5       21.6       12.7     1014.8       20.9       20.1        0.0        0.0        0.0       0.00        3.7       0.00       0.00        0.0
6:14              227        0.0         61       20.5      122.8       20.5       21.6       12.7     1014.8       20.9       20.1        0.0        0.0        0.0       0.00        3.7       0.00       0.00        0.0
6:16              227        0.0         61       20.5      122.8       20.5       21.6       12.7     1014.7       20.9       20.1        0.0        0.0        0.0       0.00        3.7       0.00       0.00        0.0
6:18              227        0.0         61       20.6      122.8       20.6       21.6       12.8     1014.8       20.9       20.1        0.0        0.0        0.0       0.00        3.7       0.00       0.00        0.0
6:20              227        0.0         61       20.6      122.8       20.6       21.7       12.8     1014.8       20.9       20.1        0.0        0.0        0.0       0.00        3.7       0.00       0.00        0.0
6:22              227        0.0         61       20.6      122.8       20.6       21.7       12.8     1014.8       20.9       20.1        0.0        0.0        0.0       0.00        3.7       0.00       0.00        0.0
6:24              227        0.0         61       20.7      122.8       20.7       21.7       12.9     1014.8       20.9       20.1        0.0        0.0        0.0       0.00        3.7       0.00       0.00        0.0
6:26              227        0.0         61       20.7      122.8       20.7       21.7       12.9     1014.9       20.9       20.1        0.0        0.0        0.0       0.00        3.7       0.00       0.00        0.0
6:28              227        0.0         61       20.7      122.8       20.7       21.8       12.9     1014.9       20.9       20.1        0.0        0.0        0.0       0.00        3.7       0.00       0.00        0.0
6:30              227        0.0         61       20.7      122.8       20.7       21.8       12.9     1014.9       20.9       20.1        0.0        0.0        0.0       0.00        3.7       0.00       0.00        0.0
6:32              227        0.0         60       20.8      122.8       20.8       21.8       12.7     1014.9       20.9       20.1        0.0        0.0        0.0       0.00        3.7       0.00       0.00        0.0
6:34              227        0.0         60       20.8      122.8       20.8       21.8       12.7     1014.9       20.9       20.1        0.0        0.0        0.0       0.00        3.7       0.00       0.00        0.0
6:36              227        0.0         60       20.8      122.8       20.8       21.8       12.7     1014.9       20.9       20.1        0.0        0.0        0.0       0.00        3.7       0.00       0.00        0.0
6:38              227        0.0         60       20.8      122.8       20.8       21.8       12.8     1014.8       20.9       20.1        0.0        0.0        0.0       0.00        3.7       0.00       0.00        0.0
6:40              227        0.0         60       20.8      122.8       20.8       21.8       12.8     1014.9       20.9       20.1        0.0        0.0        0.0       0.00        3.7       0.00       0.00        0.0
6:42              227        0.0         59       20.8      122.8       20.8       21.8       12.5     1014.8       20.9       20.1        0.0        0.0        0.0       0.00        3.7       0.00       0.00        0.0
6:44              227        0.0         60       20.9      122.8       20.9       21.9       12.8     1014.8       20.9       20.1        0.0        0.0        0.0       0.00        3.7       0.00       0.00        0.0
6:46              220        0.0         59       20.9      122.8       20.9       21.9       12.6     1014.8       20.9       20.1        0.0        0.0        0.0       0.00        3.7       0.00       0.00        0.0
6:48              220        0.0         59       20.9      122.8       20.9       21.9       12.6     1014.9       20.9       20.1        0.0        0.0        0.0       0.00        3.7       0.00       0.00        0.0
6:50              220        0.0         59       21.0      122.8       21.0       21.9       12.7     1014.9       21.0       20.1        0.0        0.0        0.0       0.00        3.7       0.00       0.00        0.0
6:52              220        0.0         59       21.1      122.8       21.1       22.0       12.7     1014.9       21.1       20.1        0.0        0.0        0.0       0.00        3.7       0.00       0.00        0.0
6:53              220        0.0         59       21.2      122.8       21.2       22.1       12.8     1014.9       21.2       20.1        0.0        0.0        0.0       0.00        3.7       0.00       0.00        0.0
6:56              220        0.0         59       21.2      122.8       21.2       22.2       12.9     1015.0       21.2       20.1        0.0        0.0        0.0       0.00        3.7       0.00       0.00        0.0
6:58              220        0.0         58       21.3      122.8       21.3       22.2       12.7     1015.1       21.3       20.1        0.0        0.0        0.0       0.00        3.7       0.00       0.00        0.0
7:00              220        0.0         58       21.4      122.8       21.4       22.3       12.8     1015.1       21.4       20.1        0.0        0.0        0.0       0.00        3.7       0.00       0.00        0.0
7:02              220        0.0         57       21.5      122.8       21.5       22.3       12.6     1015.1       21.5       20.1        0.0        0.0        0.0       0.00        3.7       0.00       0.00        0.0
7:04              220        0.0         57       21.6      122.8       21.6       22.4       12.7     1015.1       21.6       20.1        0.0        0.0        0.0       0.00        3.7       0.00       0.00        0.0
7:06              220        0.0         57       21.6      122.8       21.6       22.4       12.7     1015.0       21.6       20.1        0.0        0.0        0.0       0.00        3.7       0.00       0.00        0.0
7:08              220        0.0         57       21.7      122.8       21.7       22.6       12.8     1015.0       21.7       20.1        0.0        0.0        0.0       0.00        3.7       0.00       0.00        0.0
7:10              220        0.0         57       21.8      122.8       21.8       22.7       12.9     1015.1       21.8       20.1        0.0        0.0        0.0       0.00        3.7       0.00       0.00        0.0
7:12              220        0.0         57       21.9      122.8       21.9       22.7       13.0     1015.0       21.9       20.1        0.0        0.0        0.0       0.00        3.7       0.00       0.00        0.0
7:14              220        0.0         57       21.9      122.8       21.9       22.8       13.0     1015.1       22.0       20.1        0.0        0.0        0.0       0.00        3.7       0.00       0.00        0.0
7:16              220        0.0         57       22.1      122.8       22.1       22.9       13.2     1015.1       22.1       20.1        0.0        0.0        0.0       0.00        3.7       0.00       0.00        0.0
7:18              220        0.0         57       22.2      122.8       22.2       23.0       13.3     1015.2       22.2       20.1        0.0        0.0        0.0       0.00        3.7       0.00       0.00        0.0
7:20              220        8.0         55       22.2      122.8       22.2       22.9       12.8     1015.2       22.2       20.1        0.0        0.0        0.0       0.00        3.7       0.00       0.00        0.0
7:22              220        8.0         55       22.2      122.8       21.6       22.9       12.8     1015.2       22.3       20.1        0.0        0.0        0.0       0.00        4.0       0.00       0.00        0.0
7:24              220        6.4         55       22.3      122.8       22.3       23.0       12.8     1015.1       22.3       20.1        0.0        0.0        0.0       0.00        4.2       0.00       0.00        0.0
7:26              220        6.4         55       22.3      122.8       22.3       23.0       12.8     1015.1       22.3       20.1        0.0        0.0        0.0       0.00        4.3       0.00       0.00        0.0
7:28              220        6.4         55       22.3      122.8       22.3       23.0       12.8     1015.1       22.3       20.1        0.0        0.0        0.0       0.00        4.5       0.00       0.00        0.0
7:30              220        6.4         55       22.3      122.8       22.3       23.0       12.9     1015.1       22.3       20.1        0.0        0.0        0.0       0.00        4.6       0.00       0.00        0.0
7:32              220        4.8         55       22.3      122.8       22.3       23.0       12.9     1015.2       22.3       20.1        0.0        0.0        0.0       0.00        4.7       0.00       0.00        0.0
7:34              220        6.4         55       22.4      122.8       22.4       23.1       12.9     1015.1       22.4       20.1        0.0        0.0        0.0       0.00        4.8       0.00       0.00        0.0
7:36              220        8.0         55       22.5      122.8       22.5       23.2       13.0     1015.2       22.5       20.1        0.0        0.0        0.0       0.00        5.0       0.00       0.00        0.0
7:38              220        6.4         53       22.6      122.8       22.6       23.2       12.5     1015.2       22.6       20.1        0.0        0.0        0.0       0.00        5.2       0.00       0.00        0.0
7:40              220        6.4         53       22.6      122.8       22.6       23.2       12.6     1015.2       22.6       20.1        0.0        0.0        0.0       0.00        5.3       0.00       0.00        0.0
7:42              220        4.8         53       22.7      122.8       22.7       23.3       12.7     1015.2       22.7       20.1        0.0        0.0        0.0       0.00        5.5       0.00       0.00        0.0
7:44              220        6.4         53       22.8      122.8       22.8       23.4       12.8     1015.2       22.8       20.1        0.0        0.0        0.0       0.00        5.6       0.00       0.00        0.0
7:46              220        6.4         52       22.9      122.8       22.9       23.5       12.6     1015.2       22.9       20.1        0.0        0.0        0.0       0.00        5.7       0.00       0.01        0.0
7:48              220        6.4         51       23.1      122.8       23.1       23.6       12.4     1015.2       23.1       20.1        0.0        0.0        0.0       0.00        5.9       0.00       0.01        0.0
7:50              220        4.8         49       23.2      122.8       23.2       23.6       11.9     1015.1       23.2       20.1        0.0        0.0        0.0       0.00        6.0       0.00       0.01        0.0
7:52              220        0.0         49       23.3      122.8       23.3       23.7       12.0     1015.2       23.3       20.1        0.0        0.0        0.0       0.00        6.1       0.00       0.01        0.0
7:54              220        4.8         48       23.4      122.8       23.4       23.8       11.8     1015.2       23.4       20.1        0.0        0.0        0.0       0.00        6.2       0.00       0.01        0.0
7:56              220        6.4         48       23.6      122.8       23.6       24.0       12.0     1015.2       23.6       20.1        0.0        0.0        0.0       0.00        6.3       0.00       0.01        0.0
7:58              220        4.8         48       23.7      122.8       23.7       24.1       12.1     1015.1       23.7       20.1        0.0        0.0        0.0       0.00        6.4       0.00       0.01        0.0
8:00              220        0.0         48       23.9      122.8       23.9       24.2       12.2     1015.1       23.9       20.1        0.0        0.0        0.0       0.00        6.4       0.00       0.01        0.0
8:02              220        0.0         48       24.1      122.8       24.1       24.4       12.4     1015.2       24.1       20.1        0.0        0.0        0.0       0.00        6.4       0.00       0.03        0.0
8:04              220        0.0         47       24.2      122.8       24.2       24.5       12.2     1015.2       24.2       20.1        0.0        0.0        0.0       0.00        6.4       0.00       0.03        0.0
8:06              220        3.2         47       24.3      122.8       24.3       24.6       12.3     1015.2       24.3       20.1        0.0        0.0        0.0       0.00        6.4       0.00       0.03        0.0
8:08              220        4.8         47       24.4      122.8       24.4       24.7       12.4     1015.2       24.4       20.1        0.0        0.0        0.0       0.00        6.5       0.00       0.03        0.0
8:10              220        4.8         46       24.6      122.8       24.6       24.8       12.2     1015.3       24.6       20.1        0.0        0.0        0.0       0.00        6.6       0.00       0.03        0.0
8:12              220        1.6         46       24.6      122.8       24.6       24.9       12.2     1015.3       24.6       20.1        0.0        0.0        0.0       0.00        6.7       0.00       0.03        0.0
8:14              220        1.6         45       24.7      122.8       24.7       24.9       12.0     1015.2       24.7       20.1        0.0        0.0        0.0       0.00        6.8       0.00       0.03        0.0
8:16              220        1.6         43       24.8      122.8       24.8       24.9       11.4     1015.3       24.8       20.1        0.0        0.0        0.0       0.00        6.9       0.00       0.06        0.0
8:18              220        3.2         44       24.9      122.8       24.9       25.1       11.9     1015.2       24.9       20.1        0.0        0.0        0.0       0.00        7.0       0.00       0.06        0.0
8:20              220        4.8         41       25.1      122.8       25.1       25.1       10.9     1015.2       25.1       20.1        0.0        0.0        0.0       0.00        7.1       0.00       0.06        0.0
8:22              220        4.8         41       25.2      122.8       25.2       25.2       11.0     1015.3       25.2       20.1        0.0        0.0        0.0       0.00        7.2       0.00       0.06        0.0
8:24              220        6.4         40       25.3      122.8       25.3       25.2       10.7     1015.2       25.3       20.1        0.0        0.0        0.0       0.00        7.4       0.00       0.06        0.0
8:26              220        3.2         40       25.4      122.8       25.4       25.3       10.8     1015.3       25.4       20.1        0.0        0.0        0.0       0.00        7.5       0.00       0.06        0.0
8:28              220        4.8         40       25.4      122.8       25.4       25.4       10.9     1015.3       25.4       20.1        0.0        0.0        0.0       0.00        7.7       0.00       0.06        0.0
8:30              220        0.0         40       25.6      122.8       25.6       25.5       11.0     1015.2       25.6       20.1        0.0        0.0        0.0       0.00        7.7       0.00       0.06        0.0
8:32              220        0.0         41       25.6      122.8       25.6       25.6       11.4     1015.2       25.6       20.1        0.0        0.0        0.0       0.00        7.7       0.00       0.10        0.0
8:34              220        0.0         41       25.7      122.8       25.7       25.7       11.5     1015.2       25.7       20.1        0.0        0.0        0.0       0.00        7.7       0.00       0.10        0.0
8:36              220        6.4         40       25.8      122.8       25.8       25.7       11.2     1015.2       25.8       20.1        0.0        0.0        0.0       0.00        7.8       0.00       0.10        0.0
8:38              220        6.4         39       25.9      122.8       25.9       25.8       10.9     1015.2       25.9       20.1        0.0        0.0        0.0       0.00        7.9       0.00       0.10        0.0
8:40              220        1.6         39       25.9      122.8       25.9       25.9       10.9     1015.2       25.9       20.1        0.0        0.0        0.0       0.00        8.0       0.00       0.10        0.0
8:42              220        3.2         37       26.0      122.8       26.0       25.8       10.2     1015.2       26.0       20.1        0.0        0.0        0.0       0.00        8.1       0.00       0.10        0.0
8:44              220        3.2         37       26.1      122.8       26.1       25.9       10.2     1015.3       26.1       20.1        0.0        0.0        0.0       0.00        8.2       0.00       0.10        0.0
8:46              220        0.0         38       26.2      122.8       26.2       26.0       10.7     1015.2       26.2       20.1        0.0        0.0        0.0       0.00        8.2       0.00       0.14        0.0
8:48              220        8.0         37       26.3      122.8       26.3       26.1       10.4     1015.3       26.3       20.1        0.0        0.0        0.0       0.00        8.4       0.00       0.14        0.0
8:50              220        3.2         36       26.4      122.8       26.4       26.2       10.1     1015.3       26.4       20.1        0.0        0.0        0.0       0.00        8.5       0.00       0.14        0.0
8:52              220        1.6         35       26.4      122.8       26.4       26.2        9.8     1015.4       26.4       20.1        0.0        0.0        0.0       0.00        8.6       0.00       0.14        0.0
8:54              220        6.4         35       26.5      122.8       26.5       26.2        9.8     1015.4       26.6       20.1        0.0        0.0        0.0       0.00        8.8       0.00       0.14        0.0
8:56              219        4.8         33       26.6      122.8       26.6       26.3        9.0     1015.5       26.6       20.1        0.0        0.0        0.0       0.00        8.9       0.00       0.14        0.0
8:58              219        8.0         34       26.7      122.8       26.4       26.4        9.6     1015.5       26.7       20.1        0.0        0.0        0.0       0.00        9.1       0.00       0.14        0.0
9:00              218        6.4         34       26.9      122.8       26.9       26.5        9.7     1015.5       26.9       20.1        0.0        0.0        0.0       0.00        9.3       0.00       0.14        0.0
9:02              218        8.0         34       27.0      122.8       27.0       26.6        9.8     1015.5       27.0       20.1        0.0        0.0        0.0       0.00        9.5       0.00       0.19        0.0
9:04              217        8.0         34       27.1      122.8       27.1       26.6        9.9     1015.5       27.1       20.1        0.0        0.0        0.0       0.00        9.6       0.00       0.19        0.0
9:06              217        6.4         35       27.1      122.8       27.1       26.7       10.3     1015.5       27.1       20.1        0.0        0.0        0.0       0.00        9.8       0.00       0.19        0.0
9:08              217       11.3         35       27.2      122.8       26.8       26.7       10.4     1015.5       27.2       20.1        0.0        0.0        0.0       0.00       10.0       0.00       0.19        0.0
9:10              218        3.2         36       27.2      122.8       27.2       26.8       10.9     1015.5       27.2       20.1        0.0        0.0        0.0       0.00       10.1       0.00       0.19        0.0
9:12              219        4.8         36       27.2      122.8       27.2       26.8       10.8     1015.5       27.2       20.1        0.0        0.0        0.0       0.00       10.3       0.00       0.19        0.0
9:14              219        3.2         37       27.1      122.8       27.1       26.8       11.2     1015.6       27.2       20.1        0.0        0.0        0.0       0.00       10.4       0.00       0.19        0.0
9:16              219        4.8         37       27.2      122.8       27.2       26.8       11.2     1015.6       27.2       20.1        0.0        0.0        0.0       0.00       10.5       0.00       0.25        0.0
9:18              219        0.0         36       27.2      122.8       27.2       26.8       10.8     1015.5       27.2       20.1        0.0        0.0        0.0       0.00       10.5       0.00       0.25        0.0
9:20              219        0.0         36       27.2      122.8       27.2       26.8       10.8     1015.6       27.2       20.1        0.0        0.0        0.0       0.00       10.5       0.00       0.25        0.0
9:22              219        0.0         36       27.3      122.8       27.3       26.9       10.9     1015.5       27.3       20.1        0.0        0.0        0.0       0.00       10.5       0.00       0.25        0.0
9:24              219        6.4         37       27.4      122.8       27.4       27.0       11.4     1015.5       27.4       20.1        0.0        0.0        0.0       0.00       10.6       0.00       0.25        0.0
9:26              219        0.0         36       27.4      122.8       27.4       27.0       11.1     1015.6       27.4       20.1        0.0        0.0        0.0       0.00       10.7       0.00       0.25        0.0
9:28              219        0.0         37       27.6      122.8       27.6       27.1       11.6     1015.5       27.6       20.1        0.0        0.0        0.0       0.00       10.7       0.00       0.25        0.0
9:30              219        3.2         37       27.7      122.8       27.7       27.2       11.7     1015.6       27.7       20.1        0.0        0.0        0.0       0.00       10.7       0.00       0.25        0.0
9:32              219        6.4         40       27.8      122.8       27.8       27.5       13.0     1015.5       27.8       20.1        0.0        0.0        0.0       0.00       10.9       0.00       0.30        0.0
9:34              219        3.2         42       27.8      122.8       27.8       27.7       13.8     1015.7       27.8       20.1        0.0        0.0        0.0       0.00       11.0       0.00       0.30        0.0
9:36              220        8.0         42       27.8      122.8       27.8       27.7       13.8     1015.5       27.8       20.1        0.0        0.0        0.0       0.00       11.2       0.00       0.30        0.0
9:38              220        4.8         42       27.8      122.8       27.8       27.7       13.8     1015.5       27.8       20.1        0.0        0.0        0.0       0.00       11.4       0.00       0.30        0.0
9:40              220        4.8         42       27.8      122.8       27.8       27.7       13.8     1015.5       27.9       20.1        0.0        0.0        0.0       0.00       11.4       0.00       0.30        0.0
9:42              221        9.7         43       27.8      122.8       27.6       27.7       14.1     1015.6       27.9       20.1        0.0        0.0        0.0       0.00       11.6       0.00       0.30        0.0
9:44              221        0.0         43       27.9      122.8       27.9       27.8       14.2     1015.5       27.9       20.1        0.0        0.0        0.0       0.00       11.7       0.00       0.30        0.0
9:46              221        9.7         43       27.9      122.8       27.9       27.8       14.2     1015.5       27.9       20.1        0.0        0.0        0.0       0.00       11.7       0.00       0.37        0.0
9:48              221        4.8         40       28.0      122.8       28.0       27.7       13.2     1015.5       28.0       20.1        0.0        0.0        0.0       0.00       11.9       0.00       0.37        0.0
9:50              221        4.8         41       28.1      122.8       28.1       27.8       13.6     1015.5       28.1       20.1        0.0        0.0        0.0       0.00       12.0       0.00       0.37        0.0
9:52              221        0.0         42       28.1      122.8       28.1       27.9       14.0     1015.5       28.1       20.1        0.0        0.0        0.0       0.00       12.1       0.00       0.37        0.0
9:54              221        1.6         42       28.2      122.8       28.2       28.0       14.1     1015.5       28.2       20.1        0.0        0.0        0.0       0.00       12.2       0.00       0.37        0.0
9:56              221        4.8         40       28.2      122.8       28.2       27.9       13.4     1015.5       28.2       20.1        0.0        0.0        0.0       0.00       12.3       0.00       0.37        0.0
9:58              223        9.7         40       28.3      122.8       28.0       27.9       13.4     1015.4       28.3       20.1        0.0        0.0        0.0       0.00       12.5       0.00       0.37        0.0
10:00             223        3.2         40       28.3      122.8       28.3       28.0       13.5     1015.4       28.3       20.1        0.0        0.0        0.0       0.00       12.6       0.00       0.37        0.0
10:02             223        8.0         40       28.4      122.8       28.4       28.0       13.5     1015.4       28.4       20.1        0.0        0.0        0.0       0.00       12.7       0.00       0.43        0.0
10:03             223        6.4         41       28.5      122.8       28.5       28.2       14.0     1015.3       28.5       20.1        0.0        0.0        0.0       0.00       12.8       0.00       0.43        0.0
10:06             223        3.2         41       28.6      122.8       28.6       28.3       14.1     1015.4       28.6       20.1        0.0        0.0        0.0       0.00       12.9       0.00       0.43        0.0
10:08             223        3.2         39       28.7      122.8       28.7       28.2       13.4     1015.3       28.7       20.1        0.0        0.0        0.0       0.00       13.0       0.00       0.43        0.0
10:10             224       11.3         39       28.7      122.8       28.3       28.2       13.4     1015.4       28.7       20.1        0.0        0.0        0.0       0.00       13.2       0.00       0.43        0.0
10:12             225        8.0         40       28.8      122.8       28.8       28.4       13.8     1015.3       28.8       20.1        0.0        0.0        0.0       0.00       13.3       0.00       0.43        0.0
10:14             225        6.4         39       28.8      122.8       28.8       28.4       13.5     1015.3       28.8       20.1        0.0        0.0        0.0       0.00       13.5       0.00       0.43        0.0
10:16             225        6.4         39       28.9      122.8       28.9       28.4       13.6     1015.3       28.9       20.1        0.0        0.0        0.0       0.00       13.7       0.00       0.50        0.0
10:18             225        9.7         39       28.9      122.8       28.9       28.5       13.6     1015.3       28.9       20.1        0.0        0.0        0.0       0.00       13.8       0.00       0.50        0.0
10:20             225        3.2         39       29.1      122.8       29.1       28.6       13.7     1015.3       29.1       20.1        0.0        0.0        0.0       0.00       13.9       0.00       0.50        0.0
10:22             225        6.4         39       29.2      122.8       29.2       28.7       13.9     1015.2       29.2       20.1        0.0        0.0        0.0       0.00       14.1       0.00       0.50        0.0
10:24             225        6.4         38       29.3      122.8       29.3       28.8       13.6     1015.2       29.3       20.1        0.0        0.0        0.0       0.00       14.3       0.00       0.50        0.0
10:26             225        9.7         39       29.4      122.8       29.4       28.9       14.0     1015.2       29.4       20.1        0.0        0.0        0.0       0.00       14.5       0.00       0.50        0.0
10:28             225        3.2         39       29.4      122.8       29.4       29.0       14.1     1015.2       29.4       20.1        0.0        0.0        0.0       0.00       14.6       0.00       0.50        0.0
10:30             224        9.7         39       29.6      122.8       29.2       29.1       14.2     1015.2       29.6       20.1        0.0        0.0        0.0       0.00       14.8       0.00       0.50        0.0
10:32             224        6.4         39       29.6      122.8       29.6       29.1       14.2     1015.1       29.6       20.1        0.0        0.0        0.0       0.00       15.0       0.00       0.58        0.0
10:34             224        3.2         39       29.6      122.8       29.6       29.1       14.2     1015.2       29.6       20.1        0.0        0.0        0.0       0.00       15.0       0.00       0.58        0.0
10:36             225        4.8         39       29.7      122.8       29.7       29.3       14.3     1015.1       29.7       20.1        0.0        0.0        0.0       0.00       15.1       0.00       0.58        0.0
10:38             224        3.2         39       29.7      122.8       29.7       29.2       14.3     1015.0       29.7       20.1        0.0        0.0        0.0       0.00       15.2       0.00       0.58        0.0
10:40             225        1.6         39       29.6      122.8       29.6       29.1       14.2     1015.0       29.7       20.1        0.0        0.0        0.0       0.00       15.2       0.00       0.58        0.0
10:42             224        0.0         39       29.6      122.8       29.6       29.1       14.2     1015.0       29.7       20.1        0.0        0.0        0.0       0.00       15.3       0.00       0.58        0.0
10:44             224        0.0         39       29.5      122.8       29.5       29.0       14.1     1014.9       29.7       20.1        0.0        0.0        0.0       0.00       15.3       0.00       0.58        0.0
10:46             224        0.0         40       29.6      122.8       29.6       29.2       14.5     1014.9       29.7       20.1        0.0        0.0        0.0       0.00       15.3       0.00       0.66        0.0
10:47             217        6.4         41       29.7      122.8       29.7       29.4       15.0     1014.9       29.7       20.1        0.0        0.0        0.0       0.00       15.4       0.00       0.66        0.0
10:50             215        6.4         40       29.8      122.8       29.8       29.5       14.8     1014.8       29.8       20.1        0.0        0.0        0.0       0.00       15.5       0.00       0.66        0.0
10:52             214        4.8         40       30.0      122.8       30.0       29.7       14.9     1014.8       30.0       20.1        0.0        0.0        0.0       0.00       15.7       0.00       0.66        0.0
10:54             214        1.6         40       30.1      122.8       30.1       29.8       15.0     1014.7       30.1       20.1        0.0        0.0        0.0       0.00       15.7       0.00       0.66        0.0
10:56             214        3.2         40       30.1      122.8       30.1       29.8       15.0     1014.8       30.1       20.1        0.0        0.0        0.0       0.00       15.7       0.00       0.66        0.0
10:58             213        6.4         40       30.1      122.8       30.1       29.8       15.0     1014.7       30.1       20.1        0.0        0.0        0.0       0.00       15.9       0.00       0.66        0.0
11:00             213        4.8         40       30.2      122.8       30.2       29.9       15.1     1014.8       30.2       20.1        0.0        0.0        0.0       0.00       16.0       0.00       0.66        0.0
11:02             213        1.6         40       30.3      122.8       30.3       30.1       15.2     1014.7       30.3       20.1        0.0        0.0        0.0       0.00       16.0       0.00       0.75        0.0
11:04             213        3.2         40       30.4      122.8       30.4       30.2       15.3     1014.7       30.4       20.1        0.0        0.0        0.0       0.00       16.1       0.00       0.75        0.0
11:05             213        0.0         40       30.6      122.8       30.6       30.4       15.4     1014.7       30.6       20.1        0.0        0.0        0.0       0.00       16.1       0.00       0.75        0.0
11:08             213        0.0         41       30.7      122.8       30.7       30.6       15.9     1014.6       30.7       20.1        0.0        0.0        0.0       0.00       16.2       0.00       0.75        0.0
11:10             213        3.2         40       30.7      122.8       30.7       30.6       15.6     1014.6       30.7       20.1        0.0        0.0        0.0       0.00       16.2       0.00       0.75        0.0
11:12             213        4.8         40       30.8      122.8       30.8       30.6       15.6     1014.7       30.8       20.1        0.0        0.0        0.0       0.00       16.3       0.00       0.75        0.0
11:14             213        6.4         41       30.9      122.8       30.9       30.9       16.1     1014.6       30.9       20.1        0.0        0.0        0.0       0.00       16.5       0.00       0.75        0.0
11:16             213        6.4         41       31.0      122.8       31.0       31.1       16.2     1014.5       31.0       20.1        0.0        0.0        0.0       0.00       16.6       0.00       0.84        0.0
11:17             212        6.4         41       31.1      122.8       31.1       31.2       16.3     1014.5       31.1       20.1        0.0        0.0        0.0       0.00       16.7       0.00       0.84        0.0
11:20             212        0.0         42       31.2      122.8       31.2       31.4       16.7     1014.5       31.2       20.1        0.0        0.0        0.0       0.00       16.8       0.00       0.84        0.0
11:22             212        0.0         41       31.2      122.8       31.2       31.4       16.4     1014.4       31.2       20.1        0.0        0.0        0.0       0.00       16.8       0.00       0.84        0.0
11:24             212        1.6         41       31.3      122.8       31.3       31.5       16.5     1014.4       31.3       20.1        0.0        0.0        0.0       0.00       16.8       0.00       0.84        0.0
11:26             212        0.0         41       31.3      122.8       31.3       31.5       16.5     1014.4       31.4       20.1        0.0        0.0        0.0       0.00       16.8       0.00       0.84        0.0
11:28             212        6.4         41       31.4      122.8       31.4       31.6       16.6     1014.4       31.4       20.1        0.0        0.0        0.0       0.00       17.0       0.00       0.84        0.0
11:30             211        4.8         40       31.3      122.8       31.3       31.4       16.1     1014.3       31.4       20.1        0.0        0.0        0.0       0.00       17.1       0.00       0.84        0.0
11:32             182       11.3         40       31.4      122.8       31.2       31.4       16.2     1014.2       31.4       20.1        0.0        0.0        0.0       0.00       17.3       0.00       0.94        0.0
11:34             182        3.2         40       31.5      122.8       31.5       31.6       16.3     1014.3       31.5       20.1        0.0        0.0        0.0       0.00       17.5       0.00       0.94        0.0
11:36             180        6.4         40       31.6      122.8       31.6       31.7       16.4     1014.3       31.6       20.1        0.0        0.0        0.0       0.00       17.6       0.00       0.94        0.0
11:37             179        8.0         39       31.7      122.8       31.7       31.7       16.1     1014.2       31.7       20.1        0.0        0.0        0.0       0.00       17.8       0.00       0.94        0.0
11:40             179        1.6         39       31.8      122.8       31.8       31.9       16.2     1014.1       31.8       20.1        0.0        0.0        0.0       0.00       17.9       0.00       0.94        0.0
11:42             179        0.0         39       32.0      122.8       32.0       32.1       16.3     1014.1       32.0       20.1        0.0        0.0        0.0       0.00       17.9       0.00       0.94        0.0
11:44             179        0.0         39       32.1      122.8       32.1       32.2       16.4     1014.0       32.1       20.1        0.0        0.0        0.0       0.00       17.9       0.00       0.94        0.0
11:46             179        0.0         39       32.1      122.8       32.1       32.2       16.4     1014.0       32.1       20.1        0.0        0.0        0.0       0.00       17.9       0.00       1.04        0.0
11:48             179        0.0         39       32.1      122.8       32.1       32.3       16.4     1014.0       32.1       20.1        0.0        0.0        0.0       0.00       17.9       0.00       1.04        0.0
11:50             179        0.0         39       32.1      122.8       32.1       32.3       16.4     1014.0       32.1       20.1        0.0        0.0        0.0       0.00       17.9       0.00       1.04        0.0
11:52             179        0.0         39       32.1      122.8       32.1       32.3       16.4     1014.0       32.1       20.1        0.0        0.0        0.0       0.00       17.9       0.00       1.04        0.0
11:53             179        0.0         39       32.1      122.8       32.1       32.2       16.4     1014.0       32.1       20.1        0.0        0.0        0.0       0.00       17.9       0.00       1.04        0.0
11:56             179        3.2         39       32.0      122.8       32.0       32.1       16.3     1014.0       32.1       20.1        0.0        0.0        0.0       0.00       17.9       0.00       1.04        0.0
11:58             179        3.2         39       31.9      122.8       31.9       31.9       16.2     1014.0       32.1       20.1        0.0        0.0        0.0       0.00       18.1       0.00       1.04        0.0
12:00             179        3.2         39       31.7      122.8       31.7       31.7       16.1     1014.0       32.1       20.1        0.0        0.0        0.0       0.00       18.2       0.00       1.04        0.0
12:02             179        4.8         40       31.7      122.8       31.7       31.8       16.4     1014.0       32.1       20.1        0.0        0.0        0.0       0.00       18.3       0.00       1.14        0.0
12:04             179        3.2         40       31.6      122.8       31.6       31.7       16.4     1014.0       32.1       20.1        0.0        0.0        0.0       0.00       18.4       0.00       1.14        0.0
12:06             179        4.8         40       31.7      122.8       31.7       31.8       16.4     1014.0       32.1       20.1        0.0        0.0        0.0       0.00       18.5       0.00       1.14        0.0
12:08             179        4.8         40       31.7      122.8       31.7       31.8       16.4     1014.0       32.1       20.1        0.0        0.0        0.0       0.00       18.6       0.00       1.14        0.0
12:10             179        6.4         40       31.7      122.8       31.7       31.8       16.4     1014.0       32.1       20.1        0.0        0.0        0.0       0.00       18.6       0.00       1.14        0.0
12:12             179        4.8         40       31.6      122.8       31.6       31.7       16.4     1014.0       32.1       20.1        0.0        0.0        0.0       0.00       18.7       0.00       1.14        0.0
12:14             179        0.0         40       31.6      122.8       31.6       31.7       16.3     1014.0       32.1       20.1        0.0        0.0        0.0       0.00       18.8       0.00       1.14        0.0
12:15             179        6.4         40       31.6      122.8       31.6       31.7       16.3     1014.0       32.1       20.1        0.0        0.0        0.0       0.00       18.9       0.00       1.24        0.0
12:18             180        6.4         40       31.7      122.8       31.7       31.8       16.4     1014.0       32.1       20.1        0.0        0.0        0.0       0.00       19.0       0.00       1.24        0.0
12:20             180        6.4         40       31.7      122.8       31.7       31.9       16.5     1014.0       32.1       20.1        0.0        0.0        0.0       0.00       19.2       0.00       1.24        0.0
12:22             180        3.2         40       31.8      122.8       31.8       32.0       16.5     1014.0       32.1       20.1        0.0        0.0        0.0       0.00       19.3       0.00       1.24        0.0
12:24             180        3.2         40       31.8      122.8       31.8       32.0       16.6     1014.0       32.1       20.1        0.0        0.0        0.0       0.00       19.3       0.00       1.24        0.0
12:26             180        1.6         40       31.8      122.8       31.8       32.0       16.5     1014.0       32.1       20.1        0.0        0.0        0.0       0.00       19.4       0.00       1.24        0.0
12:28             180        1.6         39       31.8      122.8       31.8       31.9       16.2     1014.0       32.1       20.1        0.0        0.0        0.0       0.00       19.4       0.00       1.24        0.0
12:30             180        0.0         40       31.9      122.8       31.9       32.1       16.6     1014.0       32.1       20.1        0.0        0.0        0.0       0.00       19.4       0.00       1.24        0.0
12:32             180        0.0         40       31.9      122.8       31.9       32.2       16.7     1014.0       32.1       20.1        0.0        0.0        0.0       0.00       19.4       0.00       1.35        0.0
12:33             178        6.4         39       32.1      122.8       32.1       32.3       16.4     1013.9       32.1       20.1        0.0        0.0        0.0       0.00       19.5       0.00       1.35        0.0
12:36             178        0.0         39       32.3      122.8       32.3       32.6       16.6     1013.9       32.3       20.1        0.0        0.0        0.0       0.00       19.6       0.00       1.35        0.0
12:38             178        1.6         38       32.5      122.8       32.5       32.6       16.4     1013.9       32.5       20.1        0.0        0.0        0.0       0.00       19.7       0.00       1.35        0.0
12:40             178        3.2         39       32.6      122.8       32.6       33.0       16.9     1013.8       32.6       20.1        0.0        0.0        0.0       0.00       19.7       0.00       1.35        0.0
12:42             178        0.0         38       32.6      122.8       32.6       32.8       16.5     1013.8       32.6       20.1        0.0        0.0        0.0       0.00       19.7       0.00       1.35        0.0
12:44             178        3.2         39       32.6      122.8       32.6       32.9       16.8     1013.8       32.6       20.1        0.0        0.0        0.0       0.00       19.8       0.00       1.35        0.0
12:46             177        8.0         39       32.7      122.8       32.6       33.1       16.9     1013.8       32.7       20.1        0.0        0.0        0.0       0.00       20.0       0.00       1.46        0.0
12:48             176        4.8         38       32.8      122.8       32.8       33.0       16.6     1013.8       32.8       20.1        0.0        0.0        0.0       0.00       20.1       0.00       1.46        0.0
12:50             175        6.4         38       32.9      122.8       32.9       33.2       16.7     1013.8       32.9       20.1        0.0        0.0        0.0       0.00       20.2       0.00       1.46        0.0
12:52             175        1.6         37       33.0      122.8       33.0       33.2       16.4     1013.7       33.0       20.1        0.0        0.0        0.0       0.00       20.3       0.00       1.46        0.0
12:54             173       11.3         37       33.1      122.8       33.1       33.3       16.5     1013.7       33.1       20.1        0.0        0.0        0.0       0.00       20.5       0.00       1.46        0.0
12:56             155       12.9         37       33.2      122.8       33.2       33.4       16.5     1013.7       33.2       20.1        0.0        0.0        0.0       0.00       20.7       0.00       1.46        0.0
12:58             152        8.0         37       33.3      122.8       33.3       33.6       16.6     1013.6       33.3       20.1        0.0        0.0        0.0       0.00       20.9       0.00       1.46        0.0
13:00             153        8.0         36       33.3      122.8       33.3       33.5       16.2     1013.6       33.3       20.1        0.0        0.0        0.0       0.00       21.1       0.00       1.46        0.0
13:02             153        0.0         36       33.3      122.8       33.3       33.5       16.2     1013.6       33.3       20.1        0.0        0.0        0.0       0.00       21.1       0.00       1.57        0.0
13:03             153        4.8         36       33.4      122.8       33.4       33.5       16.3     1013.6       33.4       20.1        0.0        0.0        0.0       0.00       21.1       0.00       1.57        0.0
13:06             153        1.6         36       33.4      122.8       33.4       33.5       16.3     1013.6       33.4       20.1        0.0        0.0        0.0       0.00       21.1       0.00       1.57        0.0
13:08             153        8.0         36       33.4      122.8       33.4       33.5       16.3     1013.6       33.4       20.1        0.0        0.0        0.0       0.00       21.2       0.00       1.57        0.0
13:10             151        6.4         36       33.4      122.8       33.4       33.6       16.3     1013.5       33.4       20.1        0.0        0.0        0.0       0.00       21.3       0.00       1.57        0.0
13:12             150        4.8         36       33.6      122.8       33.6       33.9       16.5     1013.5       33.6       20.1        0.0        0.0        0.0       0.00       21.4       0.00       1.57        0.0
13:14             150        0.0         36       33.8      122.8       33.8       34.1       16.6     1013.6       33.8       20.1        0.0        0.0        0.0       0.00       21.5       0.00       1.57        0.0
13:16             150        0.0         36       33.9      122.8       33.9       34.4       16.8     1013.6       33.9       20.1        0.0        0.0        0.0       0.00       21.5       0.00       1.70        0.0
13:18             152       12.9         35       34.1      122.8       34.1       34.4       16.5     1013.6       34.1       20.1        0.0        0.0        0.0       0.00       21.6       0.00       1.70        0.0
13:20             152        0.0         35       34.0      122.8       34.0       34.3       16.4     1013.6       34.1       20.1        0.0        0.0        0.0       0.00       21.7       0.00       1.70        0.0
13:22             156        9.7         35       33.9      122.8       33.9       34.2       16.3     1013.7       34.1       20.1        0.0        0.0        0.0       0.00       21.9       0.00       1.70        0.0
13:23             156        8.0         35       33.8      122.8       33.8       33.9       16.2     1013.7       34.1       20.1        0.0        0.0        0.0       0.00       22.0       0.00       1.70        0.0
13:26             157        1.6         35       33.7      122.8       33.7       33.8       16.1     1013.6       34.1       20.1        0.0        0.0        0.0       0.00       22.1       0.00       1.70        0.0
13:28             157        3.2         35       33.6      122.8       33.6       33.7       16.1     1013.7       34.1       20.1        0.0        0.0        0.0       0.00       22.2       0.00       1.70        0.0
13:30             157        1.6         35       33.6      122.8       33.6       33.7       16.1     1013.6       34.1       20.1        0.0        0.0        0.0       0.00       22.2       0.00       1.70        0.0
13:32             157        1.6         36       33.6      122.8       33.6       33.9       16.5     1013.5       34.1       20.1        0.0        0.0        0.0       0.00       22.2       0.00       1.82        0.0
13:34             157        8.0         35       33.7      122.8       33.7       33.8       16.1     1013.5       34.1       20.1        0.0        0.0        0.0       0.00       22.3       0.00       1.82        0.0
13:36             157        3.2         35       33.9      122.8       33.9       34.1       16.3     1013.4       34.1       20.1        0.0        0.0        0.0       0.00       22.4       0.00       1.82        0.0
13:38             157        3.2         35       34.1      122.8       34.1       34.3       16.4     1013.4       34.1       20.1        0.0        0.0        0.0       0.00       22.5       0.00       1.82        0.0
13:40             157        0.0         35       34.3      122.8       34.3       34.7       16.6     1013.4       34.3       20.1        0.0        0.0        0.0       0.00       22.5       0.00       1.82        0.0
13:42             157        0.0         35       34.4      122.8       34.4       34.9       16.7     1013.4       34.4       20.1        0.0        0.0        0.0       0.00       22.5       0.00       1.82        0.0
13:44             157        3.2         35       34.5      122.8       34.5       35.0       16.8     1013.4       34.5       20.1        0.0        0.0        0.0       0.00       22.5       0.00       1.82        0.0
13:46             157        0.0         34       34.7      122.8       34.7       35.1       16.6     1013.3       34.7       20.1        0.0        0.0        0.0       0.00       22.5       0.00       1.95        0.0
13:48             157        4.8         34       34.9      122.8       34.9       35.4       16.7     1013.3       34.9       20.1        0.0        0.0        0.0       0.00       22.6       0.00       1.95        0.0
13:49             159       12.9         33       35.1      122.8       35.1       35.5       16.4     1013.3       35.1       20.1        0.0        0.0        0.0       0.00       22.8       0.00       1.95        0.0
13:52             169       14.5         32       35.2      122.8       35.2       35.4       16.0     1013.3       35.2       20.1        0.0        0.0        0.0       0.00       23.1       0.00       1.95        0.0
13:54             215        3.2         32       35.0      122.8       35.0       35.1       15.9     1013.3       35.2       20.1        0.0        0.0        0.0       0.00       23.3       0.00       1.95        0.0
13:55             215        6.4         32       34.8      122.8       34.8       34.8       15.7     1013.3       35.2       20.1        0.0        0.0        0.0       0.00       23.4       0.00       1.95        0.0
13:58             214        6.4         33       34.6      122.8       34.6       34.7       16.0     1013.3       35.2       20.1        0.0        0.0        0.0       0.00       23.6       0.00       1.95        0.0
14:00             214        9.7         34       34.6      122.8       34.6       35.0       16.5     1013.3       35.2       20.1        0.0        0.0        0.0       0.00       23.7       0.00       1.95        0.0
14:01             214        3.2         33       34.6      122.8       34.6       34.7       16.0     1013.3       35.2       20.1        0.0        0.0        0.0       0.00       23.9       0.00       2.08        0.0
14:04             214        8.0         34       34.6      122.8       34.6       35.0       16.5     1013.3       35.2       20.1        0.0        0.0        0.0       0.00       23.9       0.00       2.08        0.0
14:06             213        6.4         34       34.7      122.8       34.7       35.1       16.6     1013.2       35.2       20.1        0.0        0.0        0.0       0.00       24.1       0.00       2.08        0.0
14:08             211        3.2         34       34.8      122.8       34.8       35.3       16.7     1013.2       35.2       20.1        0.0        0.0        0.0       0.00       24.3       0.00       2.08        0.0
14:10             211        0.0         34       35.0      122.8       35.0       35.6       16.8     1013.0       35.2       20.1        0.0        0.0        0.0       0.00       24.3       0.00       2.08        0.0
14:12             212        8.0         34       35.1      122.8       35.1       35.8       16.9     1013.0       35.2       20.1        0.0        0.0        0.0       0.00       24.4       0.00       2.08        0.0
14:13             213        8.0         34       35.2      122.8       35.2       35.8       17.0     1012.8       35.2       20.1        0.0        0.0        0.0       0.00       24.6       0.00       2.08        0.0
14:16             229        8.0         32       35.0      122.8       35.0       35.1       15.9     1012.9       35.2       20.1        0.0        0.0        0.0       0.00       24.9       0.00       2.22        0.0
14:18             229        8.0         33       34.8      122.8       34.8       35.1       16.2     1012.8       35.2       20.1        0.0        0.0        0.0       0.00       25.0       0.00       2.22        0.0
14:20             229        3.2         33       34.7      122.8       34.7       34.9       16.1     1012.8       35.2       20.1        0.0        0.0        0.0       0.00       25.1       0.00       2.22        0.0
14:22             229        4.8         33       34.6      122.8       34.6       34.7       16.0     1012.8       35.2       20.1        0.0        0.0        0.0       0.00       25.2       0.00       2.22        0.0
14:24             229        6.4         33       34.6      122.8       34.6       34.7       16.0     1012.7       35.2       20.1        0.0        0.0        0.0       0.00       25.3       0.00       2.22        0.0
14:25             229        0.0         33       34.6      122.8       34.6       34.7       16.0     1012.8       35.2       20.1        0.0        0.0        0.0       0.00       25.3       0.00       2.22        0.0
14:28             229        0.0         33       34.7      122.8       34.7       34.8       16.1     1012.7       35.2       20.1        0.0        0.0        0.0       0.00       25.3       0.00       2.22        0.0
14:30             229        0.0         33       34.8      122.8       34.8       35.0       16.1     1012.7       35.2       20.1        0.0        0.0        0.0       0.00       25.3       0.00       2.22        0.0
14:32             229        0.0         33       34.9      122.8       34.9       35.3       16.3     1012.7       35.2       20.1        0.0        0.0        0.0       0.00       25.3       0.00       2.35        0.0
14:34             229        0.0         33       35.1      122.8       35.1       35.4       16.4     1012.6       35.2       20.1        0.0        0.0        0.0       0.00       25.3       0.00       2.35        0.0
14:36             220        8.0         32       35.2      122.8       35.2       35.4       16.1     1012.6       35.2       20.1        0.0        0.0        0.0       0.00       25.4       0.00       2.35        0.0
14:38             182       16.1         33       35.4      122.8       35.4       36.0       16.7     1012.6       35.4       20.1        0.0        0.0        0.0       0.00       25.8       0.00       2.35        0.0
14:40             175       11.3         33       35.6      122.8       35.6       36.3       16.9     1012.6       35.6       20.1        0.0        0.0        0.0       0.00       26.1       0.00       2.35        0.0
14:42             178        6.4         33       35.7      122.8       35.7       36.5       17.0     1012.6       35.7       20.1        0.0        0.0        0.0       0.00       26.4       0.00       2.35        0.0
14:44             175        6.4         33       35.8      122.8       35.8       36.6       17.0     1012.6       35.8       20.1        0.0        0.0        0.0       0.00       26.7       0.00       2.35        0.0
14:45             174        8.0         33       35.9      122.8       35.9       36.8       17.1     1012.5       35.9       20.1        0.0        0.0        0.0       0.00       26.8       0.00       2.50        0.0
14:48             177       11.3         32       35.9      122.8       35.9       36.6       16.7     1012.6       35.9       20.1        0.0        0.0        0.0       0.00       27.1       0.00       2.50        0.0
14:50             178        6.4         32       36.0      122.8       36.0       36.7       16.7     1012.5       36.0       20.1        0.0        0.0        0.0       0.00       27.3       0.00       2.50        0.0
14:52             181        4.8         32       36.0      122.8       36.0       36.7       16.7     1012.5       36.1       20.1        0.0        0.0        0.0       0.00       27.5       0.00       2.50        0.0
14:54             181        3.2         32       35.9      122.8       35.9       36.5       16.6     1012.5       36.1       20.1        0.0        0.0        0.0       0.00       27.6       0.00       2.50        0.0
14:56             181        3.2         32       35.8      122.8       35.8       36.4       16.6     1012.4       36.1       20.1        0.0        0.0        0.0       0.00       27.6       0.00       2.50        0.0
14:58             181        6.4         32       35.9      122.8       35.9       36.5       16.6     1012.4       36.1       20.1        0.0        0.0        0.0       0.00       27.7       0.00       2.50        0.0
15:00             181        1.6         32       35.9      122.8       35.9       36.6       16.7     1012.4       36.1       20.1        0.0        0.0        0.0       0.00       27.8       0.00       2.50        0.0
15:02             181        4.8         31       36.1      122.8       36.1       36.5       16.3     1012.4       36.1       20.1        0.0        0.0        0.0       0.00       27.8       0.00       2.64        0.0
15:04             181        4.8         32       36.1      122.8       36.1       36.9       16.8     1012.4       36.1       20.1        0.0        0.0        0.0       0.00       27.9       0.00       2.64        0.0
15:06             181        1.6         31       36.1      122.8       36.1       36.6       16.3     1012.4       36.1       20.1        0.0        0.0        0.0       0.00       28.0       0.00       2.64        0.0
15:08             182        1.6         32       36.2      122.8       36.2       36.9       16.9     1012.4       36.2       20.1        0.0        0.0        0.0       0.00       28.0       0.00       2.64        0.0
15:10             181        1.6         32       36.2      122.8       36.2       36.9       16.9     1012.3       36.2       20.1        0.0        0.0        0.0       0.00       28.0       0.00       2.64        0.0
15:12             182        6.4         31       36.1      122.8       36.1       36.6       16.3     1012.3       36.2       20.1        0.0        0.0        0.0       0.00       28.2       0.00       2.64        0.0
15:14             182        3.2         31       36.1      122.8       36.1       36.6       16.3     1012.3       36.2       20.1        0.0        0.0        0.0       0.00       28.2       0.00       2.64        0.0
15:16             184        4.8         31       36.1      122.8       36.1       36.5       16.3     1012.3       36.2       20.1        0.0        0.0        0.0       0.00       28.4       0.00       2.79        0.0
15:17             186       11.3         31       36.1      122.8       36.1       36.5       16.3     1012.1       36.2       20.1        0.0        0.0        0.0       0.00       28.5       0.00       2.79        0.0
15:20             238       12.9         31       36.1      122.8       36.1       36.5       16.3     1012.2       36.2       20.1        0.0        0.0        0.0       0.00       28.8       0.00       2.79        0.0
15:22             216        9.7         31       36.0      122.8       36.0       36.4       16.2     1012.2       36.2       20.1        0.0        0.0        0.0       0.00       29.2       0.00       2.79        0.0
15:23             186        9.7         31       36.0      122.8       36.0       36.4       16.2     1012.2       36.2       20.1        0.0        0.0        0.0       0.00       29.5       0.00       2.79        0.0
15:26             186       12.9         31       36.0      122.8       36.0       36.4       16.2     1012.1       36.2       20.1        0.0        0.0        0.0       0.00       29.8       0.00       2.79        0.0
15:28             186        9.7         31       36.1      122.8       36.1       36.6       16.3     1012.2       36.2       20.1        0.0        0.0        0.0       0.00       30.0       0.00       2.79        0.0
15:30             186        9.7         30       36.1      122.8       36.1       36.3       15.8     1012.1       36.2       20.1        0.0        0.0        0.0       0.00       30.3       0.00       2.79        0.0
15:32             196        9.7         31       36.1      122.8       36.1       36.6       16.3     1012.1       36.2       20.1        0.0        0.0        0.0       0.00       30.5       0.00       2.93        0.0
15:34             197        9.7         31       36.0      122.8       36.0       36.4       16.2     1012.0       36.2       20.1        0.0        0.0        0.0       0.00       30.7       0.00       2.93        0.0
15:36             201        6.4         31       35.9      122.8       35.9       36.3       16.2     1012.1       36.2       20.1        0.0        0.0        0.0       0.00       30.9       0.00       2.93        0.0
15:38             201        3.2         31       35.9      122.8       35.9       36.2       16.1     1012.0       36.2       20.1        0.0        0.0        0.0       0.00       31.1       0.00       2.93        0.0
15:40             187       16.1         31       35.9      122.8       35.9       36.2       16.1     1012.0       36.2       20.1        0.0        0.0        0.0       0.00       31.4       0.00       2.93        0.0
15:42             182        6.4         31       36.0      122.8       36.0       36.4       16.2     1012.0       36.2       20.1        0.0        0.0        0.0       0.00       31.6       0.00       2.93        0.0
15:44             184       16.1         30       36.1      122.8       36.1       36.3       15.8     1012.0       36.2       20.1        0.0        0.0        0.0       0.00       31.9       0.00       2.93        0.0
15:46             182       17.7         31       36.2      122.8       36.2       36.7       16.4     1012.0       36.2       20.1        0.0        0.0        0.0       0.00       32.2       0.00       3.08        0.0
15:48             185        9.7         31       36.2      122.8       36.2       36.8       16.4     1011.9       36.2       20.1        0.0        0.0        0.0       0.00       32.4       0.00       3.08        0.0
15:50             192        4.8         31       36.2      122.8       36.2       36.7       16.4     1011.9       36.2       20.1        0.0        0.0        0.0       0.00       32.7       0.00       3.08        0.0
15:52             192        6.4         31       36.1      122.8       36.1       36.6       16.3     1012.0       36.2       20.1        0.0        0.0        0.0       0.00       32.9       0.00       3.08        0.0
15:54             192        0.0         31       36.1      122.8       36.1       36.5       16.3     1011.9       36.2       20.1        0.0        0.0        0.0       0.00       33.0       0.00       3.08        0.0
15:56             193        4.8         31       36.1      122.8       36.1       36.6       16.3     1011.8       36.2       20.1        0.0        0.0        0.0       0.00       33.1       0.00       3.08        0.0
15:58             191       12.9         31       36.2      122.8       36.2       36.7       16.4     1011.9       36.2       20.1        0.0        0.0        0.0       0.00       33.3       0.00       3.08        0.0
16:00             188       12.9         31       36.2      122.8       36.2       36.8       16.4     1011.8       36.2       20.1        0.0        0.0        0.0       0.00       33.7       0.00       3.08        0.0
16:02             188        1.6         30       36.3      122.8       36.3       36.6       16.0     1011.9       36.3       20.1        0.0        0.0        0.0       0.00       33.8       0.00       3.23        0.0
16:04             188        3.2         30       36.4      122.8       36.4       36.8       16.0     1011.7       36.4       20.1        0.0        0.0        0.0       0.00       33.9       0.00       3.23        0.0
16:06             188        9.7         31       36.5      122.8       36.5       37.2       16.7     1011.8       36.5       20.1        0.0        0.0        0.0       0.00       34.1       0.00       3.23        0.0
16:07             186       14.5         30       36.6      122.8       36.6       37.1       16.2     1011.8       36.6       20.1        0.0        0.0        0.0       0.00       34.4       0.00       3.23        0.0
16:10             187        4.8         30       36.7      122.8       36.7       37.2       16.3     1011.8       36.7       20.1        0.0        0.0        0.0       0.00       34.5       0.00       3.23        0.0
16:12             187        3.2         30       36.7      122.8       36.7       37.3       16.3     1011.8       36.7       20.1        0.0        0.0        0.0       0.00       34.7       0.00       3.23        0.0
16:13             187        4.8         30       36.8      122.8       36.8       37.4       16.4     1011.8       36.8       20.1        0.0        0.0        0.0       0.00       34.7       0.00       3.23        0.0
16:16             187        8.0         30       36.9      122.8       36.9       37.6       16.5     1011.7       36.9       20.1        0.0        0.0        0.0       0.00       34.9       0.00       3.38        0.0
16:18             186        1.6         29       36.9      122.8       36.9       37.4       16.0     1011.7       36.9       20.1        0.0        0.0        0.0       0.00       35.1       0.00       3.38        0.0
16:19             188        8.0         29       37.1      122.8       37.1       37.6       16.1     1011.8       37.1       20.1        0.0        0.0        0.0       0.00       35.2       0.00       3.38        0.0
16:22             194        8.0         29       37.0      122.8       37.0       37.5       16.0     1011.7       37.1       20.1        0.0        0.0        0.0       0.00       35.5       0.00       3.38        0.0
16:24             194        9.7         29       36.9      122.8       36.9       37.3       15.9     1011.7       37.1       20.1        0.0        0.0        0.0       0.00       35.7       0.00       3.38        0.0
16:26             193       11.3         29       36.8      122.8       36.8       37.2       15.9     1011.6       37.1       20.1        0.0        0.0        0.0       0.00       35.9       0.00       3.38        0.0
16:28             192       14.5         30       36.8      122.8       36.8       37.5       16.4     1011.7       37.1       20.1        0.0        0.0        0.0       0.00       36.3       0.00       3.38        0.0
16:30             192       11.3         29       36.7      122.8       36.7       37.0       15.8     1011.7       37.1       20.1        0.0        0.0        0.0       0.00       36.6       0.00       3.38        0.0
16:32             192        6.4         29       36.7      122.8       36.7       36.9       15.8     1011.6       37.1       20.1        0.0        0.0        0.0       0.00       36.8       0.00       3.54        0.0
16:34             192        4.8         29       36.5      122.8       36.5       36.7       15.6     1011.7       37.1       20.1        0.0        0.0        0.0       0.00       36.9       0.00       3.54        0.0
16:36             192        0.0         29       36.5      122.8       36.5       36.7       15.6     1011.5       37.1       20.1        0.0        0.0        0.0       0.00       36.9       0.00       3.54        0.0
16:38             186       17.7         30       36.6      122.8       36.6       37.0       16.2     1011.6       37.1       20.1        0.0        0.0        0.0       0.00       37.2       0.00       3.54        0.0
16:40             178       16.1         29       36.7      122.8       36.7       36.9       15.8     1011.7       37.1       20.1        0.0        0.0        0.0       0.00       37.5       0.00       3.54        0.0
16:42             178       16.1         29       36.7      122.8       36.7       37.0       15.8     1011.5       37.1       20.1        0.0        0.0        0.0       0.00       37.9       0.00       3.54        0.0
16:44             187       11.3         29       36.8      122.8       36.8       37.1       15.8     1011.6       37.1       20.1        0.0        0.0        0.0       0.00       38.2       0.00       3.54        0.0
16:46             193       12.9         29       36.7      122.8       36.7       36.9       15.8     1011.6       37.1       20.1        0.0        0.0        0.0       0.00       38.5       0.00       3.69        0.0
16:48             194       12.9         29       36.6      122.8       36.6       36.8       15.7     1011.6       37.1       20.1        0.0        0.0        0.0       0.00       38.8       0.00       3.69        0.0
16:49             196        8.0         30       36.4      122.8       36.4       36.8       16.0     1011.6       37.1       20.1        0.0        0.0        0.0       0.00       39.1       0.00       3.69        0.0
16:51             198        4.8         30       36.2      122.8       36.2       36.4       15.9     1011.7       37.1       20.1        0.0        0.0        0.0       0.00       39.3       0.00       3.69        0.0
16:54             199       12.9         30       36.1      122.8       36.1       36.3       15.8     1011.6       37.1       20.1        0.0        0.0        0.0       0.00       39.5       0.00       3.69        0.0
16:56             196       12.9         30       36.1      122.8       36.1       36.2       15.8     1011.6       37.1       20.1        0.0        0.0        0.0       0.00       39.9       0.00       3.69        0.0
16:57             194       12.9         30       36.1      122.8       36.1       36.2       15.8     1011.7       37.1       20.1        0.0        0.0        0.0       0.00       40.2       0.00       3.69        0.0
17:00             191       12.9         30       36.0      122.8       36.0       36.2       15.7     1011.6       37.1       20.1        0.0        0.0        0.0       0.00       40.5       0.00       3.69        0.0
17:02             190       11.3         30       36.0      122.8       36.0       36.2       15.7     1011.6       37.1       20.1        0.0        0.0        0.0       0.00       40.7       0.00       3.84        0.0
17:04             185       14.5         30       36.1      122.8       36.1       36.2       15.8     1011.6       37.1       20.1        0.0        0.0        0.0       0.00       41.0       0.00       3.84        0.0
17:06             190       16.1         30       36.1      122.8       36.1       36.2       15.8     1011.6       37.1       20.1        0.0        0.0        0.0       0.00       41.3       0.00       3.84        0.0
17:08             185       14.5         33       36.1      122.8       36.1       37.0       17.3     1011.7       37.1       20.1        0.0        0.0        0.0       0.00       41.8       0.00       3.84        0.0
17:10             190       11.3         35       35.9      122.8       35.9       37.3       18.0     1011.7       37.1       20.1        0.0        0.0        0.0       0.00       42.1       0.00       3.84        0.0
17:12             200       12.9         36       35.7      122.8       35.7       37.2       18.3     1011.6       37.1       20.1        0.0        0.0        0.0       0.00       42.5       0.00       3.84        0.0
17:14             198       11.3         37       35.5      122.8       35.5       37.2       18.6     1011.7       37.1       20.1        0.0        0.0        0.0       0.00       42.8       0.00       3.84        0.0
17:16             207       27.4         37       35.2      122.8       35.2       36.7       18.3     1011.7       37.1       20.1        0.0        0.0        0.0       0.00       43.3       0.00       3.98        0.0
17:18             210       17.7         38       34.9      122.8       34.9       36.5       18.5     1011.7       37.1       20.1        0.0        0.0        0.0       0.00       43.8       0.00       3.98        0.0
17:20             202       27.4         39       34.7      122.8       34.7       36.4       18.7     1011.7       37.1       20.1        0.0        0.0        0.0       0.00       44.2       0.00       3.98        0.0
17:22             212       12.9         39       34.5      122.8       34.5       36.0       18.5     1011.7       37.1       20.1        0.0        0.0        0.0       0.00       44.7       0.00       3.98        0.0
17:23             219       16.1         40       34.3      122.8       34.3       36.0       18.8     1011.8       37.1       20.1        0.0        0.0        0.0       0.00       45.2       0.00       3.98        0.0
17:26             202       22.5         40       34.2      122.8       34.2       35.7       18.7     1011.7       37.1       20.1        0.0        0.0        0.0       0.00       45.7       0.00       3.98        0.0
17:28             207        9.7         40       34.1      122.8       34.1       35.5       18.6     1011.8       37.1       20.1        0.0        0.0        0.0       0.00       46.0       0.00       3.98        0.0
17:30             202       20.9         40       33.9      122.8       33.9       35.3       18.5     1011.7       37.1       20.1        0.0        0.0        0.0       0.00       46.3       0.00       3.98        0.0
17:32             217       14.5         40       33.9      122.8       33.9       35.2       18.4     1011.7       37.1       20.1        0.0        0.0        0.0       0.00       46.7       0.00       4.10        0.0
17:34             219       17.7         41       33.9      122.8       33.9       35.5       18.8     1011.8       37.1       20.1        0.0        0.0        0.0       0.00       47.0       0.00       4.10        0.0
17:36             237       16.1         41       33.8      122.8       33.8       35.3       18.7     1011.8       37.1       20.1        0.0        0.0        0.0       0.00       47.5       0.00       4.10        0.0
17:38             221       20.9         41       33.7      122.8       33.7       35.1       18.6     1011.9       37.1       20.1        0.0        0.0        0.0       0.00       47.9       0.00       4.10        0.0
18:00             225       22.5         42       33.1      122.8       33.1       34.4       18.5     1012.0       37.1       20.1        0.0        0.0        0.0       0.00       40.5       0.00       3.81        0.0
18:30             248       22.5         45       32.1      122.8       32.0       33.4       18.7     1012.3       37.1       20.1        0.0        0.0        0.0       0.00       46.5       0.00       4.04        0.0
19:00             248       24.1         48       30.9      122.8       30.8       32.1       18.7     1012.6       37.1       20.1        0.0        0.0        0.0       0.00       52.2       0.00       4.24        0.0
19:30             248       20.9         51       29.9      122.8       29.7       31.1       18.7     1012.9       37.1       20.1        0.0        0.0        0.0       0.00       57.8       0.00       4.43        0.0
20:00             248       25.7         54       29.2      122.8       28.6       30.5       19.0     1013.2       37.1       20.1        0.0        0.0        0.0       0.00       63.0       0.00       4.59        0.0
20:30             248       22.5         55       28.7      122.8       28.2       29.9       18.8     1013.6       37.1       20.1        0.0        0.0        0.0       0.00       69.5       0.00       4.73        0.0
21:00             270       27.4         58       28.3      122.8       27.7       29.7       19.3     1014.0       37.1       20.1        0.0        0.0        0.0       0.00       75.1       0.00       4.87        0.0
21:30             248       20.9         60       27.7      122.8       27.0       29.0       19.3     1014.2       37.1       20.1        0.0        0.0        0.0       0.00       80.3       0.00       5.00        0.0
22:00             248       17.7         62       27.3      122.8       27.3       28.7       19.4     1014.6       37.1       20.1        0.0        0.0        0.0       0.00       85.5       0.00       5.12        0.0
22:15             248       17.7         63       27.2      122.8       27.2       28.6       19.6     1014.9       37.1       20.1        0.0        0.0        0.0       0.00       87.2       0.00       5.17        0.0
22:22             253       12.9         64       26.9      122.8       26.2       28.3       19.6     1015.0       37.1       20.1        0.0        0.0        0.0       0.00       88.9       0.00       5.23        0.0
22:24             253        4.8         64       26.9      122.8       26.9       28.2       19.5     1015.0       37.1       20.1        0.0        0.0        0.0       0.00       89.1       0.00       5.23        0.0
22:26             253        8.0         64       26.9      122.8       26.9       28.2       19.5     1015.0       37.1       20.1        0.0        0.0        0.0       0.00       89.3       0.00       5.23        0.0
22:28             254       17.7         64       26.9      122.8       25.9       28.2       19.5     1015.0       37.1       20.1        0.0        0.0        0.0       0.00       89.6       0.00       5.23        0.0
22:30             254       14.5         64       26.9      122.8       26.6       28.2       19.5     1015.1       37.1       20.1        0.0        0.0        0.0       0.00       89.9       0.00       5.23        0.0
22:32             254       12.9         64       26.8      122.8       26.5       28.1       19.5     1015.0       37.1       20.1        0.0        0.0        0.0       0.00       90.3       0.00       5.28        0.0
22:34             254        8.0         64       26.8      122.8       26.8       28.1       19.4     1015.0       37.1       20.1        0.0        0.0        0.0       0.00       90.6       0.00       5.28        0.0
22:36             254       11.3         65       26.7      122.8       25.9       28.1       19.6     1015.0       37.1       20.1        0.0        0.0        0.0       0.00       90.7       0.00       5.28        0.0
22:38             257       14.5         65       26.7      122.8       26.7       28.1       19.6     1015.0       37.1       20.1        0.0        0.0        0.0       0.00       91.1       0.00       5.28        0.0
22:40             257       17.7         65       26.6      122.8       25.6       27.9       19.5     1015.1       37.1       20.1        0.0        0.0        0.0       0.00       91.5       0.00       5.28        0.0
22:41             261       11.3         66       26.6      122.8       26.0       27.9       19.7     1015.0       37.1       20.1        0.0        0.0        0.0       0.00       91.8       0.00       5.28        0.0
22:44             262       14.5         66       26.5      122.8       25.4       27.9       19.6     1015.2       37.1       20.1        0.0        0.0        0.0       0.00       92.1       0.00       5.28        0.0
22:46             261        3.2         66       26.5      122.8       26.5       27.9       19.6     1015.1       37.1       20.1        0.0        0.0        0.0       0.00       92.3       0.00       5.33        0.0
22:48             261       12.9         66       26.5      122.8       25.9       27.9       19.6     1015.1       37.1       20.1        0.0        0.0        0.0       0.00       92.4       0.00       5.33        0.0
22:50             261        6.4         66       26.5      122.8       26.5       27.9       19.6     1015.1       37.1       20.1        0.0        0.0        0.0       0.00       92.6       0.00       5.33        0.0
22:52             261       12.9         66       26.4      122.8       25.4       27.8       19.6     1015.1       37.1       20.1        0.0        0.0        0.0       0.00       92.9       0.00       5.33        0.0
22:54             254       12.9         66       26.4      122.8       26.4       27.8       19.6     1015.1       37.1       20.1        0.0        0.0        0.0       0.00       93.2       0.00       5.33        0.0
22:56             254       14.5         66       26.4      122.8       26.4       27.8       19.6     1015.1       37.1       20.1        0.0        0.0        0.0       0.00       93.5       0.00       5.33        0.0
22:58             256       11.3         66       26.4      122.8       26.1       27.8       19.6     1015.1       37.1       20.1        0.0        0.0        0.0       0.00       93.7       0.00       5.33        0.0
23:00             256       11.3         66       26.4      122.8       26.0       27.8       19.5     1015.2       37.1       20.1        0.0        0.0        0.0       0.00       93.9       0.00       5.33        0.0
23:01             256       12.9         66       26.4      122.8       25.5       27.8       19.5     1015.2       37.1       20.1        0.0        0.0        0.0       0.00       94.2       0.00       5.37        0.0
23:04             254       14.5         66       26.4      122.8       26.4       27.8       19.5     1015.1       37.1       20.1        0.0        0.0        0.0       0.00       94.4       0.00       5.37        0.0
23:06             254        6.4         66       26.4      122.8       26.4       27.8       19.5     1015.2       37.1       20.1        0.0        0.0        0.0       0.00       94.7       0.00       5.37        0.0
23:07             254       14.5         66       26.4      122.8       25.5       27.8       19.5     1015.1       37.1       20.1        0.0        0.0        0.0       0.00       94.9       0.00       5.37        0.0
23:10             254        8.0         66       26.3      122.8       26.3       27.7       19.5     1015.2       37.1       20.1        0.0        0.0        0.0       0.00       95.1       0.00       5.37        0.0
23:12             254        8.0         66       26.3      122.8       26.3       27.7       19.5     1015.2       37.1       20.1        0.0        0.0        0.0       0.00       95.4       0.00       5.37        0.0
23:14             254       11.3         66       26.3      122.8       26.3       27.7       19.5     1015.2       37.1       20.1        0.0        0.0        0.0       0.00       95.7       0.00       5.37        0.0
23:16             254       11.3         66       26.3      122.8       25.5       27.7       19.5     1015.2       37.1       20.1        0.0        0.0        0.0       0.00       95.9       0.00       5.42        0.0
23:18             254       11.3         66       26.3      122.8       25.5       27.7       19.5     1015.2       37.1       20.1        0.0        0.0        0.0       0.00       96.1       0.00       5.42        0.0
23:20             254        6.4         67       26.3      122.8       26.3       27.7       19.7     1015.3       37.1       20.1        0.0        0.0        0.0       0.00       96.3       0.00       5.42        0.0
23:21             254       11.3         67       26.3      122.8       26.3       27.7       19.7     1015.2       37.1       20.1        0.0        0.0        0.0       0.00       96.6       0.00       5.42        0.0
23:24             254        3.2         67       26.3      122.8       26.3       27.7       19.7     1015.3       37.1       20.1        0.0        0.0        0.0       0.00       96.7       0.00       5.42        0.0
23:26             254       11.3         67       26.2      122.8       26.2       27.7       19.6     1015.3       37.1       20.1        0.0        0.0        0.0       0.00       97.0       0.00       5.42        0.0
23:28             254       11.3         67       26.2      122.8       26.2       27.7       19.6     1015.2       37.1       20.1        0.0        0.0        0.0       0.00       97.2       0.00       5.42        0.0
23:30             254        8.0         67       26.2      122.8       25.8       27.6       19.6     1015.2       37.1       20.1        0.0        0.0        0.0       0.00       97.4       0.00       5.42        0.0
23:32             254        6.4         67       26.2      122.8       26.2       27.6       19.6     1015.1       37.1       20.1        0.0        0.0        0.0       0.00       97.6       0.00       5.46        0.0
23:33             254        6.4         67       26.2      122.8       26.2       27.6       19.6     1015.1       37.1       20.1        0.0        0.0        0.0       0.00       97.9       0.00       5.46        0.0
23:36             254       12.9         67       26.1      122.8       25.7       27.6       19.5     1015.2       37.1       20.1        0.0        0.0        0.0       0.00       98.2       0.00       5.46        0.0
23:38             254        6.4         67       26.1      122.8       26.1       27.6       19.5     1015.2       37.1       20.1        0.0        0.0        0.0       0.00       98.4       0.00       5.46        0.0
23:40             254        6.4         67       26.1      122.8       26.1       27.6       19.5     1015.1       37.1       20.1        0.0        0.0        0.0       0.00       98.6       0.00       5.46        0.0
23:42             254       17.7         67       26.1      122.8       24.3       27.5       19.5     1015.1       37.1       20.1        0.0        0.0        0.0       0.00       98.9       0.00       5.46        0.0
23:44             254        8.0         67       26.1      122.8       25.7       27.5       19.5     1015.2       37.1       20.1        0.0        0.0        0.0       0.00       99.1       0.00       5.46        0.0
23:46             254       12.9         67       26.1      122.8       25.2       27.5       19.5     1015.1       37.1       20.1        0.0        0.0        0.0       0.00       99.3       0.00       5.50        0.0
23:48             254       11.3         67       26.0      122.8       25.6       27.4       19.4     1015.2       37.1       20.1        0.0        0.0        0.0       0.00       99.6       0.00       5.50        0.0
23:50             252       12.9         67       26.0      122.8       26.0       27.4       19.4     1015.2       37.1       20.1        0.0        0.0        0.0       0.00       99.9       0.00       5.50        0.0
23:52             252        8.0         68       25.9      122.8       25.6       27.5       19.6     1015.2       37.1       20.1        0.0        0.0        0.0       0.00      100.1       0.00       5.50        0.0
23:54             252        8.0         68       25.9      122.8       25.9       27.5       19.6     1015.2       37.1       20.1        0.0        0.0        0.0       0.00      100.4       0.00       5.50        0.0
23:56             252       12.9         68       25.9      122.8       25.5       27.4       19.5     1015.1       37.1       20.1        0.0        0.0        0.0       0.00      100.6       0.00       5.50        0.0
23:58             252       11.3         68       25.9      122.8       25.0       27.4       19.5     1015.1       37.1       20.1        0.0        0.0        0.0       0.00      100.8       0.00       5.50        0.0


Detalle de hace 2 das:

20/8/19
Time         Wind Dir  Wind Gust   Humidity       Temp   Tot Rain Wind Chill Heat Index  Dew Point   Barom SL Temp Out H Temp Out L  DailyRain   HourRain   24HrRain   RainRate   Wind Run   Deg Heat   Deg Cool  MonthRain
                          km/hr          %         C         mm         C         C         C         mb         C         C         mm         mm         mm      mm/hr         km         C         C         mm
0:00              227        8.0         53       21.6      122.8       21.6       22.2       11.6     1013.0       21.6       21.6        0.0        0.0        0.0       0.00      139.5       0.00       5.01        0.0
0:02              227        6.4         53       21.6      122.8       21.6       22.2       11.6     1013.0       21.6       21.6        0.0        0.0        0.0       0.00        0.2       0.00       0.00        0.0
0:04              227        6.4         53       21.6      122.8       21.6       22.2       11.6     1013.0       21.6       21.6        0.0        0.0        0.0       0.00        0.3       0.00       0.00        0.0
0:06              227        6.4         53       21.5      122.8       21.5       22.1       11.5     1013.0       21.6       21.5        0.0        0.0        0.0       0.00        0.4       0.00       0.00        0.0
0:08              227        4.8         53       21.5      122.8       21.5       22.1       11.5     1013.0       21.6       21.5        0.0        0.0        0.0       0.00        0.5       0.00       0.00        0.0
0:10              227        3.2         53       21.4      122.8       21.4       22.1       11.5     1013.0       21.6       21.4        0.0        0.0        0.0       0.00        0.7       0.00       0.00        0.0
0:12              227        3.2         53       21.4      122.8       21.4       22.1       11.5     1013.0       21.6       21.4        0.0        0.0        0.0       0.00        0.7       0.00       0.00        0.0
0:14              227        3.2         53       21.4      122.8       21.4       22.1       11.5     1013.0       21.6       21.4        0.0        0.0        0.0       0.00        0.8       0.00       0.00        0.0
0:16              227        1.6         54       21.4      122.8       21.4       22.0       11.7     1013.2       21.6       21.4        0.0        0.0        0.0       0.00        0.9       0.00       0.00        0.0
0:18              227        3.2         54       21.4      122.8       21.4       22.0       11.7     1013.2       21.6       21.4        0.0        0.0        0.0       0.00        0.9       0.00       0.00        0.0
0:20              227        1.6         54       21.3      122.8       21.3       22.0       11.7     1013.1       21.6       21.3        0.0        0.0        0.0       0.00        1.0       0.00       0.00        0.0
0:22              227        0.0         54       21.3      122.8       21.3       22.0       11.7     1013.0       21.6       21.3        0.0        0.0        0.0       0.00        1.0       0.00       0.00        0.0
0:24              227        0.0         54       21.3      122.8       21.3       21.9       11.6     1013.1       21.6       21.3        0.0        0.0        0.0       0.00        1.0       0.00       0.00        0.0
0:26              227        0.0         54       21.3      122.8       21.3       21.9       11.6     1013.0       21.6       21.3        0.0        0.0        0.0       0.00        1.0       0.00       0.00        0.0
0:28              227        0.0         54       21.3      122.8       21.3       21.9       11.6     1012.9       21.6       21.3        0.0        0.0        0.0       0.00        1.0       0.00       0.00        0.0
0:30              227        0.0         54       21.3      122.8       21.3       21.9       11.6     1012.9       21.6       21.3        0.0        0.0        0.0       0.00        1.0       0.00       0.00        0.0
0:32              227        0.0         54       21.3      122.8       21.3       21.9       11.6     1012.9       21.6       21.2        0.0        0.0        0.0       0.00        1.0       0.00       0.00        0.0
0:34              227        0.0         54       21.3      122.8       21.3       21.9       11.6     1012.9       21.6       21.2        0.0        0.0        0.0       0.00        1.0       0.00       0.00        0.0
0:36              227        0.0         54       21.3      122.8       21.3       21.9       11.6     1012.9       21.6       21.2        0.0        0.0        0.0       0.00        1.0       0.00       0.00        0.0
0:38              227        0.0         54       21.3      122.8       21.3       21.9       11.6     1012.9       21.6       21.2        0.0        0.0        0.0       0.00        1.0       0.00       0.00        0.0
0:40              227        0.0         54       21.3      122.8       21.3       21.9       11.6     1012.9       21.6       21.2        0.0        0.0        0.0       0.00        1.0       0.00       0.00        0.0
0:42              227        0.0         54       21.3      122.8       21.3       21.9       11.6     1012.8       21.6       21.2        0.0        0.0        0.0       0.00        1.0       0.00       0.00        0.0
0:44              227        0.0         55       21.3      122.8       21.3       22.0       11.9     1012.9       21.6       21.2        0.0        0.0        0.0       0.00        1.0       0.00       0.00        0.0
0:46              227        0.0         54       21.3      122.8       21.3       21.9       11.6     1012.8       21.6       21.2        0.0        0.0        0.0       0.00        1.0       0.00       0.00        0.0
0:48              227        0.0         54       21.3      122.8       21.3       21.9       11.6     1012.8       21.6       21.2        0.0        0.0        0.0       0.00        1.0       0.00       0.00        0.0
0:50              227        0.0         54       21.2      122.8       21.2       21.9       11.6     1012.8       21.6       21.2        0.0        0.0        0.0       0.00        1.0       0.00       0.00        0.0
0:52              227        0.0         55       21.2      122.8       21.2       21.9       11.8     1012.8       21.6       21.2        0.0        0.0        0.0       0.00        1.0       0.00       0.00        0.0
0:54              227        0.0         55       21.3      122.8       21.3       22.0       11.9     1012.8       21.6       21.2        0.0        0.0        0.0       0.00        1.0       0.00       0.00        0.0
0:56              227        0.0         55       21.2      122.8       21.2       21.9       11.8     1012.9       21.6       21.2        0.0        0.0        0.0       0.00        1.0       0.00       0.00        0.0
0:58              227        0.0         55       21.2      122.8       21.2       21.9       11.8     1012.8       21.6       21.2        0.0        0.0        0.0       0.00        1.0       0.00       0.00        0.0
1:00              227        0.0         55       21.2      122.8       21.2       21.9       11.8     1012.8       21.6       21.2        0.0        0.0        0.0       0.00        1.0       0.00       0.00        0.0
1:02              227        0.0         55       21.2      122.8       21.2       21.9       11.8     1012.8       21.6       21.2        0.0        0.0        0.0       0.00        1.0       0.00       0.00        0.0
1:04              227        0.0         54       21.3      122.8       21.3       21.9       11.6     1012.8       21.6       21.2        0.0        0.0        0.0       0.00        1.0       0.00       0.00        0.0
1:06              227        0.0         53       21.3      122.8       21.3       21.9       11.4     1012.8       21.6       21.2        0.0        0.0        0.0       0.00        1.0       0.00       0.00        0.0
1:08              227        0.0         53       21.4      122.8       21.4       22.0       11.4     1012.7       21.6       21.2        0.0        0.0        0.0       0.00        1.0       0.00       0.00        0.0
1:10              227        0.0         53       21.4      122.8       21.4       22.1       11.5     1012.7       21.6       21.2        0.0        0.0        0.0       0.00        1.0       0.00       0.00        0.0
1:12              227        3.2         52       21.5      122.8       21.5       22.1       11.2     1012.7       21.6       21.2        0.0        0.0        0.0       0.00        1.1       0.00       0.00        0.0
1:14              227        0.0         51       21.6      122.8       21.6       22.1       11.0     1012.7       21.6       21.2        0.0        0.0        0.0       0.00        1.1       0.00       0.00        0.0
1:16              227        0.0         51       21.7      122.8       21.7       22.2       11.2     1012.7       21.7       21.2        0.0        0.0        0.0       0.00        1.1       0.00       0.00        0.0
1:18              227        0.0         50       21.8      122.8       21.8       22.2       10.9     1012.7       21.8       21.2        0.0        0.0        0.0       0.00        1.1       0.00       0.00        0.0
1:20              227        0.0         49       21.8      122.8       21.8       22.2       10.7     1012.7       21.8       21.2        0.0        0.0        0.0       0.00        1.1       0.00       0.00        0.0
1:22              227        0.0         48       21.9      122.8       21.9       22.3       10.4     1012.7       21.9       21.2        0.0        0.0        0.0       0.00        1.1       0.00       0.00        0.0
1:24              227        0.0         48       22.0      122.8       22.0       22.3       10.5     1012.7       22.0       21.2        0.0        0.0        0.0       0.00        1.1       0.00       0.00        0.0
1:26              227        0.0         47       22.1      122.8       22.1       22.4       10.3     1012.7       22.1       21.2        0.0        0.0        0.0       0.00        1.1       0.00       0.00        0.0
1:28              227        0.0         47       22.2      122.8       22.2       22.5       10.4     1012.7       22.2       21.2        0.0        0.0        0.0       0.00        1.1       0.00       0.00        0.0
1:30              227        0.0         46       22.3      122.8       22.3       22.6       10.2     1012.7       22.3       21.2        0.0        0.0        0.0       0.00        1.1       0.00       0.00        0.0
1:32              227        0.0         46       22.5      122.8       22.5       22.7       10.3     1012.8       22.5       21.2        0.0        0.0        0.0       0.00        1.1       0.00       0.00        0.0
1:34              227        0.0         46       22.6      122.8       22.6       22.9       10.4     1012.8       22.6       21.2        0.0        0.0        0.0       0.00        1.1       0.00       0.00        0.0
1:36              227        0.0         45       22.8      122.8       22.8       23.0       10.2     1012.8       22.8       21.2        0.0        0.0        0.0       0.00        1.1       0.00       0.00        0.0
1:38              227        0.0         45       22.9      122.8       22.9       23.1       10.4     1012.8       22.9       21.2        0.0        0.0        0.0       0.00        1.1       0.00       0.00        0.0
1:40              227        0.0         44       23.1      122.8       23.1       23.3       10.2     1012.8       23.1       21.2        0.0        0.0        0.0       0.00        1.1       0.00       0.00        0.0
1:42              227        0.0         44       23.3      122.8       23.3       23.4       10.4     1012.8       23.3       21.2        0.0        0.0        0.0       0.00        1.1       0.00       0.00        0.0
1:44              228        0.0         44       23.4      122.8       23.4       23.6       10.5     1012.8       23.4       21.2        0.0        0.0        0.0       0.00        1.1       0.00       0.00        0.0
1:46              229        0.0         43       23.6      122.8       23.6       23.7       10.3     1012.8       23.6       21.2        0.0        0.0        0.0       0.00        1.1       0.00       0.02        0.0
1:48              229        8.0         42       23.7      122.8       23.7       23.7       10.0     1012.8       23.7       21.2        0.0        0.0        0.0       0.00        1.2       0.00       0.02        0.0
1:50              232        6.4         42       23.8      122.8       23.8       23.8       10.1     1012.8       23.8       21.2        0.0        0.0        0.0       0.00        1.3       0.00       0.02        0.0
1:52              232        0.0         42       23.9      122.8       23.9       23.9       10.2     1012.8       23.9       21.2        0.0        0.0        0.0       0.00        1.3       0.00       0.02        0.0
1:54              232        0.0         42       23.9      122.8       23.9       24.0       10.3     1012.8       23.9       21.2        0.0        0.0        0.0       0.00        1.3       0.00       0.02        0.0
1:55              232        0.0         42       23.9      122.8       23.9       24.0       10.3     1012.8       23.9       21.2        0.0        0.0        0.0       0.00        1.3       0.00       0.02        0.0
1:58              232        0.0         46       23.9      122.8       23.9       24.2       11.6     1012.8       23.9       21.2        0.0        0.0        0.0       0.00        1.3       0.00       0.02        0.0
2:00              232        0.0         46       23.9      122.8       23.9       24.1       11.6     1012.7       23.9       21.2        0.0        0.0        0.0       0.00        1.3       0.00       0.02        0.0
2:02              232        0.0         45       23.8      122.8       23.8       24.0       11.2     1012.8       23.9       21.2        0.0        0.0        0.0       0.00        1.3       0.00       0.04        0.0
2:04              232        0.0         46       23.8      122.8       23.8       24.0       11.5     1012.7       23.9       21.2        0.0        0.0        0.0       0.00        1.3       0.00       0.04        0.0
2:06              232        0.0         45       23.7      122.8       23.7       23.9       11.1     1012.8       23.9       21.2        0.0        0.0        0.0       0.00        1.3       0.00       0.04        0.0
2:08              232        0.0         46       23.7      122.8       23.7       23.9       11.4     1012.7       23.9       21.2        0.0        0.0        0.0       0.00        1.3       0.00       0.04        0.0
2:10              232        0.0         47       23.6      122.8       23.6       23.9       11.6     1012.6       23.9       21.2        0.0        0.0        0.0       0.00        1.3       0.00       0.04        0.0
2:12              232        0.0         47       23.6      122.8       23.6       23.8       11.6     1012.7       23.9       21.2        0.0        0.0        0.0       0.00        1.3       0.00       0.04        0.0
2:14              232        0.0         47       23.5      122.8       23.5       23.8       11.5     1012.7       23.9       21.2        0.0        0.0        0.0       0.00        1.3       0.00       0.04        0.0
2:16              232        0.0         48       23.4      122.8       23.4       23.8       11.8     1012.7       23.9       21.2        0.0        0.0        0.0       0.00        1.3       0.00       0.05        0.0
2:18              232        0.0         49       23.4      122.8       23.4       23.8       12.1     1012.7       23.9       21.2        0.0        0.0        0.0       0.00        1.3       0.00       0.05        0.0
2:20              232        0.0         51       23.4      122.8       23.4       23.9       12.7     1012.7       23.9       21.2        0.0        0.0        0.0       0.00        1.3       0.00       0.05        0.0
2:22              232        0.0         52       23.3      122.8       23.3       23.9       12.9     1012.7       23.9       21.2        0.0        0.0        0.0       0.00        1.3       0.00       0.05        0.0
2:24              232        0.0         53       23.3      122.8       23.3       23.9       13.2     1012.7       23.9       21.2        0.0        0.0        0.0       0.00        1.3       0.00       0.05        0.0
2:26              232        0.0         55       23.2      122.8       23.2       23.9       13.7     1012.8       23.9       21.2        0.0        0.0        0.0       0.00        1.3       0.00       0.05        0.0
2:28              232        0.0         56       23.1      122.8       23.1       23.9       13.9     1012.8       23.9       21.2        0.0        0.0        0.0       0.00        1.3       0.00       0.05        0.0
2:30              232        0.0         58       23.1      122.8       23.1       23.9       14.4     1012.8       23.9       21.2        0.0        0.0        0.0       0.00        1.3       0.00       0.05        0.0
2:32              232        0.0         58       22.9      122.8       22.9       23.8       14.2     1012.8       23.9       21.2        0.0        0.0        0.0       0.00        1.3       0.00       0.07        0.0
2:34              232        0.0         58       22.8      122.8       22.8       23.7       14.1     1012.8       23.9       21.2        0.0        0.0        0.0       0.00        1.3       0.00       0.07        0.0
2:36              232        0.0         57       22.7      122.8       22.7       23.6       13.8     1012.7       23.9       21.2        0.0        0.0        0.0       0.00        1.3       0.00       0.07        0.0
2:38              232        0.0         57       22.6      122.8       22.6       23.4       13.7     1012.8       23.9       21.2        0.0        0.0        0.0       0.00        1.3       0.00       0.07        0.0
2:40              232        0.0         57       22.5      122.8       22.5       23.3       13.6     1012.8       23.9       21.2        0.0        0.0        0.0       0.00        1.3       0.00       0.07        0.0
2:42              232        0.0         57       22.4      122.8       22.4       23.3       13.5     1012.7       23.9       21.2        0.0        0.0        0.0       0.00        1.3       0.00       0.07        0.0
2:44              232        0.0         58       22.4      122.8       22.4       23.3       13.7     1012.8       23.9       21.2        0.0        0.0        0.0       0.00        1.3       0.00       0.07        0.0
2:46              232        0.0         59       22.3      122.8       22.3       23.2       13.9     1012.8       23.9       21.2        0.0        0.0        0.0       0.00        1.3       0.00       0.07        0.0
2:48              232        0.0         59       22.2      122.8       22.2       23.2       13.8     1012.7       23.9       21.2        0.0        0.0        0.0       0.00        1.3       0.00       0.07        0.0
2:50              232        0.0         59       22.2      122.8       22.2       23.1       13.8     1012.8       23.9       21.2        0.0        0.0        0.0       0.00        1.3       0.00       0.07        0.0
2:52              232        0.0         60       22.1      122.8       22.1       23.1       14.0     1012.8       23.9       21.2        0.0        0.0        0.0       0.00        1.3       0.00       0.07        0.0
2:54              232        0.0         60       22.0      122.8       22.0       23.0       13.9     1012.8       23.9       21.2        0.0        0.0        0.0       0.00        1.3       0.00       0.07        0.0
2:56              232        0.0         59       21.9      122.8       21.9       22.9       13.6     1012.8       23.9       21.2        0.0        0.0        0.0       0.00        1.3       0.00       0.07        0.0
2:58              232        0.0         59       21.9      122.8       21.9       22.8       13.5     1012.8       23.9       21.2        0.0        0.0        0.0       0.00        1.3       0.00       0.07        0.0
3:00              232        0.0         60       21.8      122.8       21.8       22.8       13.7     1012.8       23.9       21.2        0.0        0.0        0.0       0.00        1.3       0.00       0.07        0.0
3:02              232        0.0         58       21.8      122.8       21.8       22.7       13.2     1012.8       23.9       21.2        0.0        0.0        0.0       0.00        1.3       0.00       0.07        0.0
3:04              232        0.0         58       21.7      122.8       21.7       22.6       13.1     1012.8       23.9       21.2        0.0        0.0        0.0       0.00        1.3       0.00       0.07        0.0
3:06              232        0.0         56       21.7      122.8       21.7       22.4       12.5     1012.7       23.9       21.2        0.0        0.0        0.0       0.00        1.3       0.00       0.07        0.0
3:08              232        0.0         57       21.7      122.8       21.7       22.5       12.8     1012.8       23.9       21.2        0.0        0.0        0.0       0.00        1.3       0.00       0.07        0.0
3:10              232        0.0         55       21.6      122.8       21.6       22.3       12.2     1012.7       23.9       21.2        0.0        0.0        0.0       0.00        1.3       0.00       0.07        0.0
3:12              232        0.0         53       21.6      122.8       21.6       22.2       11.6     1012.7       23.9       21.2        0.0        0.0        0.0       0.00        1.3       0.00       0.07        0.0
3:14              232        0.0         58       21.6      122.8       21.6       22.5       13.0     1012.7       23.9       21.2        0.0        0.0        0.0       0.00        1.3       0.00       0.07        0.0
3:16              232        0.0         59       21.7      122.8       21.7       22.6       13.3     1012.6       23.9       21.2        0.0        0.0        0.0       0.00        1.3       0.00       0.07        0.0
3:18              232        0.0         55       21.6      122.8       21.6       22.3       12.2     1012.6       23.9       21.2        0.0        0.0        0.0       0.00        1.3       0.00       0.07        0.0
3:20              232        0.0         56       21.6      122.8       21.6       22.4       12.5     1012.6       23.9       21.2        0.0        0.0        0.0       0.00        1.3       0.00       0.07        0.0
3:22              232        0.0         56       21.6      122.8       21.6       22.3       12.4     1012.6       23.9       21.2        0.0        0.0        0.0       0.00        1.3       0.00       0.07        0.0
3:24              232        0.0         56       21.6      122.8       21.6       22.3       12.4     1012.6       23.9       21.2        0.0        0.0        0.0       0.00        1.3       0.00       0.07        0.0
3:26              232        0.0         57       21.6      122.8       21.6       22.4       12.7     1012.6       23.9       21.2        0.0        0.0        0.0       0.00        1.3       0.00       0.07        0.0
3:28              232        0.0         57       21.6      122.8       21.6       22.4       12.7     1012.6       23.9       21.2        0.0        0.0        0.0       0.00        1.3       0.00       0.07        0.0
3:29              232        0.0         58       21.5      122.8       21.5       22.4       12.9     1012.7       23.9       21.2        0.0        0.0        0.0       0.00        1.3       0.00       0.07        0.0
3:32              232        0.0         59       21.5      122.8       21.5       22.4       13.2     1012.7       23.9       21.2        0.0        0.0        0.0       0.00        1.3       0.00       0.07        0.0
3:34              232        0.0         61       21.5      122.8       21.5       22.6       13.7     1012.6       23.9       21.2        0.0        0.0        0.0       0.00        1.3       0.00       0.07        0.0
3:36              232        0.0         62       21.5      122.8       21.5       22.6       13.9     1012.7       23.9       21.2        0.0        0.0        0.0       0.00        1.3       0.00       0.07        0.0
3:38              232        0.0         63       21.5      122.8       21.5       22.7       14.2     1012.8       23.9       21.2        0.0        0.0        0.0       0.00        1.3       0.00       0.07        0.0
3:40              232        0.0         64       21.4      122.8       21.4       22.7       14.4     1012.7       23.9       21.2        0.0        0.0        0.0       0.00        1.3       0.00       0.07        0.0
3:42              232        0.0         63       21.4      122.8       21.4       22.6       14.1     1012.7       23.9       21.2        0.0        0.0        0.0       0.00        1.3       0.00       0.07        0.0
3:44              232        0.0         64       21.4      122.8       21.4       22.6       14.3     1012.7       23.9       21.2        0.0        0.0        0.0       0.00        1.3       0.00       0.07        0.0
3:46              232        0.0         64       21.3      122.8       21.3       22.6       14.3     1012.8       23.9       21.2        0.0        0.0        0.0       0.00        1.3       0.00       0.07        0.0
3:48              232        0.0         64       21.3      122.8       21.3       22.5       14.2     1012.8       23.9       21.2        0.0        0.0        0.0       0.00        1.3       0.00       0.07        0.0
3:50              232        0.0         64       21.2      122.8       21.2       22.5       14.1     1012.7       23.9       21.2        0.0        0.0        0.0       0.00        1.3       0.00       0.07        0.0
3:52              232        0.0         64       21.2      122.8       21.2       22.5       14.1     1012.7       23.9       21.2        0.0        0.0        0.0       0.00        1.3       0.00       0.07        0.0
3:54              232        0.0         65       21.2      122.8       21.2       22.5       14.3     1012.7       23.9       21.2        0.0        0.0        0.0       0.00        1.3       0.00       0.07        0.0
3:56              232        0.0         65       21.1      122.8       21.1       22.4       14.3     1012.7       23.9       21.1        0.0        0.0        0.0       0.00        1.3       0.00       0.07        0.0
3:58              232        0.0         65       21.1      122.8       21.1       22.4       14.2     1012.7       23.9       21.1        0.0        0.0        0.0       0.00        1.3       0.00       0.07        0.0
4:00              232        0.0         66       21.0      122.8       21.0       22.4       14.4     1012.6       23.9       21.0        0.0        0.0        0.0       0.00        1.3       0.00       0.07        0.0
4:02              232        0.0         66       20.9      122.8       20.9       22.3       14.4     1012.7       23.9       20.9        0.0        0.0        0.0       0.00        1.3       0.00       0.07        0.0
4:04              232        0.0         66       20.9      122.8       20.9       22.3       14.3     1012.7       23.9       20.9        0.0        0.0        0.0       0.00        1.3       0.00       0.07        0.0
4:06              232        0.0         66       20.9      122.8       20.9       22.3       14.3     1012.7       23.9       20.9        0.0        0.0        0.0       0.00        1.3       0.00       0.07        0.0
4:08              232        0.0         66       20.8      122.8       20.8       22.2       14.3     1012.6       23.9       20.8        0.0        0.0        0.0       0.00        1.3       0.00       0.07        0.0
4:10              232        0.0         66       20.8      122.8       20.8       22.2       14.2     1012.6       23.9       20.8        0.0        0.0        0.0       0.00        1.3       0.00       0.07        0.0
4:12              232        0.0         67       20.7      122.8       20.7       22.2       14.4     1012.7       23.9       20.7        0.0        0.0        0.0       0.00        1.3       0.00       0.07        0.0
4:14              232        0.0         67       20.7      122.8       20.7       22.1       14.3     1012.7       23.9       20.7        0.0        0.0        0.0       0.00        1.3       0.00       0.07        0.0
4:16              232        0.0         67       20.7      122.8       20.7       22.1       14.3     1012.7       23.9       20.7        0.0        0.0        0.0       0.00        1.3       0.00       0.07        0.0
4:18              232        0.0         67       20.7      122.8       20.7       22.1       14.3     1012.8       23.9       20.6        0.0        0.0        0.0       0.00        1.3       0.00       0.07        0.0
4:20              232        0.0         68       20.6      122.8       20.6       22.1       14.5     1012.7       23.9       20.6        0.0        0.0        0.0       0.00        1.3       0.00       0.07        0.0
4:22              232        0.0         68       20.6      122.8       20.6       22.1       14.5     1012.7       23.9       20.6        0.0        0.0        0.0       0.00        1.3       0.00       0.07        0.0
4:24              232        0.0         69       20.6      122.8       20.6       22.1       14.7     1012.7       23.9       20.6        0.0        0.0        0.0       0.00        1.3       0.00       0.07        0.0
4:26              232        0.0         69       20.6      122.8       20.6       22.1       14.7     1012.7       23.9       20.6        0.0        0.0        0.0       0.00        1.3       0.00       0.07        0.0
4:28              232        0.0         69       20.5      122.8       20.5       22.1       14.6     1012.8       23.9       20.5        0.0        0.0        0.0       0.00        1.3       0.00       0.07        0.0
4:30              232        0.0         69       20.4      122.8       20.4       22.0       14.6     1012.7       23.9       20.4        0.0        0.0        0.0       0.00        1.3       0.00       0.07        0.0
4:32              232        0.0         70       20.4      122.8       20.4       22.0       14.7     1012.7       23.9       20.4        0.0        0.0        0.0       0.00        1.3       0.00       0.07        0.0
4:34              232        0.0         70       20.3      122.8       20.3       22.0       14.7     1012.6       23.9       20.3        0.0        0.0        0.0       0.00        1.3       0.00       0.07        0.0
4:36              232        0.0         70       20.3      122.8       20.3       22.0       14.7     1012.7       23.9       20.3        0.0        0.0        0.0       0.00        1.3       0.00       0.07        0.0
4:38              232        0.0         71       20.2      122.8       20.2       21.9       14.8     1012.7       23.9       20.2        0.0        0.0        0.0       0.00        1.3       0.00       0.07        0.0
4:40              232        0.0         71       20.2      122.8       20.2       21.9       14.7     1012.7       23.9       20.2        0.0        0.0        0.0       0.00        1.3       0.00       0.07        0.0
4:42              232        0.0         71       20.2      122.8       20.2       21.9       14.7     1012.7       23.9       20.1        0.0        0.0        0.0       0.00        1.3       0.00       0.07        0.0
4:44              232        0.0         72       20.1      122.8       20.1       21.9       14.9     1012.7       23.9       20.1        0.0        0.0        0.0       0.00        1.3       0.00       0.07        0.0
4:46              232        0.0         72       20.1      122.8       20.1       21.8       14.9     1012.7       23.9       20.1        0.0        0.0        0.0       0.00        1.3       0.00       0.07        0.0
4:48              232        0.0         72       20.0      122.8       20.0       21.8       14.8     1012.8       23.9       20.0        0.0        0.0        0.0       0.00        1.3       0.00       0.07        0.0
4:50              232        0.0         73       20.0      122.8       20.0       21.8       15.0     1012.7       23.9       20.0        0.0        0.0        0.0       0.00        1.3       0.00       0.07        0.0
4:52              232        0.0         73       19.9      122.8       19.9       21.8       15.0     1012.7       23.9       19.9        0.0        0.0        0.0       0.00        1.3       0.00       0.07        0.0
4:54              232        0.0         73       19.9      122.8       19.9       21.7       14.9     1012.8       23.9       19.9        0.0        0.0        0.0       0.00        1.3       0.00       0.07        0.0
4:56              232        0.0         73       19.8      122.8       19.8       21.7       14.9     1012.7       23.9       19.8        0.0        0.0        0.0       0.00        1.3       0.00       0.07        0.0
4:58              232        0.0         73       19.8      122.8       19.8       21.6       14.8     1012.8       23.9       19.8        0.0        0.0        0.0       0.00        1.3       0.00       0.07        0.0
5:00              232        0.0         73       19.7      122.8       19.7       21.6       14.8     1012.8       23.9       19.7        0.0        0.0        0.0       0.00        1.3       0.00       0.07        0.0
5:02              232        0.0         73       19.7      122.8       19.7       21.6       14.8     1012.8       23.9       19.7        0.0        0.0        0.0       0.00        1.3       0.00       0.07        0.0
5:04              232        0.0         73       19.7      122.8       19.7       21.6       14.8     1012.8       23.9       19.7        0.0        0.0        0.0       0.00        1.3       0.00       0.07        0.0
5:06              232        0.0         73       19.7      122.8       19.7       21.5       14.7     1012.8       23.9       19.7        0.0        0.0        0.0       0.00        1.3       0.00       0.07        0.0
5:08              232        0.0         73       19.7      122.8       19.7       21.5       14.7     1012.9       23.9       19.7        0.0        0.0        0.0       0.00        1.3       0.00       0.07        0.0
5:10              232        0.0         73       19.7      122.8       19.7       21.5       14.7     1012.8       23.9       19.7        0.0        0.0        0.0       0.00        1.3       0.00       0.07        0.0
5:12              232        0.0         73       19.7      122.8       19.7       21.6       14.8     1012.9       23.9       19.7        0.0        0.0        0.0       0.00        1.3       0.00       0.07        0.0
5:14              232        0.0         73       19.7      122.8       19.7       21.6       14.8     1012.9       23.9       19.7        0.0        0.0        0.0       0.00        1.3       0.00       0.07        0.0
5:16              232        0.0         73       19.7      122.8       19.7       21.6       14.8     1012.9       23.9       19.7        0.0        0.0        0.0       0.00        1.3       0.00       0.07        0.0
5:18              232        0.0         73       19.7      122.8       19.7       21.6       14.8     1013.0       23.9       19.7        0.0        0.0        0.0       0.00        1.3       0.00       0.07        0.0
5:20              232        0.0         72       19.7      122.8       19.7       21.5       14.5     1013.0       23.9       19.7        0.0        0.0        0.0       0.00        1.3       0.00       0.07        0.0
5:22              232        0.0         72       19.7      122.8       19.7       21.5       14.5     1012.9       23.9       19.7        0.0        0.0        0.0       0.00        1.3       0.00       0.07        0.0
5:24              232        0.0         72       19.7      122.8       19.7       21.5       14.5     1013.0       23.9       19.7        0.0        0.0        0.0       0.00        1.3       0.00       0.07        0.0
5:26              232        0.0         72       19.7      122.8       19.7       21.5       14.5     1013.0       23.9       19.7        0.0        0.0        0.0       0.00        1.3       0.00       0.07        0.0
5:28              232        0.0         72       19.7      122.8       19.7       21.5       14.5     1012.9       23.9       19.7        0.0        0.0        0.0       0.00        1.3       0.00       0.07        0.0
5:30              232        0.0         72       19.7      122.8       19.7       21.5       14.5     1013.0       23.9       19.7        0.0        0.0        0.0       0.00        1.3       0.00       0.07        0.0
5:32              232        0.0         71       19.7      122.8       19.7       21.4       14.3     1013.1       23.9       19.7        0.0        0.0        0.0       0.00        1.3       0.00       0.07        0.0
5:34              232        0.0         71       19.7      122.8       19.7       21.4       14.3     1013.1       23.9       19.7        0.0        0.0        0.0       0.00        1.3       0.00       0.07        0.0
5:36              232        0.0         71       19.7      122.8       19.7       21.4       14.3     1013.1       23.9       19.7        0.0        0.0        0.0       0.00        1.3       0.00       0.07        0.0
5:38              232        0.0         71       19.8      122.8       19.8       21.5       14.4     1013.2       23.9       19.7        0.0        0.0        0.0       0.00        1.3       0.00       0.07        0.0
5:40              232        0.0         71       19.8      122.8       19.8       21.5       14.4     1013.3       23.9       19.7        0.0        0.0        0.0       0.00        1.3       0.00       0.07        0.0
5:42              232        0.0         71       19.8      122.8       19.8       21.5       14.4     1013.3       23.9       19.7        0.0        0.0        0.0       0.00        1.3       0.00       0.07        0.0
5:44              232        0.0         70       19.8      122.8       19.8       21.4       14.2     1013.2       23.9       19.7        0.0        0.0        0.0       0.00        1.3       0.00       0.07        0.0
5:46              232        0.0         70       19.8      122.8       19.8       21.5       14.2     1013.4       23.9       19.7        0.0        0.0        0.0       0.00        1.3       0.00       0.07        0.0
5:48              232        0.0         70       19.8      122.8       19.8       21.5       14.2     1013.3       23.9       19.7        0.0        0.0        0.0       0.00        1.3       0.00       0.07        0.0
5:50              232        0.0         69       19.8      122.8       19.8       21.4       14.0     1013.4       23.9       19.7        0.0        0.0        0.0       0.00        1.3       0.00       0.07        0.0
5:52              232        0.0         69       19.8      122.8       19.8       21.4       14.0     1013.2       23.9       19.7        0.0        0.0        0.0       0.00        1.3       0.00       0.07        0.0
5:54              232        0.0         69       19.9      122.8       19.9       21.5       14.0     1013.3       23.9       19.7        0.0        0.0        0.0       0.00        1.3       0.00       0.07        0.0
5:56              232        0.0         68       19.9      122.8       19.9       21.5       13.9     1013.4       23.9       19.7        0.0        0.0        0.0       0.00        1.3       0.00       0.07        0.0
5:58              232        0.0         68       19.9      122.8       19.9       21.5       13.9     1013.5       23.9       19.7        0.0        0.0        0.0       0.00        1.3       0.00       0.07        0.0
6:00              232        0.0         67       20.0      122.8       20.0       21.4       13.7     1013.5       23.9       19.7        0.0        0.0        0.0       0.00        1.3       0.00       0.07        0.0
6:02              232        0.0         67       20.1      122.8       20.1       21.5       13.7     1013.6       23.9       19.7        0.0        0.0        0.0       0.00        1.3       0.00       0.07        0.0
6:04              232        0.0         67       20.1      122.8       20.1       21.5       13.7     1013.5       23.9       19.7        0.0        0.0        0.0       0.00        1.3       0.00       0.07        0.0
6:06              232        0.0         67       20.1      122.8       20.1       21.6       13.8     1013.5       23.9       19.7        0.0        0.0        0.0       0.00        1.3       0.00       0.07        0.0
6:08              232        0.0         67       20.1      122.8       20.1       21.6       13.8     1013.5       23.9       19.7        0.0        0.0        0.0       0.00        1.3       0.00       0.07        0.0
6:10              232        0.0         67       20.1      122.8       20.1       21.6       13.8     1013.5       23.9       19.7        0.0        0.0        0.0       0.00        1.3       0.00       0.07        0.0
6:12              232        0.0         67       20.1      122.8       20.1       21.6       13.8     1013.5       23.9       19.7        0.0        0.0        0.0       0.00        1.3       0.00       0.07        0.0
6:14              232        0.0         67       20.1      122.8       20.1       21.6       13.8     1013.5       23.9       19.7        0.0        0.0        0.0       0.00        1.3       0.00       0.07        0.0
6:16              232        0.0         67       20.2      122.8       20.2       21.6       13.9     1013.5       23.9       19.7        0.0        0.0        0.0       0.00        1.3       0.00       0.07        0.0
6:18              232        0.0         67       20.2      122.8       20.2       21.7       13.9     1013.5       23.9       19.7        0.0        0.0        0.0       0.00        1.3       0.00       0.07        0.0
6:20              232        0.0         66       20.2      122.8       20.2       21.6       13.7     1013.5       23.9       19.7        0.0        0.0        0.0       0.00        1.3       0.00       0.07        0.0
6:22              232        0.0         66       20.3      122.8       20.3       21.7       13.7     1013.5       23.9       19.7        0.0        0.0        0.0       0.00        1.3       0.00       0.07        0.0
6:24              232        0.0         66       20.3      122.8       20.3       21.7       13.7     1013.5       23.9       19.7        0.0        0.0        0.0       0.00        1.3       0.00       0.07        0.0
6:26              232        0.0         63       20.3      122.8       20.3       21.5       13.0     1013.6       23.9       19.7        0.0        0.0        0.0       0.00        1.3       0.00       0.07        0.0
6:28              232        0.0         60       20.3      122.8       20.3       21.3       12.3     1013.6       23.9       19.7        0.0        0.0        0.0       0.00        1.3       0.00       0.07        0.0
6:30              232        0.0         57       20.3      122.8       20.3       21.1       11.5     1013.5       23.9       19.7        0.0        0.0        0.0       0.00        1.3       0.00       0.07        0.0
6:32              232        0.0         53       20.3      122.8       20.3       20.9       10.4     1013.5       23.9       19.7        0.0        0.0        0.0       0.00        1.3       0.00       0.07        0.0
6:34              232        0.0         51       20.3      122.8       20.3       20.8        9.9     1013.5       23.9       19.7        0.0        0.0        0.0       0.00        1.3       0.00       0.07        0.0
6:36              232        0.0         50       20.3      122.8       20.3       20.8        9.6     1013.5       23.9       19.7        0.0        0.0        0.0       0.00        1.3       0.00       0.07        0.0
6:38              231        0.0         47       20.4      122.8       20.4       20.7        8.8     1013.5       23.9       19.7        0.0        0.0        0.0       0.00        1.3       0.00       0.07        0.0
6:40              232        0.0         48       20.6      122.8       20.6       20.9        9.2     1013.4       23.9       19.7        0.0        0.0        0.0       0.00        1.3       0.00       0.07        0.0
6:42              232        0.0         47       20.6      122.8       20.6       20.9        8.9     1013.6       23.9       19.7        0.0        0.0        0.0       0.00        1.3       0.00       0.07        0.0
6:44              232        0.0         46       20.7      122.8       20.7       21.0        8.7     1013.5       23.9       19.7        0.0        0.0        0.0       0.00        1.3       0.00       0.07        0.0
6:46              232        0.0         45       20.8      122.8       20.8       21.0        8.5     1013.6       23.9       19.7        0.0        0.0        0.0       0.00        1.3       0.00       0.07        0.0
6:48              232        0.0         45       20.9      122.8       20.9       21.1        8.6     1013.6       23.9       19.7        0.0        0.0        0.0       0.00        1.3       0.00       0.07        0.0
6:50              232        0.0         45       21.1      122.8       21.1       21.2        8.7     1013.5       23.9       19.7        0.0        0.0        0.0       0.00        1.3       0.00       0.07        0.0
6:52              232        0.0         46       21.2      122.8       21.2       21.4        9.1     1013.6       23.9       19.7        0.0        0.0        0.0       0.00        1.3       0.00       0.07        0.0
6:54              232        0.0         44       21.3      122.8       21.3       21.4        8.5     1013.6       23.9       19.7        0.0        0.0        0.0       0.00        1.3       0.00       0.07        0.0
6:56              232        0.0         42       21.4      122.8       21.4       21.4        8.0     1013.6       23.9       19.7        0.0        0.0        0.0       0.00        1.3       0.00       0.07        0.0
6:58              232        0.0         43       21.6      122.8       21.6       21.7        8.5     1013.7       23.9       19.7        0.0        0.0        0.0       0.00        1.3       0.00       0.07        0.0
7:00              232        6.4         41       21.7      122.8       21.7       21.7        7.9     1013.7       23.9       19.7        0.0        0.0        0.0       0.00        1.4       0.00       0.07        0.0
7:02              232        0.0         41       21.8      122.8       21.8       21.8        8.0     1013.6       23.9       19.7        0.0        0.0        0.0       0.00        1.4       0.00       0.07        0.0
7:04              232        0.0         41       21.9      122.8       21.9       21.9        8.1     1013.7       23.9       19.7        0.0        0.0        0.0       0.00        1.4       0.00       0.07        0.0
7:06              232        0.0         42       22.1      122.8       22.1       22.1        8.6     1013.7       23.9       19.7        0.0        0.0        0.0       0.00        1.4       0.00       0.07        0.0
7:08              232        0.0         40       22.2      122.8       22.2       22.1        7.9     1013.7       23.9       19.7        0.0        0.0        0.0       0.00        1.4       0.00       0.07        0.0
7:10              232        0.0         40       22.3      122.8       22.3       22.2        8.0     1013.7       23.9       19.7        0.0        0.0        0.0       0.00        1.4       0.00       0.07        0.0
7:12              232        0.0         40       22.4      122.8       22.4       22.3        8.1     1013.8       23.9       19.7        0.0        0.0        0.0       0.00        1.4       0.00       0.07        0.0
7:14              232        0.0         40       22.4      122.8       22.4       22.4        8.2     1013.7       23.9       19.7        0.0        0.0        0.0       0.00        1.4       0.00       0.07        0.0
7:16              232        0.0         40       22.6      122.8       22.6       22.5        8.3     1013.8       23.9       19.7        0.0        0.0        0.0       0.00        1.4       0.00       0.07        0.0
7:18              232        0.0         40       22.7      122.8       22.7       22.6        8.4     1013.7       23.9       19.7        0.0        0.0        0.0       0.00        1.4       0.00       0.07        0.0
7:20              232        0.0         39       22.7      122.8       22.7       22.6        8.1     1013.8       23.9       19.7        0.0        0.0        0.0       0.00        1.4       0.00       0.07        0.0
7:22              232        0.0         39       22.7      122.8       22.7       22.6        8.1     1013.8       23.9       19.7        0.0        0.0        0.0       0.00        1.4       0.00       0.07        0.0
7:24              232        0.0         40       22.7      122.8       22.7       22.7        8.4     1013.8       23.9       19.7        0.0        0.0        0.0       0.00        1.4       0.00       0.07        0.0
7:26              232        0.0         39       22.8      122.8       22.8       22.7        8.1     1013.8       23.9       19.7        0.0        0.0        0.0       0.00        1.4       0.00       0.07        0.0
7:28              232        0.0         39       22.8      122.8       22.8       22.7        8.1     1013.8       23.9       19.7        0.0        0.0        0.0       0.00        1.4       0.00       0.07        0.0
7:30              232        0.0         39       22.8      122.8       22.8       22.7        8.1     1013.7       23.9       19.7        0.0        0.0        0.0       0.00        1.4       0.00       0.07        0.0
7:32              232        0.0         40       22.8      122.8       22.8       22.7        8.5     1013.8       23.9       19.7        0.0        0.0        0.0       0.00        1.4       0.00       0.08        0.0
7:34              232        0.0         40       22.8      122.8       22.8       22.7        8.5     1013.8       23.9       19.7        0.0        0.0        0.0       0.00        1.4       0.00       0.08        0.0
7:36              232        0.0         40       22.8      122.8       22.8       22.7        8.5     1013.8       23.9       19.7        0.0        0.0        0.0       0.00        1.4       0.00       0.08        0.0
7:38              232        0.0         40       22.8      122.8       22.8       22.7        8.5     1013.8       23.9       19.7        0.0        0.0        0.0       0.00        1.4       0.00       0.08        0.0
7:40              232        0.0         40       22.8      122.8       22.8       22.8        8.5     1013.9       23.9       19.7        0.0        0.0        0.0       0.00        1.4       0.00       0.08        0.0
7:42              232        0.0         41       22.9      122.8       22.9       22.9        9.0     1013.8       23.9       19.7        0.0        0.0        0.0       0.00        1.4       0.00       0.08        0.0
7:44              232        0.0         42       23.0      122.8       23.0       23.1        9.4     1013.9       23.9       19.7        0.0        0.0        0.0       0.00        1.4       0.00       0.08        0.0
7:46              232        0.0         41       23.1      122.8       23.1       23.1        9.2     1013.8       23.9       19.7        0.0        0.0        0.0       0.00        1.4       0.00       0.09        0.0
7:48              232        0.0         40       23.2      122.8       23.2       23.1        8.8     1013.9       23.9       19.7        0.0        0.0        0.0       0.00        1.4       0.00       0.09        0.0
7:50              232        0.0         40       23.2      122.8       23.2       23.2        8.9     1013.9       23.9       19.7        0.0        0.0        0.0       0.00        1.4       0.00       0.09        0.0
7:52              232        0.0         39       23.3      122.8       23.3       23.2        8.6     1013.9       23.9       19.7        0.0        0.0        0.0       0.00        1.4       0.00       0.09        0.0
7:54              232        0.0         39       23.4      122.8       23.4       23.3        8.7     1013.9       23.9       19.7        0.0        0.0        0.0       0.00        1.4       0.00       0.09        0.0
7:56              232        0.0         40       23.4      122.8       23.4       23.4        9.1     1013.9       23.9       19.7        0.0        0.0        0.0       0.00        1.4       0.00       0.09        0.0
7:58              232        0.0         40       23.6      122.8       23.6       23.5        9.2     1013.9       23.9       19.7        0.0        0.0        0.0       0.00        1.4       0.00       0.09        0.0
8:00              232        0.0         39       23.7      122.8       23.7       23.6        8.9     1013.9       23.9       19.7        0.0        0.0        0.0       0.00        1.4       0.00       0.09        0.0
8:02              232        0.0         38       23.8      122.8       23.8       23.7        8.6     1013.9       23.9       19.7        0.0        0.0        0.0       0.00        1.4       0.00       0.11        0.0
8:04              232        0.0         37       23.9      122.8       23.9       23.7        8.3     1013.9       23.9       19.7        0.0        0.0        0.0       0.00        1.4       0.00       0.11        0.0
8:06              232        0.0         37       24.1      122.8       24.1       23.9        8.5     1013.9       24.1       19.7        0.0        0.0        0.0       0.00        1.4       0.00       0.11        0.0
8:08              232        0.0         37       24.2      122.8       24.2       24.0        8.6     1013.9       24.2       19.7        0.0        0.0        0.0       0.00        1.4       0.00       0.11        0.0
8:10              232        0.0         37       24.3      122.8       24.3       24.2        8.7     1013.8       24.3       19.7        0.0        0.0        0.0       0.00        1.4       0.00       0.11        0.0
8:12              232        0.0         36       24.4      122.8       24.4       24.2        8.4     1013.9       24.4       19.7        0.0        0.0        0.0       0.00        1.4       0.00       0.11        0.0
8:14              232        0.0         36       24.6      122.8       24.6       24.4        8.6     1013.9       24.6       19.7        0.0        0.0        0.0       0.00        1.4       0.00       0.11        0.0
8:16              232        0.0         35       24.7      122.8       24.7       24.5        8.2     1013.9       24.7       19.7        0.0        0.0        0.0       0.00        1.4       0.00       0.14        0.0
8:18              232        0.0         34       24.8      122.8       24.8       24.5        7.9     1013.9       24.8       19.7        0.0        0.0        0.0       0.00        1.4       0.00       0.14        0.0
8:20              232        0.0         34       24.9      122.8       24.9       24.6        8.0     1013.9       24.9       19.7        0.0        0.0        0.0       0.00        1.4       0.00       0.14        0.0
8:22              232        0.0         34       24.8      122.8       24.8       24.5        7.9     1013.9       24.9       19.7        0.0        0.0        0.0       0.00        1.4       0.00       0.14        0.0
8:24              232        0.0         35       24.8      122.8       24.8       24.6        8.3     1013.9       24.9       19.7        0.0        0.0        0.0       0.00        1.4       0.00       0.14        0.0
8:26              232        0.0         35       24.8      122.8       24.8       24.6        8.3     1013.9       24.9       19.7        0.0        0.0        0.0       0.00        1.4       0.00       0.14        0.0
8:28              232        0.0         35       24.8      122.8       24.8       24.6        8.3     1013.9       24.9       19.7        0.0        0.0        0.0       0.00        1.4       0.00       0.14        0.0
8:29              232        0.0         35       24.9      122.8       24.9       24.6        8.4     1013.9       24.9       19.7        0.0        0.0        0.0       0.00        1.4       0.00       0.14        0.0
8:32              232        0.0         36       25.0      122.8       25.0       24.8        8.9     1013.9       25.0       19.7        0.0        0.0        0.0       0.00        1.4       0.00       0.17        0.0
8:34              232        0.0         35       25.1      122.8       25.1       24.9        8.6     1014.0       25.1       19.7        0.0        0.0        0.0       0.00        1.4       0.00       0.17        0.0
8:36              232        0.0         35       25.2      122.8       25.2       25.0        8.7     1014.2       25.2       19.7        0.0        0.0        0.0       0.00        1.4       0.00       0.17        0.0
8:38              232        0.0         36       25.3      122.8       25.3       25.1        9.2     1014.2       25.3       19.7        0.0        0.0        0.0       0.00        1.4       0.00       0.17        0.0
8:40              232        0.0         35       25.4      122.8       25.4       25.2        8.9     1014.1       25.4       19.7        0.0        0.0        0.0       0.00        1.4       0.00       0.17        0.0
8:42              232        0.0         35       25.6      122.8       25.6       25.3        9.0     1014.1       25.6       19.7        0.0        0.0        0.0       0.00        1.4       0.00       0.17        0.0
8:44              232        0.0         35       25.7      122.8       25.7       25.5        9.1     1014.2       25.7       19.7        0.0        0.0        0.0       0.00        1.4       0.00       0.17        0.0
8:46              232        0.0         34       25.8      122.8       25.8       25.5        8.7     1014.2       25.8       19.7        0.0        0.0        0.0       0.00        1.4       0.00       0.21        0.0
8:48              232        0.0         34       25.7      122.8       25.7       25.4        8.7     1014.2       25.8       19.7        0.0        0.0        0.0       0.00        1.4       0.00       0.21        0.0
8:50              232        0.0         34       25.7      122.8       25.7       25.4        8.7     1014.2       25.8       19.7        0.0        0.0        0.0       0.00        1.4       0.00       0.21        0.0
8:52              232        0.0         36       25.7      122.8       25.7       25.5        9.5     1014.3       25.8       19.7        0.0        0.0        0.0       0.00        1.4       0.00       0.21        0.0
8:54              232        0.0         34       25.8      122.8       25.8       25.5        8.7     1014.3       25.8       19.7        0.0        0.0        0.0       0.00        1.4       0.00       0.21        0.0
8:56              232        0.0         35       25.8      122.8       25.8       25.5        9.2     1014.3       25.8       19.7        0.0        0.0        0.0       0.00        1.4       0.00       0.21        0.0
8:58              232        0.0         35       25.8      122.8       25.8       25.5        9.2     1014.5       25.8       19.7        0.0        0.0        0.0       0.00        1.4       0.00       0.21        0.0
9:00              232        0.0         35       25.8      122.8       25.8       25.5        9.2     1014.3       25.8       19.7        0.0        0.0        0.0       0.00        1.4       0.00       0.21        0.0
9:02              232        0.0         35       25.8      122.8       25.8       25.6        9.2     1014.4       25.8       19.7        0.0        0.0        0.0       0.00        1.4       0.00       0.25        0.0
9:04              232        0.0         35       25.8      122.8       25.8       25.6        9.2     1014.4       25.8       19.7        0.0        0.0        0.0       0.00        1.4       0.00       0.25        0.0
9:06              232        0.0         34       25.9      122.8       25.9       25.6        8.8     1014.5       25.9       19.7        0.0        0.0        0.0       0.00        1.4       0.00       0.25        0.0
9:08              232        0.0         34       25.9      122.8       25.9       25.6        8.9     1014.5       25.9       19.7        0.0        0.0        0.0       0.00        1.4       0.00       0.25        0.0
9:10              232        0.0         34       26.1      122.8       26.1       25.8        9.0     1014.6       26.1       19.7        0.0        0.0        0.0       0.00        1.4       0.00       0.25        0.0
9:12              232        0.0         34       26.1      122.8       26.1       25.8        9.0     1014.6       26.1       19.7        0.0        0.0        0.0       0.00        1.4       0.00       0.25        0.0
9:14              232        0.0         34       26.2      122.8       26.2       25.9        9.1     1014.5       26.2       19.7        0.0        0.0        0.0       0.00        1.4       0.00       0.25        0.0
9:16              232        0.0         33       26.1      122.8       26.1       25.8        8.6     1014.5       26.2       19.7        0.0        0.0        0.0       0.00        1.4       0.00       0.29        0.0
9:18              232        0.0         33       26.1      122.8       26.1       25.8        8.6     1014.5       26.2       19.7        0.0        0.0        0.0       0.00        1.4       0.00       0.29        0.0
9:20              232        0.0         34       26.1      122.8       26.1       25.8        9.0     1014.4       26.2       19.7        0.0        0.0        0.0       0.00        1.4       0.00       0.29        0.0
9:22              232        0.0         33       26.2      122.8       26.2       25.8        8.6     1014.4       26.2       19.7        0.0        0.0        0.0       0.00        1.4       0.00       0.29        0.0
9:24              232        0.0         33       26.2      122.8       26.2       25.8        8.6     1014.5       26.2       19.7        0.0        0.0        0.0       0.00        1.4       0.00       0.29        0.0
9:26              232        0.0         33       26.2      122.8       26.2       25.9        8.7     1014.4       26.2       19.7        0.0        0.0        0.0       0.00        1.4       0.00       0.29        0.0
9:28              232        0.0         33       26.3      122.8       26.3       25.9        8.7     1014.5       26.3       19.7        0.0        0.0        0.0       0.00        1.4       0.00       0.29        0.0
9:30              232        0.0         33       26.3      122.8       26.3       26.0        8.8     1014.5       26.3       19.7        0.0        0.0        0.0       0.00        1.4       0.00       0.29        0.0
9:32              232        0.0         33       26.3      122.8       26.3       25.9        8.7     1014.5       26.3       19.7        0.0        0.0        0.0       0.00        1.4       0.00       0.34        0.0
9:34              232        0.0         34       26.2      122.8       26.2       25.9        9.1     1014.6       26.3       19.7        0.0        0.0        0.0       0.00        1.4       0.00       0.34        0.0
9:36              232        0.0         33       26.2      122.8       26.2       25.9        8.7     1014.6       26.3       19.7        0.0        0.0        0.0       0.00        1.4       0.00       0.34        0.0
9:38              232        3.2         33       26.3      122.8       26.3       26.0        8.8     1014.6       26.3       19.7        0.0        0.0        0.0       0.00        1.5       0.00       0.34        0.0
9:40              232        1.6         33       26.4      122.8       26.4       26.1        8.9     1014.6       26.4       19.7        0.0        0.0        0.0       0.00        1.5       0.00       0.34        0.0
9:42              232        1.6         33       26.6      122.8       26.6       26.2        9.0     1014.6       26.6       19.7        0.0        0.0        0.0       0.00        1.5       0.00       0.34        0.0
9:44              232        3.2         32       26.7      122.8       26.7       26.3        8.6     1014.6       26.7       19.7        0.0        0.0        0.0       0.00        1.6       0.00       0.34        0.0
9:46              232        4.8         32       26.8      122.8       26.8       26.4        8.8     1014.6       26.8       19.7        0.0        0.0        0.0       0.00        1.7       0.00       0.38        0.0
9:48              232        3.2         32       26.9      122.8       26.9       26.5        8.9     1014.6       26.9       19.7        0.0        0.0        0.0       0.00        1.8       0.00       0.38        0.0
9:50              232        0.0         30       27.1      122.8       27.1       26.5        8.0     1014.6       27.1       19.7        0.0        0.0        0.0       0.00        1.8       0.00       0.38        0.0
9:52              232        6.4         30       27.3      122.8       27.3       26.6        8.2     1014.7       27.3       19.7        0.0        0.0        0.0       0.00        1.9       0.00       0.38        0.0
9:54              232        3.2         30       27.4      122.8       27.4       26.7        8.3     1014.8       27.4       19.7        0.0        0.0        0.0       0.00        2.0       0.00       0.38        0.0
9:56              232        0.0         30       27.6      122.8       27.6       26.8        8.4     1014.7       27.6       19.7        0.0        0.0        0.0       0.00        2.0       0.00       0.38        0.0
9:58              232        9.7         30       27.6      122.8       27.3       26.8        8.5     1014.7       27.6       19.7        0.0        0.0        0.0       0.00        2.1       0.00       0.38        0.0
10:00             232        4.8         30       27.7      122.8       27.7       26.9        8.6     1014.7       27.7       19.7        0.0        0.0        0.0       0.00        2.2       0.00       0.38        0.0
10:02             232        4.8         30       27.8      122.8       27.8       27.0        8.7     1014.7       27.8       19.7        0.0        0.0        0.0       0.00        2.4       0.00       0.44        0.0
10:04             232        0.0         30       27.9      122.8       27.9       27.1        8.8     1014.7       27.9       19.7        0.0        0.0        0.0       0.00        2.4       0.00       0.44        0.0
10:06             231        3.2         30       28.1      122.8       28.1       27.2        8.9     1014.7       28.1       19.7        0.0        0.0        0.0       0.00        2.4       0.00       0.44        0.0
10:08             232        0.0         30       28.2      122.8       28.2       27.2        9.0     1014.7       28.2       19.7        0.0        0.0        0.0       0.00        2.5       0.00       0.44        0.0
10:10             231        3.2         29       28.3      122.8       28.3       27.3        8.6     1014.6       28.3       19.7        0.0        0.0        0.0       0.00        2.5       0.00       0.44        0.0
10:12             232        0.0         30       28.3      122.8       28.3       27.3        9.1     1014.6       28.3       19.7        0.0        0.0        0.0       0.00        2.5       0.00       0.44        0.0
10:14             232        4.8         29       28.4      122.8       28.4       27.4        8.7     1014.7       28.4       19.7        0.0        0.0        0.0       0.00        2.6       0.00       0.44        0.0
10:16             232        0.0         29       28.5      122.8       28.5       27.4        8.8     1014.7       28.5       19.7        0.0        0.0        0.0       0.00        2.6       0.00       0.51        0.0
10:18             232        0.0         29       28.6      122.8       28.6       27.5        8.8     1014.7       28.6       19.7        0.0        0.0        0.0       0.00        2.6       0.00       0.51        0.0
10:20             232        0.0         30       28.6      122.8       28.6       27.6        9.4     1014.7       28.6       19.7        0.0        0.0        0.0       0.00        2.6       0.00       0.51        0.0
10:22             232        0.0         29       28.7      122.8       28.7       27.6        8.9     1014.6       28.7       19.7        0.0        0.0        0.0       0.00        2.6       0.00       0.51        0.0
10:24             232        0.0         29       28.8      122.8       28.8       27.6        9.0     1014.7       28.8       19.7        0.0        0.0        0.0       0.00        2.6       0.00       0.51        0.0
10:26             232        0.0         30       28.8      122.8       28.8       27.7        9.5     1014.6       28.8       19.7        0.0        0.0        0.0       0.00        2.6       0.00       0.51        0.0
10:28             231        0.0         30       28.8      122.8       28.8       27.7        9.5     1014.6       28.8       19.7        0.0        0.0        0.0       0.00        2.6       0.00       0.51        0.0
10:30             232        0.0         29       28.8      122.8       28.8       27.6        9.0     1014.5       28.8       19.7        0.0        0.0        0.0       0.00        2.6       0.00       0.51        0.0
10:32             232        0.0         29       28.8      122.8       28.8       27.7        9.0     1014.4       28.8       19.7        0.0        0.0        0.0       0.00        2.6       0.00       0.58        0.0
10:34             231        6.4         30       28.9      122.8       28.9       27.8        9.6     1014.5       28.9       19.7        0.0        0.0        0.0       0.00        2.7       0.00       0.58        0.0
10:36             231        0.0         29       28.9      122.8       28.9       27.8        9.1     1014.4       28.9       19.7        0.0        0.0        0.0       0.00        2.7       0.00       0.58        0.0
10:38             232        0.0         30       28.9      122.8       28.9       27.8        9.6     1014.5       28.9       19.7        0.0        0.0        0.0       0.00        2.7       0.00       0.58        0.0
10:40             232        6.4         29       29.1      122.8       29.1       27.9        9.2     1014.5       29.1       19.7        0.0        0.0        0.0       0.00        2.7       0.00       0.58        0.0
10:42             232        4.8         29       29.2      122.8       29.2       28.0        9.3     1014.5       29.2       19.7        0.0        0.0        0.0       0.00        2.8       0.00       0.58        0.0
10:44             231        3.2         30       29.2      122.8       29.2       28.1        9.9     1014.5       29.2       19.7        0.0        0.0        0.0       0.00        2.9       0.00       0.58        0.0
10:46             231        4.8         30       29.3      122.8       29.3       28.2       10.0     1014.4       29.3       19.7        0.0        0.0        0.0       0.00        3.0       0.00       0.66        0.0
10:48             230        4.8         30       29.4      122.8       29.4       28.2       10.0     1014.4       29.4       19.7        0.0        0.0        0.0       0.00        3.1       0.00       0.66        0.0
10:50             231        0.0         30       29.5      122.8       29.5       28.3       10.1     1014.5       29.5       19.7        0.0        0.0        0.0       0.00        3.2       0.00       0.66        0.0
10:52             231        0.0         30       29.6      122.8       29.6       28.3       10.2     1014.5       29.6       19.7        0.0        0.0        0.0       0.00        3.2       0.00       0.66        0.0
10:54             231        6.4         30       29.6      122.8       29.6       28.3       10.2     1014.5       29.6       19.7        0.0        0.0        0.0       0.00        3.2       0.00       0.66        0.0
10:56             230        4.8         30       29.6      122.8       29.6       28.3       10.2     1014.5       29.6       19.7        0.0        0.0        0.0       0.00        3.3       0.00       0.66        0.0
10:58             230        3.2         30       29.6      122.8       29.6       28.3       10.2     1014.5       29.6       19.7        0.0        0.0        0.0       0.00        3.4       0.00       0.66        0.0
11:00             230        4.8         30       29.6      122.8       29.6       28.4       10.2     1014.5       29.6       19.7        0.0        0.0        0.0       0.00        3.4       0.00       0.66        0.0
11:02             230        3.2         31       29.6      122.8       29.6       28.5       10.7     1014.5       29.6       19.7        0.0        0.0        0.0       0.00        3.5       0.00       0.74        0.0
11:04             229        6.4         31       29.6      122.8       29.6       28.5       10.7     1014.5       29.6       19.7        0.0        0.0        0.0       0.00        3.6       0.00       0.74        0.0
11:06             230        4.8         31       29.6      122.8       29.6       28.5       10.7     1014.5       29.6       19.7        0.0        0.0        0.0       0.00        3.7       0.00       0.74        0.0
11:08             230        1.6         31       29.5      122.8       29.5       28.4       10.6     1014.5       29.6       19.7        0.0        0.0        0.0       0.00        3.8       0.00       0.74        0.0
11:10             229        3.2         31       29.4      122.8       29.4       28.3       10.6     1014.5       29.6       19.7        0.0        0.0        0.0       0.00        3.8       0.00       0.74        0.0
11:12             230        3.2         32       29.4      122.8       29.4       28.3       11.0     1014.5       29.6       19.7        0.0        0.0        0.0       0.00        4.0       0.00       0.74        0.0
11:14             228       11.3         32       29.4      122.8       28.9       28.3       11.0     1014.5       29.6       19.7        0.0        0.0        0.0       0.00        4.2       0.00       0.74        0.0
11:16             202       11.3         31       29.5      122.8       29.5       28.4       10.6     1014.5       29.6       19.7        0.0        0.0        0.0       0.00        4.4       0.00       0.81        0.0
11:18             202        3.2         31       29.5      122.8       29.5       28.4       10.6     1014.5       29.6       19.7        0.0        0.0        0.0       0.00        4.5       0.00       0.81        0.0
11:20             202        6.4         31       29.4      122.8       29.4       28.3       10.6     1014.5       29.6       19.7        0.0        0.0        0.0       0.00        4.7       0.00       0.81        0.0
11:22             202        1.6         31       29.4      122.8       29.4       28.3       10.5     1014.5       29.6       19.7        0.0        0.0        0.0       0.00        4.8       0.00       0.81        0.0
11:24             202        3.2         31       29.3      122.8       29.3       28.2       10.5     1014.5       29.6       19.7        0.0        0.0        0.0       0.00        4.8       0.00       0.81        0.0
11:26             202        0.0         31       29.3      122.8       29.3       28.2       10.4     1014.5       29.6       19.7        0.0        0.0        0.0       0.00        4.8       0.00       0.81        0.0
11:28             202        0.0         32       29.3      122.8       29.3       28.2       10.9     1014.6       29.6       19.7        0.0        0.0        0.0       0.00        4.8       0.00       0.81        0.0
11:30             202        4.8         32       29.3      122.8       29.3       28.3       10.9     1014.5       29.6       19.7        0.0        0.0        0.0       0.00        4.9       0.00       0.81        0.0
11:32             202        3.2         32       29.5      122.8       29.5       28.4       11.1     1014.5       29.6       19.7        0.0        0.0        0.0       0.00        5.0       0.00       0.89        0.0
11:34             201        3.2         32       29.6      122.8       29.6       28.5       11.2     1014.5       29.6       19.7        0.0        0.0        0.0       0.00        5.1       0.00       0.89        0.0
11:36             201        3.2         31       29.7      122.8       29.7       28.6       10.8     1014.5       29.7       19.7        0.0        0.0        0.0       0.00        5.2       0.00       0.89        0.0
11:38             201        1.6         30       29.8      122.8       29.8       28.6       10.4     1014.5       29.8       19.7        0.0        0.0        0.0       0.00        5.3       0.00       0.89        0.0
11:40             202        8.0         30       29.9      122.8       29.9       28.6       10.5     1014.5       29.9       19.7        0.0        0.0        0.0       0.00        5.4       0.00       0.89        0.0
11:42             204        6.4         29       29.9      122.8       29.9       28.6        9.9     1014.4       29.9       19.7        0.0        0.0        0.0       0.00        5.6       0.00       0.89        0.0
11:44             204        1.6         29       29.9      122.8       29.9       28.6        9.9     1014.4       29.9       19.7        0.0        0.0        0.0       0.00        5.6       0.00       0.89        0.0
11:46             203        6.4         30       29.8      122.8       29.8       28.5       10.4     1014.3       29.9       19.7        0.0        0.0        0.0       0.00        5.7       0.00       0.97        0.0
11:48             195        9.7         30       29.8      122.8       29.8       28.5       10.4     1014.3       29.9       19.7        0.0        0.0        0.0       0.00        5.9       0.00       0.97        0.0
11:50             192        1.6         29       29.9      122.8       29.9       28.6        9.9     1014.4       29.9       19.7        0.0        0.0        0.0       0.00        6.1       0.00       0.97        0.0
11:52             192        3.2         29       30.0      122.8       30.0       28.7       10.0     1014.3       30.0       19.7        0.0        0.0        0.0       0.00        6.2       0.00       0.97        0.0
11:54             192        8.0         31       30.1      122.8       30.1       28.9       11.1     1014.3       30.1       19.7        0.0        0.0        0.0       0.00        6.3       0.00       0.97        0.0
11:56             198        9.7         31       30.1      122.8       30.1       28.9       11.1     1014.3       30.1       19.7        0.0        0.0        0.0       0.00        6.4       0.00       0.97        0.0
11:58             198        4.8         30       30.1      122.8       30.1       28.9       10.6     1014.2       30.1       19.7        0.0        0.0        0.0       0.00        6.5       0.00       0.97        0.0
12:00             198        4.8         30       30.1      122.8       30.1       28.8       10.6     1014.3       30.1       19.7        0.0        0.0        0.0       0.00        6.7       0.00       0.97        0.0
12:02             198        3.2         30       30.1      122.8       30.1       28.8       10.6     1014.2       30.1       19.7        0.0        0.0        0.0       0.00        6.7       0.00       1.06        0.0
12:04             198        0.0         30       30.1      122.8       30.1       28.8       10.6     1014.2       30.1       19.7        0.0        0.0        0.0       0.00        6.8       0.00       1.06        0.0
12:06             198        6.4         31       30.1      122.8       30.1       28.9       11.1     1014.3       30.1       19.7        0.0        0.0        0.0       0.00        6.8       0.00       1.06        0.0
12:08             175       14.5         32       30.2      122.8       29.8       29.1       11.7     1014.3       30.2       19.7        0.0        0.0        0.0       0.00        7.1       0.00       1.06        0.0
12:10             182        4.8         32       30.3      122.8       30.3       29.2       11.8     1014.3       30.3       19.7        0.0        0.0        0.0       0.00        7.3       0.00       1.06        0.0
12:12             182        6.4         30       30.4      122.8       30.4       29.1       10.9     1014.3       30.4       19.7        0.0        0.0        0.0       0.00        7.5       0.00       1.06        0.0
12:14             175        4.8         30       30.4      122.8       30.4       29.2       10.9     1014.2       30.4       19.7        0.0        0.0        0.0       0.00        7.7       0.00       1.06        0.0
12:16             175        1.6         30       30.6      122.8       30.6       29.3       11.1     1014.2       30.6       19.7        0.0        0.0        0.0       0.00        7.7       0.00       1.15        0.0
12:18             175       11.3         30       30.7      122.8       30.7       29.4       11.1     1014.3       30.7       19.7        0.0        0.0        0.0       0.00        7.8       0.00       1.15        0.0
12:20             174       12.9         30       30.8      122.8       30.7       29.6       11.3     1014.2       30.8       19.7        0.0        0.0        0.0       0.00        8.1       0.00       1.15        0.0
12:22             174        0.0         30       30.9      122.8       30.9       29.7       11.4     1014.2       30.9       19.7        0.0        0.0        0.0       0.00        8.2       0.00       1.15        0.0
12:24             173        3.2         29       31.0      122.8       31.0       29.6       10.9     1014.2       31.0       19.7        0.0        0.0        0.0       0.00        8.2       0.00       1.15        0.0
12:26             171        8.0         30       31.1      122.8       31.0       29.8       11.5     1014.0       31.1       19.7        0.0        0.0        0.0       0.00        8.4       0.00       1.15        0.0
12:28             169       16.1         29       31.2      122.8       31.1       29.9       11.1     1014.1       31.2       19.7        0.0        0.0        0.0       0.00        8.7       0.00       1.15        0.0
12:29             169        9.7         29       31.3      122.8       31.2       30.0       11.2     1014.0       31.3       19.7        0.0        0.0        0.0       0.00        8.9       0.00       1.15        0.0
12:32             171        6.4         28       31.4      122.8       31.4       30.0       10.8     1014.1       31.4       19.7        0.0        0.0        0.0       0.00        9.1       0.00       1.24        0.0
12:34             169        8.0         28       31.6      122.8       31.6       30.1       10.8     1013.9       31.6       19.7        0.0        0.0        0.0       0.00        9.3       0.00       1.24        0.0
12:36             167        8.0         28       31.7      122.8       31.7       30.2       10.9     1013.9       31.7       19.7        0.0        0.0        0.0       0.00        9.5       0.00       1.24        0.0
12:38             167        0.0         27       31.8      122.8       31.8       30.3       10.5     1014.0       31.8       19.7        0.0        0.0        0.0       0.00        9.5       0.00       1.24        0.0
12:40             167        0.0         28       31.9      122.8       31.9       30.5       11.1     1013.9       31.9       19.7        0.0        0.0        0.0       0.00        9.5       0.00       1.24        0.0
12:42             177        9.7         27       31.9      122.8       31.9       30.4       10.6     1013.9       31.9       19.7        0.0        0.0        0.0       0.00        9.6       0.00       1.24        0.0
12:44             180        8.0         27       31.9      122.8       31.9       30.4       10.6     1014.0       31.9       19.7        0.0        0.0        0.0       0.00        9.8       0.00       1.24        0.0
12:46             180       11.3         26       31.9      122.8       31.8       30.3       10.0     1013.9       31.9       19.7        0.0        0.0        0.0       0.00        9.8       0.00       1.35        0.0
12:48             178        3.2         26       32.0      122.8       32.0       30.4       10.1     1013.8       32.0       19.7        0.0        0.0        0.0       0.00       10.1       0.00       1.35        0.0
12:50             179       14.5         26       32.1      122.8       32.0       30.5       10.2     1013.9       32.1       19.7        0.0        0.0        0.0       0.00       10.2       0.00       1.35        0.0
12:52             178        6.4         26       32.2      122.8       32.2       30.6       10.3     1014.0       32.2       19.7        0.0        0.0        0.0       0.00       10.4       0.00       1.35        0.0
12:54             179       11.3         26       32.2      122.8       32.2       30.6       10.3     1014.0       32.2       19.7        0.0        0.0        0.0       0.00       10.6       0.00       1.35        0.0
12:56             180        4.8         26       32.3      122.8       32.3       30.8       10.4     1013.8       32.3       19.7        0.0        0.0        0.0       0.00       10.8       0.00       1.35        0.0
12:58             180        3.2         26       32.3      122.8       32.3       30.8       10.4     1013.9       32.3       19.7        0.0        0.0        0.0       0.00       10.9       0.00       1.35        0.0
13:00             180        0.0         26       32.4      122.8       32.4       30.9       10.5     1013.7       32.4       19.7        0.0        0.0        0.0       0.00       10.9       0.00       1.35        0.0
13:02             180        0.0         26       32.5      122.8       32.5       30.9       10.5     1013.8       32.5       19.7        0.0        0.0        0.0       0.00       10.9       0.00       1.45        0.0
13:04             180        9.7         26       32.6      122.8       32.6       31.1       10.6     1013.7       32.6       19.7        0.0        0.0        0.0       0.00       11.0       0.00       1.45        0.0
13:06             180        1.6         26       32.7      122.8       32.7       31.1       10.7     1013.8       32.7       19.7        0.0        0.0        0.0       0.00       11.1       0.00       1.45        0.0
13:08             184        9.7         27       32.8      122.8       32.8       31.4       11.3     1013.7       32.8       19.7        0.0        0.0        0.0       0.00       11.2       0.00       1.45        0.0
13:10             194        9.7         26       32.8      122.8       32.8       31.3       10.8     1013.7       32.8       19.7        0.0        0.0        0.0       0.00       11.4       0.00       1.45        0.0
13:12             195        8.0         26       32.8      122.8       32.8       31.2       10.8     1013.6       32.8       19.7        0.0        0.0        0.0       0.00       11.6       0.00       1.45        0.0
13:14             201       11.3         27       32.7      122.8       32.7       31.2       11.2     1013.6       32.8       19.7        0.0        0.0        0.0       0.00       11.9       0.00       1.45        0.0
13:16             200        9.7         27       32.6      122.8       32.5       31.1       11.2     1013.7       32.8       19.7        0.0        0.0        0.0       0.00       12.0       0.00       1.56        0.0
13:18             201        8.0         27       32.5      122.8       32.5       31.0       11.1     1013.7       32.8       19.7        0.0        0.0        0.0       0.00       12.2       0.00       1.56        0.0
13:20             201        3.2         27       32.4      122.8       32.4       30.9       11.0     1013.7       32.8       19.7        0.0        0.0        0.0       0.00       12.3       0.00       1.56        0.0
13:22             201        6.4         27       32.4      122.8       32.4       30.9       11.0     1013.6       32.8       19.7        0.0        0.0        0.0       0.00       12.3       0.00       1.56        0.0
13:24             201        1.6         27       32.4      122.8       32.4       30.9       11.0     1013.6       32.8       19.7        0.0        0.0        0.0       0.00       12.3       0.00       1.56        0.0
13:26             201        0.0         27       32.3      122.8       32.3       30.9       11.0     1013.6       32.8       19.7        0.0        0.0        0.0       0.00       12.4       0.00       1.56        0.0
13:28             201        4.8         27       32.3      122.8       32.3       30.8       10.9     1013.5       32.8       19.7        0.0        0.0        0.0       0.00       12.5       0.00       1.56        0.0
13:30             201        1.6         27       32.3      122.8       32.3       30.9       11.0     1013.5       32.8       19.7        0.0        0.0        0.0       0.00       12.5       0.00       1.56        0.0
13:32             201        3.2         27       32.4      122.8       32.4       30.9       11.0     1013.5       32.8       19.7        0.0        0.0        0.0       0.00       12.6       0.00       1.67        0.0
13:34             200        0.0         27       32.4      122.8       32.4       31.0       11.1     1013.4       32.8       19.7        0.0        0.0        0.0       0.00       12.6       0.00       1.67        0.0
13:36             202        9.7         28       32.6      122.8       32.5       31.2       11.7     1013.5       32.8       19.7        0.0        0.0        0.0       0.00       12.8       0.00       1.67        0.0
13:38             207        6.4         27       32.6      122.8       32.6       31.2       11.2     1013.5       32.8       19.7        0.0        0.0        0.0       0.00       13.0       0.00       1.67        0.0
13:40             207        1.6         27       32.6      122.8       32.6       31.1       11.2     1013.4       32.8       19.7        0.0        0.0        0.0       0.00       13.1       0.00       1.67        0.0
13:42             206        8.0         27       32.6      122.8       32.6       31.2       11.2     1013.3       32.8       19.7        0.0        0.0        0.0       0.00       13.2       0.00       1.67        0.0
13:44             195        6.4         27       32.7      122.8       32.7       31.3       11.3     1013.4       32.8       19.7        0.0        0.0        0.0       0.00       13.4       0.00       1.67        0.0
13:46             192       11.3         27       32.8      122.8       32.8       31.4       11.3     1013.4       32.8       19.7        0.0        0.0        0.0       0.00       13.6       0.00       1.78        0.0
13:48             192        3.2         27       32.9      122.8       32.9       31.5       11.4     1013.4       32.9       19.7        0.0        0.0        0.0       0.00       13.8       0.00       1.78        0.0
13:50             192        1.6         27       32.9      122.8       32.9       31.5       11.5     1013.3       32.9       19.7        0.0        0.0        0.0       0.00       13.8       0.00       1.78        0.0
13:52             192        1.6         26       33.0      122.8       33.0       31.5       11.0     1013.4       33.0       19.7        0.0        0.0        0.0       0.00       13.9       0.00       1.78        0.0
13:54             192        0.0         27       32.9      122.8       32.9       31.5       11.5     1013.3       33.0       19.7        0.0        0.0        0.0       0.00       13.9       0.00       1.78        0.0
13:56             192        4.8         27       33.0      122.8       33.0       31.6       11.5     1013.3       33.0       19.7        0.0        0.0        0.0       0.00       14.0       0.00       1.78        0.0
13:58             192        0.0         26       33.1      122.8       33.1       31.6       11.1     1013.2       33.1       19.7        0.0        0.0        0.0       0.00       14.0       0.00       1.78        0.0
14:00             192        4.8         26       33.3      122.8       33.3       31.8       11.2     1013.1       33.3       19.7        0.0        0.0        0.0       0.00       14.0       0.00       1.78        0.0
14:02             178       14.5         26       33.5      122.8       33.5       32.1       11.4     1013.2       33.5       19.7        0.0        0.0        0.0       0.00       14.3       0.00       1.90        0.0
14:04             180       16.1         25       33.6      122.8       33.6       32.1       10.9     1013.2       33.6       19.7        0.0        0.0        0.0       0.00       14.7       0.00       1.90        0.0
14:06             178       11.3         25       33.7      122.8       33.7       32.1       10.9     1013.2       33.7       19.7        0.0        0.0        0.0       0.00       15.0       0.00       1.90        0.0
14:08             176        4.8         25       33.7      122.8       33.7       32.2       11.0     1013.1       33.7       19.7        0.0        0.0        0.0       0.00       15.2       0.00       1.90        0.0
14:10             177        0.0         25       33.7      122.8       33.7       32.2       11.0     1013.1       33.7       19.7        0.0        0.0        0.0       0.00       15.2       0.00       1.90        0.0
14:12             173       11.3         25       33.8      122.8       33.8       32.3       11.0     1013.1       33.8       19.7        0.0        0.0        0.0       0.00       15.3       0.00       1.90        0.0
14:14             171        6.4         24       33.9      122.8       33.9       32.3       10.5     1013.1       33.9       19.7        0.0        0.0        0.0       0.00       15.5       0.00       1.90        0.0
14:16             169       11.3         24       34.0      122.8       34.0       32.4       10.6     1013.0       34.0       19.7        0.0        0.0        0.0       0.00       15.5       0.00       2.03        0.0
14:18             167       12.9         24       34.2      122.8       34.2       32.6       10.7     1013.0       34.2       19.7        0.0        0.0        0.0       0.00       15.8       0.00       2.03        0.0
14:20             169        8.0         24       34.3      122.8       34.3       32.7       10.8     1013.0       34.3       19.7        0.0        0.0        0.0       0.00       16.1       0.00       2.03        0.0
14:22             170        6.4         24       34.2      122.8       34.2       32.7       10.8     1013.0       34.3       19.7        0.0        0.0        0.0       0.00       16.2       0.00       2.03        0.0
14:24             171       17.7         24       34.2      122.8       34.2       32.6       10.7     1013.0       34.3       19.7        0.0        0.0        0.0       0.00       16.5       0.00       2.03        0.0
14:26             175       14.5         23       34.2      122.8       34.2       32.5       10.1     1013.0       34.3       19.7        0.0        0.0        0.0       0.00       16.9       0.00       2.03        0.0
14:28             175        3.2         23       34.2      122.8       34.2       32.5       10.1     1012.9       34.3       19.7        0.0        0.0        0.0       0.00       17.0       0.00       2.03        0.0
14:30             178        6.4         24       34.2      122.8       34.2       32.7       10.8     1012.9       34.3       19.7        0.0        0.0        0.0       0.00       17.2       0.00       2.03        0.0
14:32             192       14.5         23       34.3      122.8       34.3       32.6       10.2     1012.8       34.3       19.7        0.0        0.0        0.0       0.00       17.5       0.00       2.15        0.0
14:34             189       12.9         23       34.3      122.8       34.3       32.6       10.2     1012.8       34.3       19.7        0.0        0.0        0.0       0.00       17.7       0.00       2.15        0.0
14:36             186       11.3         24       34.3      122.8       34.3       32.7       10.8     1012.8       34.3       19.7        0.0        0.0        0.0       0.00       17.9       0.00       2.15        0.0
14:38             187       12.9         24       34.3      122.8       34.3       32.8       10.9     1012.8       34.3       19.7        0.0        0.0        0.0       0.00       18.2       0.00       2.15        0.0
14:40             187        9.7         24       34.3      122.8       34.3       32.8       10.9     1012.8       34.3       19.7        0.0        0.0        0.0       0.00       18.4       0.00       2.15        0.0
14:42             188        8.0         24       34.3      122.8       34.3       32.7       10.8     1012.7       34.3       19.7        0.0        0.0        0.0       0.00       18.6       0.00       2.15        0.0
14:44             190        9.7         23       34.2      122.8       34.2       32.5       10.1     1012.7       34.3       19.7        0.0        0.0        0.0       0.00       18.9       0.00       2.15        0.0
14:46             194        9.7         24       34.1      122.8       34.1       32.5       10.6     1012.7       34.3       19.7        0.0        0.0        0.0       0.00       19.1       0.00       2.28        0.0
14:48             193        9.7         24       34.0      122.8       34.0       32.4       10.6     1012.7       34.3       19.7        0.0        0.0        0.0       0.00       19.4       0.00       2.28        0.0
14:50             193        3.2         24       34.0      122.8       34.0       32.4       10.6     1012.7       34.3       19.7        0.0        0.0        0.0       0.00       19.5       0.00       2.28        0.0
14:52             193        0.0         24       33.9      122.8       33.9       32.3       10.6     1012.6       34.3       19.7        0.0        0.0        0.0       0.00       19.5       0.00       2.28        0.0
14:54             203       14.5         24       34.0      122.8       34.0       32.4       10.6     1012.6       34.3       19.7        0.0        0.0        0.0       0.00       19.7       0.00       2.28        0.0
14:56             208        9.7         24       34.0      122.8       34.0       32.4       10.6     1012.7       34.3       19.7        0.0        0.0        0.0       0.00       20.0       0.00       2.28        0.0
14:58             208        6.4         24       33.9      122.8       33.9       32.3       10.6     1012.7       34.3       19.7        0.0        0.0        0.0       0.00       20.2       0.00       2.28        0.0
15:00             205       11.3         24       34.0      122.8       34.0       32.4       10.6     1012.7       34.3       19.7        0.0        0.0        0.0       0.00       20.4       0.00       2.28        0.0
15:02             197        8.0         24       34.1      122.8       34.1       32.5       10.6     1012.6       34.3       19.7        0.0        0.0        0.0       0.00       20.7       0.00       2.41        0.0
15:04             190       12.9         24       34.1      122.8       34.1       32.5       10.7     1012.6       34.3       19.7        0.0        0.0        0.0       0.00       21.0       0.00       2.41        0.0
15:06             187        9.7         24       34.1      122.8       34.1       32.5       10.7     1012.5       34.3       19.7        0.0        0.0        0.0       0.00       21.2       0.00       2.41        0.0
15:08             187        6.4         24       34.2      122.8       34.2       32.6       10.7     1012.5       34.3       19.7        0.0        0.0        0.0       0.00       21.4       0.00       2.41        0.0
15:10             185       11.3         24       34.3      122.8       34.3       32.7       10.8     1012.5       34.3       19.7        0.0        0.0        0.0       0.00       21.6       0.00       2.41        0.0
15:12             187        4.8         24       34.3      122.8       34.3       32.8       10.9     1012.5       34.3       19.7        0.0        0.0        0.0       0.00       21.9       0.00       2.41        0.0
15:14             185       12.9         25       34.3      122.8       34.3       32.9       11.5     1012.5       34.3       19.7        0.0        0.0        0.0       0.00       22.2       0.00       2.41        0.0
15:16             166       14.5         25       34.3      122.8       34.3       32.9       11.5     1012.5       34.3       19.7        0.0        0.0        0.0       0.00       22.5       0.00       2.53        0.0
15:18             171       11.3         25       34.3      122.8       34.3       32.9       11.5     1012.6       34.3       19.7        0.0        0.0        0.0       0.00       23.1       0.00       2.53        0.0
15:20             171       12.9         25       34.3      122.8       34.3       32.9       11.5     1012.5       34.3       19.7        0.0        0.0        0.0       0.00       23.4       0.00       2.53        0.0
15:22             171       14.5         25       34.3      122.8       34.3       32.9       11.5     1012.5       34.3       19.7        0.0        0.0        0.0       0.00       23.8       0.00       2.53        0.0
15:24             173       12.9         25       34.4      122.8       34.4       33.0       11.5     1012.4       34.4       19.7        0.0        0.0        0.0       0.00       24.0       0.00       2.53        0.0
15:26             174       16.1         26       34.4      122.8       34.4       33.2       12.2     1012.5       34.4       19.7        0.0        0.0        0.0       0.00       24.5       0.00       2.53        0.0
15:28             171       11.3         26       34.5      122.8       34.5       33.3       12.2     1012.4       34.5       19.7        0.0        0.0        0.0       0.00       24.9       0.00       2.53        0.0
15:30             173       12.9         26       34.5      122.8       34.5       33.3       12.2     1012.4       34.5       19.7        0.0        0.0        0.0       0.00       25.4       0.00       2.53        0.0
15:32             177       20.9         26       34.4      122.8       34.4       33.2       12.2     1012.4       34.5       19.7        0.0        0.0        0.0       0.00       25.7       0.00       2.66        0.0
15:34             178       12.9         26       34.4      122.8       34.4       33.2       12.2     1012.4       34.5       19.7        0.0        0.0        0.0       0.00       26.0       0.00       2.66        0.0
15:36             180       11.3         26       34.4      122.8       34.4       33.2       12.2     1012.4       34.5       19.7        0.0        0.0        0.0       0.00       26.3       0.00       2.66        0.0
15:38             180        6.4         27       34.4      122.8       34.4       33.4       12.8     1012.4       34.5       19.7        0.0        0.0        0.0       0.00       26.5       0.00       2.66        0.0
15:40             181        8.0         27       34.4      122.8       34.4       33.4       12.8     1012.4       34.5       19.7        0.0        0.0        0.0       0.00       26.7       0.00       2.66        0.0
15:42             180        8.0         27       34.4      122.8       34.4       33.4       12.8     1012.3       34.5       19.7        0.0        0.0        0.0       0.00       27.0       0.00       2.66        0.0
15:44             189       11.3         27       34.4      122.8       34.4       33.3       12.7     1012.3       34.5       19.7        0.0        0.0        0.0       0.00       27.3       0.00       2.66        0.0
15:46             188        8.0         27       34.4      122.8       34.4       33.3       12.7     1012.3       34.5       19.7        0.0        0.0        0.0       0.00       27.6       0.00       2.79        0.0
15:48             192       14.5         27       34.3      122.8       34.3       33.2       12.7     1012.3       34.5       19.7        0.0        0.0        0.0       0.00       28.1       0.00       2.79        0.0
15:50             195       11.3         27       34.2      122.8       34.2       33.1       12.6     1012.2       34.5       19.7        0.0        0.0        0.0       0.00       28.4       0.00       2.79        0.0
15:52             198        9.7         28       34.1      122.8       34.1       33.1       13.0     1012.2       34.5       19.7        0.0        0.0        0.0       0.00       28.7       0.00       2.79        0.0
15:54             197        9.7         27       34.0      122.8       34.0       32.8       12.4     1012.2       34.5       19.7        0.0        0.0        0.0       0.00       29.0       0.00       2.79        0.0
15:56             196       14.5         28       34.1      122.8       34.1       33.0       13.0     1012.2       34.5       19.7        0.0        0.0        0.0       0.00       29.2       0.00       2.79        0.0
15:58             192       14.5         27       34.1      122.8       34.1       32.9       12.5     1012.2       34.5       19.7        0.0        0.0        0.0       0.00       29.6       0.00       2.79        0.0
16:00             193        9.7         27       34.1      122.8       34.1       32.9       12.5     1012.3       34.5       19.7        0.0        0.0        0.0       0.00       29.9       0.00       2.79        0.0
16:02             198       12.9         26       34.0      122.8       34.0       32.7       11.8     1012.3       34.5       19.7        0.0        0.0        0.0       0.00       30.2       0.00       2.92        0.0
16:04             199       12.9         27       34.0      122.8       34.0       32.8       12.4     1012.2       34.5       19.7        0.0        0.0        0.0       0.00       30.5       0.00       2.92        0.0
16:06             197        8.0         26       33.9      122.8       33.9       32.5       11.7     1012.2       34.5       19.7        0.0        0.0        0.0       0.00       30.8       0.00       2.92        0.0
16:08             197       11.3         25       33.8      122.8       33.8       32.3       11.1     1012.3       34.5       19.7        0.0        0.0        0.0       0.00       31.1       0.00       2.92        0.0
16:10             189       14.5         25       33.8      122.8       33.8       32.3       11.1     1012.2       34.5       19.7        0.0        0.0        0.0       0.00       31.4       0.00       2.92        0.0
16:12             186       16.1         25       33.8      122.8       33.8       32.3       11.1     1012.2       34.5       19.7        0.0        0.0        0.0       0.00       31.7       0.00       2.92        0.0
16:14             196       14.5         24       33.8      122.8       33.8       32.2       10.5     1012.0       34.5       19.7        0.0        0.0        0.0       0.00       32.0       0.00       2.92        0.0
16:16             193       16.1         24       33.8      122.8       33.8       32.2       10.5     1012.2       34.5       19.7        0.0        0.0        0.0       0.00       32.3       0.00       3.04        0.0
16:18             190       11.3         24       33.9      122.8       33.9       32.3       10.5     1012.0       34.5       19.7        0.0        0.0        0.0       0.00       32.6       0.00       3.04        0.0
16:20             193       17.7         24       33.9      122.8       33.9       32.3       10.6     1012.0       34.5       19.7        0.0        0.0        0.0       0.00       32.8       0.00       3.04        0.0
16:22             180        8.0         24       34.0      122.8       34.0       32.4       10.6     1012.0       34.5       19.7        0.0        0.0        0.0       0.00       33.2       0.00       3.04        0.0
16:24             191        6.4         24       34.1      122.8       34.1       32.5       10.6     1012.0       34.5       19.7        0.0        0.0        0.0       0.00       33.4       0.00       3.04        0.0
16:26             192       14.5         24       34.1      122.8       34.1       32.5       10.7     1012.0       34.5       19.7        0.0        0.0        0.0       0.00       33.7       0.00       3.04        0.0
16:28             195       12.9         23       34.1      122.8       34.1       32.4       10.1     1012.0       34.5       19.7        0.0        0.0        0.0       0.00       34.0       0.00       3.04        0.0
16:30             198       16.1         23       34.1      122.8       34.1       32.4       10.1     1012.1       34.5       19.7        0.0        0.0        0.0       0.00       34.3       0.00       3.04        0.0
16:32             186       16.1         24       34.0      122.8       34.0       32.4       10.6     1012.0       34.5       19.7        0.0        0.0        0.0       0.00       34.7       0.00       3.17        0.0
16:34             186       17.7         24       33.9      122.8       33.9       32.3       10.5     1012.0       34.5       19.7        0.0        0.0        0.0       0.00       35.1       0.00       3.17        0.0
16:36             186       11.3         24       33.8      122.8       33.8       32.2       10.5     1012.0       34.5       19.7        0.0        0.0        0.0       0.00       35.4       0.00       3.17        0.0
16:38             190       17.7         24       33.8      122.8       33.8       32.1       10.4     1012.1       34.5       19.7        0.0        0.0        0.0       0.00       35.8       0.00       3.17        0.0
16:40             185       20.9         23       33.7      122.8       33.7       32.0        9.7     1012.1       34.5       19.7        0.0        0.0        0.0       0.00       36.3       0.00       3.17        0.0
16:42             193       12.9         24       33.6      122.8       33.6       31.9       10.3     1012.0       34.5       19.7        0.0        0.0        0.0       0.00       36.7       0.00       3.17        0.0
16:44             188       12.9         24       33.5      122.8       33.5       31.8       10.2     1012.0       34.5       19.7        0.0        0.0        0.0       0.00       37.1       0.00       3.17        0.0
16:46             188        8.0         24       33.4      122.8       33.4       31.8       10.1     1012.0       34.5       19.7        0.0        0.0        0.0       0.00       37.3       0.00       3.29        0.0
16:48             203       17.7         24       33.4      122.8       33.4       31.8       10.1     1012.0       34.5       19.7        0.0        0.0        0.0       0.00       37.6       0.00       3.29        0.0
16:50             192       17.7         24       33.4      122.8       33.4       31.7       10.1     1012.0       34.5       19.7        0.0        0.0        0.0       0.00       38.1       0.00       3.29        0.0
16:52             196       14.5         24       33.3      122.8       33.3       31.6       10.0     1011.9       34.5       19.7        0.0        0.0        0.0       0.00       38.5       0.00       3.29        0.0
16:54             171       24.1         24       33.3      122.8       33.3       31.6       10.0     1012.0       34.5       19.7        0.0        0.0        0.0       0.00       38.8       0.00       3.29        0.0
16:56             182       12.9         25       33.2      122.8       33.2       31.6       10.6     1011.9       34.5       19.7        0.0        0.0        0.0       0.00       39.2       0.00       3.29        0.0
16:58             182       12.9         25       33.2      122.8       33.2       31.6       10.6     1011.9       34.5       19.7        0.0        0.0        0.0       0.00       39.5       0.00       3.29        0.0
17:00             178       20.9         25       33.2      122.8       33.2       31.6       10.6     1011.9       34.5       19.7        0.0        0.0        0.0       0.00       39.9       0.00       3.29        0.0
17:02             182       11.3         25       33.3      122.8       33.3       31.7       10.6     1011.9       34.5       19.7        0.0        0.0        0.0       0.00       40.3       0.00       3.40        0.0
17:04             194        8.0         25       33.3      122.8       33.3       31.7       10.6     1011.9       34.5       19.7        0.0        0.0        0.0       0.00       40.6       0.00       3.40        0.0
17:06             200       14.5         25       33.3      122.8       33.3       31.7       10.6     1011.9       34.5       19.7        0.0        0.0        0.0       0.00       40.9       0.00       3.40        0.0
17:08             196       16.1         25       33.3      122.8       33.3       31.7       10.6     1011.9       34.5       19.7        0.0        0.0        0.0       0.00       41.2       0.00       3.40        0.0
17:10             197       12.9         25       33.2      122.8       33.2       31.6       10.6     1011.9       34.5       19.7        0.0        0.0        0.0       0.00       41.6       0.00       3.40        0.0
17:12             196       11.3         25       33.2      122.8       33.2       31.6       10.5     1011.9       34.5       19.7        0.0        0.0        0.0       0.00       41.9       0.00       3.40        0.0
17:14             193       14.5         26       33.2      122.8       33.2       31.7       11.1     1011.9       34.5       19.7        0.0        0.0        0.0       0.00       42.2       0.00       3.40        0.0
17:16             200       11.3         26       33.2      122.8       33.2       31.7       11.1     1012.0       34.5       19.7        0.0        0.0        0.0       0.00       42.5       0.00       3.52        0.0
17:18             198       14.5         26       33.2      122.8       33.2       31.7       11.1     1011.9       34.5       19.7        0.0        0.0        0.0       0.00       42.8       0.00       3.52        0.0
17:20             182       19.3         26       33.1      122.8       33.1       31.6       11.1     1011.9       34.5       19.7        0.0        0.0        0.0       0.00       43.2       0.00       3.52        0.0
17:22             182       11.3         26       33.1      122.8       33.1       31.6       11.1     1012.0       34.5       19.7        0.0        0.0        0.0       0.00       43.5       0.00       3.52        0.0
17:24             186       12.9         26       33.1      122.8       33.1       31.6       11.0     1011.9       34.5       19.7        0.0        0.0        0.0       0.00       43.8       0.00       3.52        0.0
17:26             187       16.1         27       33.1      122.8       33.1       31.7       11.6     1011.8       34.5       19.7        0.0        0.0        0.0       0.00       44.1       0.00       3.52        0.0
17:28             188       11.3         27       33.1      122.8       33.1       31.7       11.6     1011.8       34.5       19.7        0.0        0.0        0.0       0.00       44.5       0.00       3.52        0.0
17:30             186       14.5         27       33.1      122.8       33.1       31.7       11.6     1011.8       34.5       19.7        0.0        0.0        0.0       0.00       44.8       0.00       3.52        0.0
17:32             201       14.5         27       33.0      122.8       33.0       31.6       11.5     1011.8       34.5       19.7        0.0        0.0        0.0       0.00       45.2       0.00       3.64        0.0
17:34             201       11.3         27       33.0      122.8       33.0       31.6       11.5     1011.8       34.5       19.7        0.0        0.0        0.0       0.00       45.4       0.00       3.64        0.0
17:36             200       12.9         27       32.9      122.8       32.9       31.5       11.5     1011.9       34.5       19.7        0.0        0.0        0.0       0.00       45.7       0.00       3.64        0.0
17:38             202        6.4         27       32.9      122.8       32.9       31.5       11.5     1011.9       34.5       19.7        0.0        0.0        0.0       0.00       46.0       0.00       3.64        0.0
17:40             202        9.7         27       32.9      122.8       32.9       31.5       11.5     1011.8       34.5       19.7        0.0        0.0        0.0       0.00       46.2       0.00       3.64        0.0
17:42             206       14.5         27       32.9      122.8       32.9       31.5       11.5     1011.8       34.5       19.7        0.0        0.0        0.0       0.00       46.6       0.00       3.64        0.0
17:44             205        9.7         27       32.9      122.8       32.9       31.5       11.4     1011.8       34.5       19.7        0.0        0.0        0.0       0.00       46.9       0.00       3.64        0.0
17:46             202        8.0         27       32.9      122.8       32.9       31.5       11.4     1011.8       34.5       19.7        0.0        0.0        0.0       0.00       47.1       0.00       3.75        0.0
17:48             209       12.9         27       32.9      122.8       32.9       31.5       11.4     1011.8       34.5       19.7        0.0        0.0        0.0       0.00       47.4       0.00       3.75        0.0
17:50             211       11.3         27       32.8      122.8       32.8       31.4       11.3     1011.9       34.5       19.7        0.0        0.0        0.0       0.00       47.7       0.00       3.75        0.0
17:52             216       11.3         26       32.7      122.8       32.7       31.2       10.7     1011.8       34.5       19.7        0.0        0.0        0.0       0.00       48.0       0.00       3.75        0.0
17:54             216       11.3         27       32.7      122.8       32.6       31.2       11.2     1012.0       34.5       19.7        0.0        0.0        0.0       0.00       48.2       0.00       3.75        0.0
17:56             216        9.7         27       32.6      122.8       32.6       31.2       11.2     1012.0       34.5       19.7        0.0        0.0        0.0       0.00       48.4       0.00       3.75        0.0
17:58             219       14.5         27       32.6      122.8       32.6       31.2       11.2     1012.1       34.5       19.7        0.0        0.0        0.0       0.00       48.7       0.00       3.75        0.0
18:00             223       16.1         27       32.6      122.8       32.6       31.2       11.2     1012.0       34.5       19.7        0.0        0.0        0.0       0.00       49.0       0.00       3.75        0.0
18:02             222       14.5         27       32.6      122.8       32.5       31.1       11.2     1012.0       34.5       19.7        0.0        0.0        0.0       0.00       49.3       0.00       3.86        0.0
18:04             221       11.3         27       32.4      122.8       32.4       31.0       11.1     1012.0       34.5       19.7        0.0        0.0        0.0       0.00       49.6       0.00       3.86        0.0
18:06             221       11.3         27       32.4      122.8       32.4       31.0       11.1     1012.0       34.5       19.7        0.0        0.0        0.0       0.00       49.9       0.00       3.86        0.0
18:08             222        8.0         28       32.4      122.8       32.4       31.0       11.6     1012.1       34.5       19.7        0.0        0.0        0.0       0.00       50.1       0.00       3.86        0.0
18:10             221       14.5         27       32.3      122.8       32.2       30.9       11.0     1012.0       34.5       19.7        0.0        0.0        0.0       0.00       50.4       0.00       3.86        0.0
18:12             219       14.5         27       32.3      122.8       32.1       30.8       10.9     1012.0       34.5       19.7        0.0        0.0        0.0       0.00       50.7       0.00       3.86        0.0
18:14             219       12.9         27       32.2      122.8       32.2       30.7       10.9     1012.0       34.5       19.7        0.0        0.0        0.0       0.00       51.0       0.00       3.86        0.0
18:16             221        6.4         28       32.2      122.8       32.2       30.8       11.4     1012.0       34.5       19.7        0.0        0.0        0.0       0.00       51.2       0.00       3.97        0.0
18:18             228       11.3         27       32.1      122.8       32.0       30.6       10.7     1012.0       34.5       19.7        0.0        0.0        0.0       0.00       51.5       0.00       3.97        0.0
18:20             228        4.8         27       32.0      122.8       32.0       30.5       10.7     1012.1       34.5       19.7        0.0        0.0        0.0       0.00       51.8       0.00       3.97        0.0
18:22             229       11.3         27       31.9      122.8       31.9       30.4       10.6     1012.0       34.5       19.7        0.0        0.0        0.0       0.00       52.1       0.00       3.97        0.0
18:24             230       12.9         27       31.8      122.8       31.7       30.3       10.5     1012.1       34.5       19.7        0.0        0.0        0.0       0.00       52.4       0.00       3.97        0.0
18:26             231        9.7         27       31.8      122.8       31.8       30.3       10.5     1012.1       34.5       19.7        0.0        0.0        0.0       0.00       52.7       0.00       3.97        0.0
18:28             229       12.9         27       31.7      122.8       31.6       30.2       10.4     1012.0       34.5       19.7        0.0        0.0        0.0       0.00       52.9       0.00       3.97        0.0
18:30             230       12.9         26       31.7      122.8       31.4       30.1        9.8     1012.0       34.5       19.7        0.0        0.0        0.0       0.00       53.2       0.00       3.97        0.0
18:32             230        4.8         26       31.6      122.8       31.6       30.0        9.8     1012.0       34.5       19.7        0.0        0.0        0.0       0.00       53.3       0.00       4.07        0.0
18:34             229        9.7         26       31.6      122.8       31.6       30.0        9.7     1012.0       34.5       19.7        0.0        0.0        0.0       0.00       53.6       0.00       4.07        0.0
18:36             229        6.4         25       31.5      122.8       31.5       29.8        9.1     1011.9       34.5       19.7        0.0        0.0        0.0       0.00       53.8       0.00       4.07        0.0
18:38             228        6.4         25       31.5      122.8       31.5       29.8        9.1     1012.0       34.5       19.7        0.0        0.0        0.0       0.00       54.0       0.00       4.07        0.0
18:40             228        8.0         25       31.4      122.8       31.4       29.7        9.0     1012.0       34.5       19.7        0.0        0.0        0.0       0.00       54.3       0.00       4.07        0.0
18:42             229        4.8         25       31.3      122.8       31.3       29.7        9.0     1012.1       34.5       19.7        0.0        0.0        0.0       0.00       54.5       0.00       4.07        0.0
18:44             229        4.8         25       31.2      122.8       31.2       29.6        8.9     1012.1       34.5       19.7        0.0        0.0        0.0       0.00       54.7       0.00       4.07        0.0
18:46             229        4.8         25       31.1      122.8       31.1       29.4        8.8     1012.0       34.5       19.7        0.0        0.0        0.0       0.00       54.8       0.00       4.16        0.0
18:48             229        8.0         25       31.0      122.8       31.0       29.3        8.7     1012.1       34.5       19.7        0.0        0.0        0.0       0.00       55.0       0.00       4.16        0.0
18:49             229        4.8         25       30.9      122.8       30.9       29.3        8.6     1012.0       34.5       19.7        0.0        0.0        0.0       0.00       55.2       0.00       4.16        0.0
18:52             231        9.7         24       30.8      122.8       30.8       29.1        7.9     1012.1       34.5       19.7        0.0        0.0        0.0       0.00       55.3       0.00       4.16        0.0
18:54             232       11.3         24       30.7      122.8       30.4       29.0        7.9     1012.2       34.5       19.7        0.0        0.0        0.0       0.00       55.5       0.00       4.16        0.0
18:56             231        6.4         23       30.6      122.8       30.6       28.9        7.1     1012.2       34.5       19.7        0.0        0.0        0.0       0.00       55.8       0.00       4.16        0.0
18:58             232        8.0         23       30.5      122.8       30.5       28.8        7.0     1012.2       34.5       19.7        0.0        0.0        0.0       0.00       56.0       0.00       4.16        0.0
19:00             232        4.8         23       30.4      122.8       30.4       28.7        7.0     1012.3       34.5       19.7        0.0        0.0        0.0       0.00       56.2       0.00       4.16        0.0
19:02             232        8.0         24       30.3      122.8       30.3       28.7        7.5     1012.2       34.5       19.7        0.0        0.0        0.0       0.00       56.3       0.00       4.25        0.0
19:04             232        6.4         24       30.2      122.8       30.2       28.6        7.4     1012.2       34.5       19.7        0.0        0.0        0.0       0.00       56.5       0.00       4.25        0.0
19:06             232        8.0         24       30.1      122.8       30.0       28.5        7.3     1012.2       34.5       19.7        0.0        0.0        0.0       0.00       56.6       0.00       4.25        0.0
19:08             238        9.7         25       30.0      122.8       30.0       28.4        7.8     1012.2       34.5       19.7        0.0        0.0        0.0       0.00       56.9       0.00       4.25        0.0
19:10             240       12.9         25       29.9      122.8       29.6       28.3        7.8     1012.2       34.5       19.7        0.0        0.0        0.0       0.00       57.1       0.00       4.25        0.0
19:12             240        8.0         25       29.7      122.8       29.7       28.2        7.6     1012.2       34.5       19.7        0.0        0.0        0.0       0.00       57.3       0.00       4.25        0.0
19:14             241        8.0         26       29.7      122.8       29.7       28.2        8.1     1012.3       34.5       19.7        0.0        0.0        0.0       0.00       57.5       0.00       4.25        0.0
19:16             241        8.0         26       29.6      122.8       29.6       28.1        8.0     1012.2       34.5       19.7        0.0        0.0        0.0       0.00       57.7       0.00       4.33        0.0
19:18             241        6.4         26       29.4      122.8       29.4       28.0        8.0     1012.3       34.5       19.7        0.0        0.0        0.0       0.00       57.9       0.00       4.33        0.0
19:20             239        6.4         26       29.4      122.8       29.4       28.0        7.9     1012.3       34.5       19.7        0.0        0.0        0.0       0.00       58.1       0.00       4.33        0.0
19:22             239        4.8         27       29.3      122.8       29.3       27.9        8.4     1012.3       34.5       19.7        0.0        0.0        0.0       0.00       58.2       0.00       4.33        0.0
19:24             237        8.0         27       29.2      122.8       29.0       27.9        8.3     1012.2       34.5       19.7        0.0        0.0        0.0       0.00       58.5       0.00       4.33        0.0
19:26             236        9.7         27       29.2      122.8       28.8       27.8        8.3     1012.2       34.5       19.7        0.0        0.0        0.0       0.00       58.7       0.00       4.33        0.0
19:28             235        9.7         27       29.0      122.8       29.0       27.7        8.1     1012.2       34.5       19.7        0.0        0.0        0.0       0.00       58.9       0.00       4.33        0.0
19:30             234        9.7         27       28.9      122.8       28.9       27.7        8.1     1012.3       34.5       19.7        0.0        0.0        0.0       0.00       59.1       0.00       4.33        0.0
19:32             233        9.7         27       28.8      122.8       28.8       27.5        7.9     1012.3       34.5       19.7        0.0        0.0        0.0       0.00       59.3       0.00       4.40        0.0
19:34             232        6.4         27       28.7      122.8       28.7       27.5        7.8     1012.5       34.5       19.7        0.0        0.0        0.0       0.00       59.5       0.00       4.40        0.0
19:36             230        8.0         27       28.6      122.8       28.3       27.4        7.7     1012.4       34.5       19.7        0.0        0.0        0.0       0.00       59.7       0.00       4.40        0.0
19:38             226        8.0         27       28.4      122.8       28.4       27.3        7.7     1012.5       34.5       19.7        0.0        0.0        0.0       0.00       60.0       0.00       4.40        0.0
19:40             225        9.7         27       28.3      122.8       28.1       27.2        7.6     1012.4       34.5       19.7        0.0        0.0        0.0       0.00       60.2       0.00       4.40        0.0
19:42             224        6.4         27       28.2      122.8       28.2       27.1        7.5     1012.5       34.5       19.7        0.0        0.0        0.0       0.00       60.4       0.00       4.40        0.0
19:44             225       11.3         27       28.1      122.8       28.1       27.0        7.4     1012.5       34.5       19.7        0.0        0.0        0.0       0.00       60.6       0.00       4.40        0.0
19:46             225        6.4         28       28.0      122.8       28.0       27.0        7.8     1012.6       34.5       19.7        0.0        0.0        0.0       0.00       60.8       0.00       4.46        0.0
19:48             225        3.2         28       27.9      122.8       27.9       26.9        7.7     1012.5       34.5       19.7        0.0        0.0        0.0       0.00       61.0       0.00       4.46        0.0
19:50             226        6.4         28       27.8      122.8       27.8       26.9        7.7     1012.6       34.5       19.7        0.0        0.0        0.0       0.00       61.2       0.00       4.46        0.0
19:52             223        9.7         29       27.7      122.8       27.7       26.9        8.1     1012.6       34.5       19.7        0.0        0.0        0.0       0.00       61.4       0.00       4.46        0.0
19:54             223        6.4         29       27.7      122.8       27.7       26.8        8.0     1012.6       34.5       19.7        0.0        0.0        0.0       0.00       61.6       0.00       4.46        0.0
19:56             223        9.7         29       27.6      122.8       27.6       26.7        7.9     1012.6       34.5       19.7        0.0        0.0        0.0       0.00       61.8       0.00       4.46        0.0
19:58             221       11.3         29       27.5      122.8       27.5       26.7        7.9     1012.6       34.5       19.7        0.0        0.0        0.0       0.00       62.1       0.00       4.46        0.0
20:00             221        9.7         30       27.4      122.8       27.4       26.7        8.3     1012.7       34.5       19.7        0.0        0.0        0.0       0.00       62.3       0.00       4.46        0.0
20:02             224       12.9         30       27.3      122.8       27.0       26.6        8.3     1012.7       34.5       19.7        0.0        0.0        0.0       0.00       62.5       0.00       4.52        0.0
20:04             225        9.7         30       27.3      122.8       26.8       26.6        8.2     1012.7       34.5       19.7        0.0        0.0        0.0       0.00       62.7       0.00       4.52        0.0
20:06             226        4.8         31       27.2      122.8       27.2       26.6        8.6     1012.7       34.5       19.7        0.0        0.0        0.0       0.00       62.9       0.00       4.52        0.0
20:08             232       11.3         31       27.1      122.8       26.6       26.5        8.5     1012.8       34.5       19.7        0.0        0.0        0.0       0.00       63.1       0.00       4.52        0.0
20:10             234       16.1         31       27.0      122.8       27.0       26.5        8.4     1012.9       34.5       19.7        0.0        0.0        0.0       0.00       63.3       0.00       4.52        0.0
20:12             234        9.7         32       26.9      122.8       26.4       26.5        8.9     1012.8       34.5       19.7        0.0        0.0        0.0       0.00       63.5       0.00       4.52        0.0
20:14             234       11.3         32       26.9      122.8       26.1       26.4        8.8     1012.9       34.5       19.7        0.0        0.0        0.0       0.00       63.6       0.00       4.52        0.0
20:16             234        8.0         32       26.8      122.8       26.8       26.4        8.8     1012.8       34.5       19.7        0.0        0.0        0.0       0.00       63.8       0.00       4.57        0.0
20:18             234        4.8         32       26.8      122.8       26.8       26.4        8.7     1012.9       34.5       19.7        0.0        0.0        0.0       0.00       64.0       0.00       4.57        0.0
20:20             234        6.4         32       26.7      122.8       26.7       26.3        8.7     1012.9       34.5       19.7        0.0        0.0        0.0       0.00       64.2       0.00       4.57        0.0
20:22             235        9.7         32       26.6      122.8       26.0       26.2        8.6     1013.0       34.5       19.7        0.0        0.0        0.0       0.00       64.4       0.00       4.57        0.0
20:24             235        9.7         33       26.6      122.8       26.2       26.2        9.0     1012.9       34.5       19.7        0.0        0.0        0.0       0.00       64.7       0.00       4.57        0.0
20:26             235        6.4         33       26.5      122.8       26.5       26.2        8.9     1013.0       34.5       19.7        0.0        0.0        0.0       0.00       64.9       0.00       4.57        0.0
20:28             236       11.3         33       26.4      122.8       25.5       26.1        8.8     1013.0       34.5       19.7        0.0        0.0        0.0       0.00       65.1       0.00       4.57        0.0
20:30             236        8.0         34       26.4      122.8       26.4       26.1        9.3     1013.0       34.5       19.7        0.0        0.0        0.0       0.00       65.4       0.00       4.57        0.0
20:32             236        9.7         34       26.3      122.8       25.7       26.0        9.2     1013.1       34.5       19.7        0.0        0.0        0.0       0.00       65.6       0.00       4.62        0.0
20:34             240        6.4         35       26.3      122.8       26.3       26.1        9.7     1013.1       34.5       19.7        0.0        0.0        0.0       0.00       65.8       0.00       4.62        0.0
20:36             240        8.0         35       26.3      122.8       26.3       26.1        9.7     1013.1       34.5       19.7        0.0        0.0        0.0       0.00       66.0       0.00       4.62        0.0
20:38             240        8.0         35       26.3      122.8       26.3       26.0        9.6     1013.2       34.5       19.7        0.0        0.0        0.0       0.00       66.2       0.00       4.62        0.0
20:40             240        9.7         36       26.3      122.8       26.3       26.1       10.0     1013.2       34.5       19.7        0.0        0.0        0.0       0.00       66.3       0.00       4.62        0.0
20:42             240        8.0         36       26.2      122.8       26.2       26.0       10.0     1013.2       34.5       19.7        0.0        0.0        0.0       0.00       66.5       0.00       4.62        0.0
20:44             240        6.4         36       26.2      122.8       26.2       26.0        9.9     1013.4       34.5       19.7        0.0        0.0        0.0       0.00       66.6       0.00       4.62        0.0
20:46             240        4.8         36       26.1      122.8       26.1       25.9        9.9     1013.4       34.5       19.7        0.0        0.0        0.0       0.00       66.7       0.00       4.66        0.0
20:48             239        3.2         37       26.1      122.8       26.1       25.9       10.2     1013.4       34.5       19.7        0.0        0.0        0.0       0.00       66.8       0.00       4.66        0.0
20:50             240        1.6         37       26.0      122.8       26.0       25.8       10.2     1013.5       34.5       19.7        0.0        0.0        0.0       0.00       66.8       0.00       4.66        0.0
20:52             240        6.4         38       25.9      122.8       25.9       25.8       10.5     1013.4       34.5       19.7        0.0        0.0        0.0       0.00       66.9       0.00       4.66        0.0
20:54             240        4.8         39       25.9      122.8       25.9       25.9       10.9     1013.5       34.5       19.7        0.0        0.0        0.0       0.00       67.0       0.00       4.66        0.0
20:56             240        8.0         39       25.9      122.8       25.5       25.8       10.9     1013.5       34.5       19.7        0.0        0.0        0.0       0.00       67.1       0.00       4.66        0.0
20:58             241        3.2         39       25.9      122.8       25.9       25.8       10.9     1013.5       34.5       19.7        0.0        0.0        0.0       0.00       67.2       0.00       4.66        0.0
21:00             241        4.8         40       25.8      122.8       25.8       25.8       11.2     1013.5       34.5       19.7        0.0        0.0        0.0       0.00       67.3       0.00       4.66        0.0
21:02             242        6.4         40       25.8      122.8       25.8       25.7       11.2     1013.5       34.5       19.7        0.0        0.0        0.0       0.00       67.5       0.00       4.70        0.0
21:04             242        6.4         40       25.7      122.8       25.7       25.7       11.1     1013.6       34.5       19.7        0.0        0.0        0.0       0.00       67.6       0.00       4.70        0.0
21:06             242        6.4         40       25.7      122.8       25.7       25.7       11.1     1013.6       34.5       19.7        0.0        0.0        0.0       0.00       67.8       0.00       4.70        0.0
21:08             242        6.4         41       25.7      122.8       25.7       25.7       11.4     1013.5       34.5       19.7        0.0        0.0        0.0       0.00       67.9       0.00       4.70        0.0
21:10             242        3.2         41       25.6      122.8       25.6       25.6       11.4     1013.5       34.5       19.7        0.0        0.0        0.0       0.00       68.0       0.00       4.70        0.0
21:12             242        6.4         41       25.6      122.8       25.6       25.6       11.3     1013.6       34.5       19.7        0.0        0.0        0.0       0.00       68.2       0.00       4.70        0.0
21:14             242        9.7         41       25.5      122.8       25.1       25.5       11.3     1013.6       34.5       19.7        0.0        0.0        0.0       0.00       68.3       0.00       4.70        0.0
21:16             242        4.8         41       25.4      122.8       25.4       25.4       11.2     1013.7       34.5       19.7        0.0        0.0        0.0       0.00       68.4       0.00       4.74        0.0
21:18             242        8.0         41       25.4      122.8       25.0       25.4       11.2     1013.7       34.5       19.7        0.0        0.0        0.0       0.00       68.6       0.00       4.74        0.0
21:20             242        3.2         40       25.3      122.8       25.3       25.3       10.8     1013.7       34.5       19.7        0.0        0.0        0.0       0.00       68.7       0.00       4.74        0.0
21:22             242        4.8         39       25.3      122.8       25.3       25.2       10.3     1013.7       34.5       19.7        0.0        0.0        0.0       0.00       68.9       0.00       4.74        0.0
21:24             242        4.8         39       25.2      122.8       25.2       25.1       10.3     1013.7       34.5       19.7        0.0        0.0        0.0       0.00       69.0       0.00       4.74        0.0
21:26             242        8.0         39       25.2      122.8       25.2       25.1       10.3     1013.7       34.5       19.7        0.0        0.0        0.0       0.00       69.1       0.00       4.74        0.0
21:28             242        4.8         37       25.2      122.8       25.2       25.0        9.5     1013.7       34.5       19.7        0.0        0.0        0.0       0.00       69.2       0.00       4.74        0.0
21:30             243        6.4         36       25.2      122.8       25.2       25.0        9.1     1013.8       34.5       19.7        0.0        0.0        0.0       0.00       69.4       0.00       4.74        0.0
21:32             243        8.0         36       25.2      122.8       25.2       25.0        9.1     1013.7       34.5       19.7        0.0        0.0        0.0       0.00       69.6       0.00       4.77        0.0
21:34             242       12.9         36       25.1      122.8       24.7       24.9        9.0     1013.7       34.5       19.7        0.0        0.0        0.0       0.00       69.8       0.00       4.77        0.0
21:36             242        6.4         36       25.1      122.8       25.1       24.9        9.0     1013.7       34.5       19.7        0.0        0.0        0.0       0.00       70.0       0.00       4.77        0.0
21:38             242        1.6         36       25.1      122.8       25.1       24.9        9.0     1013.7       34.5       19.7        0.0        0.0        0.0       0.00       70.1       0.00       4.77        0.0
21:40             242        4.8         36       25.1      122.8       25.1       24.8        9.0     1013.7       34.5       19.7        0.0        0.0        0.0       0.00       70.2       0.00       4.77        0.0
21:42             242        6.4         36       25.0      122.8       25.0       24.8        8.9     1013.7       34.5       19.7        0.0        0.0        0.0       0.00       70.3       0.00       4.77        0.0
21:44             242        4.8         37       25.0      122.8       25.0       24.8        9.3     1013.7       34.5       19.7        0.0        0.0        0.0       0.00       70.5       0.00       4.77        0.0
21:46             242        3.2         37       24.9      122.8       24.9       24.7        9.2     1013.7       34.5       19.7        0.0        0.0        0.0       0.00       70.6       0.00       4.80        0.0
21:48             242        3.2         37       24.9      122.8       24.9       24.7        9.2     1013.7       34.5       19.7        0.0        0.0        0.0       0.00       70.7       0.00       4.80        0.0
21:50             242        6.4         38       24.8      122.8       24.8       24.7        9.6     1013.8       34.5       19.7        0.0        0.0        0.0       0.00       70.8       0.00       4.80        0.0
21:52             242        6.4         39       24.8      122.8       24.8       24.7        9.9     1013.7       34.5       19.7        0.0        0.0        0.0       0.00       71.0       0.00       4.80        0.0
21:54             242        3.2         39       24.7      122.8       24.7       24.6        9.8     1013.6       34.5       19.7        0.0        0.0        0.0       0.00       71.1       0.00       4.80        0.0
21:56             242        6.4         39       24.6      122.8       24.6       24.5        9.7     1013.8       34.5       19.7        0.0        0.0        0.0       0.00       71.2       0.00       4.80        0.0
21:58             242        1.6         40       24.6      122.8       24.6       24.5       10.1     1013.8       34.5       19.7        0.0        0.0        0.0       0.00       71.3       0.00       4.80        0.0
22:00             242        4.8         40       24.5      122.8       24.5       24.5       10.0     1013.7       34.5       19.7        0.0        0.0        0.0       0.00       71.5       0.00       4.80        0.0
22:02             242        4.8         40       24.4      122.8       24.4       24.3        9.9     1013.7       34.5       19.7        0.0        0.0        0.0       0.00       71.6       0.00       4.83        0.0
22:04             242        3.2         40       24.3      122.8       24.3       24.3        9.9     1013.7       34.5       19.7        0.0        0.0        0.0       0.00       71.7       0.00       4.83        0.0
22:06             242        3.2         41       24.3      122.8       24.3       24.3       10.2     1013.7       34.5       19.7        0.0        0.0        0.0       0.00       71.8       0.00       4.83        0.0
22:08             242        1.6         41       24.2      122.8       24.2       24.2       10.1     1013.7       34.5       19.7        0.0        0.0        0.0       0.00       71.8       0.00       4.83        0.0
22:10             242        3.2         41       24.1      122.8       24.1       24.1       10.0     1013.7       34.5       19.7        0.0        0.0        0.0       0.00       71.9       0.00       4.83        0.0
22:12             242        3.2         41       24.1      122.8       24.1       24.1       10.0     1013.7       34.5       19.7        0.0        0.0        0.0       0.00       72.0       0.00       4.83        0.0
22:14             242        6.4         41       24.0      122.8       24.0       24.0        9.9     1013.7       34.5       19.7        0.0        0.0        0.0       0.00       72.1       0.00       4.83        0.0
22:16             242        4.8         41       23.9      122.8       23.9       23.9        9.9     1013.7       34.5       19.7        0.0        0.0        0.0       0.00       72.2       0.00       4.85        0.0
22:18             242        3.2         42       23.9      122.8       23.9       23.9       10.2     1013.6       34.5       19.7        0.0        0.0        0.0       0.00       72.3       0.00       4.85        0.0
22:20             242        3.2         42       23.9      122.8       23.9       23.9       10.2     1013.7       34.5       19.7        0.0        0.0        0.0       0.00       72.4       0.00       4.85        0.0
22:22             242        1.6         42       23.9      122.8       23.9       23.9       10.2     1013.6       34.5       19.7        0.0        0.0        0.0       0.00       72.4       0.00       4.85        0.0
22:24             242        4.8         42       23.8      122.8       23.8       23.9       10.2     1013.8       34.5       19.7        0.0        0.0        0.0       0.00       72.6       0.00       4.85        0.0
22:26             242        1.6         43       23.8      122.8       23.8       23.9       10.5     1013.7       34.5       19.7        0.0        0.0        0.0       0.00       72.6       0.00       4.85        0.0
22:28             242        3.2         43       23.8      122.8       23.8       23.9       10.5     1013.8       34.5       19.7        0.0        0.0        0.0       0.00       72.7       0.00       4.85        0.0
22:30             242        3.2         44       23.8      122.8       23.8       23.9       10.8     1013.8       34.5       19.7        0.0        0.0        0.0       0.00       72.7       0.00       4.85        0.0
22:32             242        3.2         44       23.8      122.8       23.8       23.9       10.8     1013.8       34.5       19.7        0.0        0.0        0.0       0.00       72.8       0.00       4.87        0.0
22:34             242        0.0         45       23.7      122.8       23.7       23.9       11.1     1013.9       34.5       19.7        0.0        0.0        0.0       0.00       72.8       0.00       4.87        0.0
22:36             242        6.4         45       23.7      122.8       23.7       23.9       11.0     1013.9       34.5       19.7        0.0        0.0        0.0       0.00       72.9       0.00       4.87        0.0
22:38             242        6.4         46       23.6      122.8       23.6       23.9       11.3     1013.9       34.5       19.7        0.0        0.0        0.0       0.00       73.0       0.00       4.87        0.0
22:40             242        3.2         46       23.6      122.8       23.6       23.8       11.3     1013.9       34.5       19.7        0.0        0.0        0.0       0.00       73.1       0.00       4.87        0.0
22:42             242        3.2         46       23.4      122.8       23.4       23.7       11.2     1013.9       34.5       19.7        0.0        0.0        0.0       0.00       73.3       0.00       4.87        0.0
22:44             242        3.2         46       23.3      122.8       23.3       23.6       11.1     1014.0       34.5       19.7        0.0        0.0        0.0       0.00       73.3       0.00       4.87        0.0
22:46             242        4.8         46       23.3      122.8       23.3       23.5       11.0     1014.0       34.5       19.7        0.0        0.0        0.0       0.00       73.4       0.00       4.88        0.0
22:48             242        4.8         47       23.2      122.8       23.2       23.5       11.2     1014.0       34.5       19.7        0.0        0.0        0.0       0.00       73.5       0.00       4.88        0.0
22:50             242        6.4         47       23.1      122.8       23.1       23.4       11.2     1014.0       34.5       19.7        0.0        0.0        0.0       0.00       73.6       0.00       4.88        0.0
22:52             242        4.8         48       23.0      122.8       23.0       23.3       11.4     1014.0       34.5       19.7        0.0        0.0        0.0       0.00       73.8       0.00       4.88        0.0
22:54             242        1.6         48       22.9      122.8       22.9       23.3       11.4     1014.1       34.5       19.7        0.0        0.0        0.0       0.00       73.8       0.00       4.88        0.0
22:56             242        4.8         49       22.8      122.8       22.8       23.2       11.6     1014.1       34.5       19.7        0.0        0.0        0.0       0.00       73.9       0.00       4.88        0.0
22:58             242        0.0         49       22.8      122.8       22.8       23.2       11.5     1014.0       34.5       19.7        0.0        0.0        0.0       0.00       74.0       0.00       4.88        0.0
23:00             242        4.8         50       22.7      122.8       22.7       23.2       11.8     1014.1       34.5       19.7        0.0        0.0        0.0       0.00       74.1       0.00       4.88        0.0
23:02             242        3.2         50       22.7      122.8       22.7       23.1       11.7     1014.0       34.5       19.7        0.0        0.0        0.0       0.00       74.1       0.00       4.89        0.0
23:04             242        4.8         51       22.6      122.8       22.6       23.1       12.0     1014.1       34.5       19.7        0.0        0.0        0.0       0.00       74.2       0.00       4.89        0.0
23:06             242        6.4         51       22.5      122.8       22.5       23.0       11.9     1014.1       34.5       19.7        0.0        0.0        0.0       0.00       74.3       0.00       4.89        0.0
23:08             242        3.2         52       22.4      122.8       22.4       22.9       12.1     1014.0       34.5       19.7        0.0        0.0        0.0       0.00       74.4       0.00       4.89        0.0
23:10             242        4.8         52       22.3      122.8       22.3       22.8       12.0     1014.1       34.5       19.7        0.0        0.0        0.0       0.00       74.4       0.00       4.89        0.0
23:12             242        1.6         52       22.2      122.8       22.2       22.7       11.9     1014.1       34.5       19.7        0.0        0.0        0.0       0.00       74.5       0.00       4.89        0.0
23:14             242        4.8         53       22.1      122.8       22.1       22.7       12.1     1014.0       34.5       19.7        0.0        0.0        0.0       0.00       74.6       0.00       4.89        0.0
23:16             242        1.6         53       22.0      122.8       22.0       22.6       12.0     1014.1       34.5       19.7        0.0        0.0        0.0       0.00       74.6       0.00       4.89        0.0
23:18             242        4.8         54       21.9      122.8       21.9       22.6       12.2     1014.1       34.5       19.7        0.0        0.0        0.0       0.00       74.7       0.00       4.89        0.0
23:20             242        4.8         54       21.9      122.8       21.9       22.5       12.2     1014.0       34.5       19.7        0.0        0.0        0.0       0.00       74.8       0.00       4.89        0.0
23:22             242        3.2         54       21.8      122.8       21.8       22.5       12.1     1014.1       34.5       19.7        0.0        0.0        0.0       0.00       74.9       0.00       4.89        0.0
23:24             242        6.4         54       21.8      122.8       21.8       22.4       12.1     1014.1       34.5       19.7        0.0        0.0        0.0       0.00       75.0       0.00       4.89        0.0
23:26             242        1.6         55       21.7      122.8       21.7       22.4       12.3     1014.1       34.5       19.7        0.0        0.0        0.0       0.00       75.1       0.00       4.89        0.0
23:28             242        3.2         55       21.7      122.8       21.7       22.4       12.2     1014.1       34.5       19.7        0.0        0.0        0.0       0.00       75.2       0.00       4.89        0.0
23:30             242        3.2         55       21.6      122.8       21.6       22.3       12.2     1014.1       34.5       19.7        0.0        0.0        0.0       0.00       75.3       0.00       4.89        0.0
23:32             242        6.4         56       21.6      122.8       21.6       22.4       12.5     1014.1       34.5       19.7        0.0        0.0        0.0       0.00       75.4       0.00       4.89        0.0
23:34             242        4.8         56       21.5      122.8       21.5       22.3       12.4     1014.1       34.5       19.7        0.0        0.0        0.0       0.00       75.5       0.00       4.89        0.0
23:36             241        4.8         56       21.5      122.8       21.5       22.3       12.4     1014.1       34.5       19.7        0.0        0.0        0.0       0.00       75.7       0.00       4.89        0.0
23:38             241        3.2         57       21.4      122.8       21.4       22.3       12.6     1014.1       34.5       19.7        0.0        0.0        0.0       0.00       75.8       0.00       4.89        0.0
23:40             239        6.4         58       21.4      122.8       21.4       22.3       12.8     1014.3       34.5       19.7        0.0        0.0        0.0       0.00       75.9       0.00       4.89        0.0
23:42             238        3.2         58       21.3      122.8       21.3       22.2       12.7     1014.3       34.5       19.7        0.0        0.0        0.0       0.00       76.1       0.00       4.89        0.0
23:44             238        4.8         59       21.3      122.8       21.3       22.2       13.0     1014.3       34.5       19.7        0.0        0.0        0.0       0.00       76.2       0.00       4.89        0.0
23:46             238        3.2         59       21.2      122.8       21.2       22.1       12.8     1014.3       34.5       19.7        0.0        0.0        0.0       0.00       76.3       0.00       4.89        0.0
23:48             238        3.2         60       21.1      122.8       21.1       22.1       13.1     1014.3       34.5       19.7        0.0        0.0        0.0       0.00       76.3       0.00       4.89        0.0
23:50             237        8.0         61       21.1      122.8       21.1       22.1       13.3     1014.3       34.5       19.7        0.0        0.0        0.0       0.00       76.5       0.00       4.89        0.0
23:52             236        9.7         62       21.0      122.8       21.0       22.1       13.4     1014.3       34.5       19.7        0.0        0.0        0.0       0.00       76.7       0.00       4.89        0.0
23:54             235        4.8         63       21.0      122.8       21.0       22.2       13.7     1014.3       34.5       19.7        0.0        0.0        0.0       0.00       76.8       0.00       4.89        0.0
23:56             235        6.4         64       20.9      122.8       20.9       22.2       13.9     1014.3       34.5       19.7        0.0        0.0        0.0       0.00       76.9       0.00       4.89        0.0
23:58             235        8.0         65       20.9      122.8       20.9       22.2       14.1     1014.3       34.5       19.7        0.0        0.0        0.0       0.00       77.1       0.00       4.89        0.0